[[{"header":{"parameterUnit":"m.s-1","parameterCategory":1,"la1":31.0,"la2":29.5877,"lo1":-88.7671,"lo2":-86.6584,"dy":0.0162,"dx":0.0185,"nx":115,"ny":88,"refTime":"2023-04-11T12:00:00:Z","depth":0,"parameterNumber":2,"parameterNumberName":"U-component_of_WINDS"},"data":[0.0,0.0,0.0,0.0,0.0,0.0,0.0,0.0,0.0,0.0,0.0,0.0,0.0,0.0,0.0,0.0,0.0,0.0,0.0,0.0,0.0,0.0,0.0,0.0,0.0,0.0,0.0,0.0,0.0,0.0,0.0,0.0,0.0,0.0,0.0,0.0,0.0,0.0,0.0,0.0,0.0,0.0,0.0,0.0,0.0,0.0,0.0,0.0,0.0,0.0,0.0,0.0,0.0,0.0,0.0,0.0,0.0,0.0,0.0,0.0,0.0,0.0,0.0,0.0,0.0,0.0,0.0,0.0,0.0,0.0,0.0,0.0,0.0,0.0,0.0,0.0,0.0,0.0,0.0,0.0,0.0,0.0,0.0,0.0,0.0,0.0,0.0,0.0,0.0,0.0,0.0,0.0,0.0,0.0,0.0,0.0,0.0,0.0,0.0,0.0,0.0,0.0,0.0,0.0,0.0,0.0,0.0,0.0,0.0,0.0,0.0,0.0,0.0,0.0,0.0,0.0,0.0,0.0,0.0,0.0,0.0,0.0,0.0,0.0,0.0,0.0,0.0,0.0,0.0,0.0,0.0,0.0,0.0,0.0,0.0,0.0,0.0,0.0,0.0,0.0,0.0,0.0,0.0,0.0,0.0,0.0,0.0,0.0,0.0,0.0,0.0,0.0,0.0,0.0,0.0,0.0,0.0,0.0,0.0,0.0,0.0,0.0,0.0,0.0,0.0,0.0,0.0,0.0,0.0,0.0,0.0,0.0,0.0,0.0,0.0,0.0,0.0,0.0,0.0,0.0,0.0,0.0,0.0,0.0,0.0,0.0,0.0,0.0,0.0,0.0,0.0,0.0,0.0,0.0,0.0,0.0,0.0,0.0,0.0,0.0,0.0,0.0,0.0,0.0,0.0,0.0,0.0,0.0,0.0,0.0,0.0,0.0,0.0,0.0,0.0,0.0,0.0,0.0,0.0,0.0,0.0,0.0,0.0,0.0,0.0,0.0,0.0,0.0,0.0,0.0,0.0,0.0,0.0,0.0,0.0,0.0,0.0,0.0,0.0,0.0,0.0,0.0,0.0,0.0,0.0,0.0,0.0,0.0,0.0,0.0,0.0,0.0,0.0,0.0,0.0,0.0,0.0,0.0,0.0,0.0,0.0,0.0,0.0,0.0,0.0,0.0,0.0,0.0,0.0,0.0,0.0,0.0,0.0,0.0,0.0,0.0,0.0,0.0,0.0,0.0,0.0,0.0,0.0,0.0,0.0,0.0,0.0,0.0,0.0,0.0,0.0,0.0,0.0,0.0,0.0,0.0,0.0,0.0,0.0,0.0,0.0,0.0,0.0,0.0,0.0,0.0,0.0,0.0,0.0,0.0,0.0,0.0,0.0,0.0,0.0,0.0,0.0,0.0,0.0,0.0,0.0,0.0,0.0,0.0,0.0,0.0,0.0,0.0,0.0,0.0,0.0,0.0,0.0,0.0,0.0,0.0,0.0,0.0,0.0,0.0,0.0,0.0,0.0,0.0,0.0,0.0,0.0,0.0,0.0,0.0,0.0,0.0,0.0,0.0,0.0,0.0,0.0,0.0,0.0,0.0,0.0,0.0,0.0,0.0,0.0,0.0,0.0,0.0,0.0,0.0,0.0,0.0,0.0,0.0,0.0,0.0,0.0,0.0,0.0,0.0,0.0,0.0,0.0,0.0,0.0,0.0,0.0,0.0,0.0,0.0,0.0,0.0,0.0,0.0,0.0,0.0,0.0,0.0,0.0,0.0,0.0,0.0,0.0,0.0,0.0,0.0,0.0,0.0,0.0,0.0,0.0,0.0,0.0,0.0,0.0,0.0,0.0,0.0,0.0,0.0,0.0,0.0,0.0,0.0,0.0,0.0,0.0,0.0,0.0,0.0,0.0,0.0,0.0,0.0,0.0,0.0,0.0,0.0,0.0,0.0,0.0,0.0,0.0,0.0,0.0,0.0,0.0,0.0,0.0,0.0,0.0,0.0,0.0,0.0,0.0,0.0,0.0,0.0,0.0,0.0,0.0,0.0,0.0,0.0,0.0,0.0,0.0,0.0,0.0,0.0,0.0,0.0,0.0,0.0,0.0,0.0,0.0,0.0,0.0,0.0,0.0,0.0,0.0,0.0,0.0,0.0,0.0,0.0,0.0,0.0,0.0,0.0,0.0,0.0,0.0,0.0,0.0,0.0,0.0,0.0,0.0,0.0,0.0,0.0,0.0,0.0,0.0,0.0,0.0,0.0,0.0,0.0,0.0,0.0,0.0,0.0,0.0,0.0,0.0,0.0,0.0,0.0,0.0,0.0,0.0,0.0,0.0,0.0,0.0,0.0,0.0,0.0,0.0,0.0,0.0,0.0,0.0,0.0,0.0,0.0,0.0,0.0,0.0,0.0,0.0,0.0,0.0,0.0,0.0,0.0,0.0,0.0,0.0,0.0,0.0,0.0,0.0,0.0,0.0,0.0,0.0,0.0,0.0,0.0,0.0,0.0,0.0,0.0,0.0,0.0,0.0,0.0,0.0,0.0,0.0,0.0,0.0,0.0,0.0,0.0,0.0,0.0,0.0,0.0,0.0,0.0,0.0,0.0,0.0,0.0,0.0,0.0,0.0,0.0,0.0,0.0,0.0,0.0,0.0,0.0,0.0,0.0,0.0,0.0,0.0,0.0,0.0,0.0,0.0,0.0,0.0,0.0,0.0,0.0,0.0,0.0,0.0,0.0,0.0,0.0,0.0,0.0,0.0,0.0,0.0,0.0,0.0,0.0,0.0,0.0,0.0,0.0,0.0,0.0,0.0,0.0,0.0,0.0,0.0,0.0,0.0,0.0,0.0,0.0,0.0,0.0,0.0,0.0,0.0,0.0,0.0,0.0,0.0,0.0,0.0,0.0,0.0,0.0,0.0,0.0,0.0,0.0,0.0,0.0,0.0,0.0,0.0,0.0,0.0,0.0,0.0,0.0,0.0,0.0,0.0,0.0,0.0,0.0,0.0,0.0,0.0,0.0,0.0,0.0,0.0,0.0,0.0,0.0,0.0,0.0,0.0,0.0,0.0,0.0,0.0,0.0,0.0,0.0,0.0,0.0,0.0,0.0,0.0,0.0,0.0,0.0,0.0,0.0,0.0,0.0,0.0,0.0,0.0,0.0,0.0,0.0,0.0,0.0,0.0,0.0,0.0,0.0,0.0,0.0,0.0,0.0,0.0,0.0,0.0,0.0,0.0,0.0,0.0,0.0,0.0,0.0,0.0,0.0,0.0,0.0,0.0,0.0,0.0,0.0,0.0,0.0,0.0,0.0,0.0,0.0,0.0,0.0,0.0,0.0,0.0,0.0,0.0,0.0,0.0,0.0,0.0,0.0,0.0,0.0,0.0,0.0,0.0,0.0,0.0,0.0,0.0,0.0,0.0,0.0,0.0,0.0,0.0,0.0,0.0,0.0,0.0,0.0,0.0,0.0,0.0,0.0,0.0,0.0,0.0,0.0,0.0,0.0,0.0,0.0,0.0,0.0,0.0,0.0,0.0,0.0,0.0,0.0,0.0,0.0,0.0,0.0,0.0,0.0,0.0,0.0,0.0,0.0,0.0,0.0,0.0,0.0,0.0,0.0,0.0,0.0,0.0,0.0,0.0,0.0,0.0,0.0,0.0,0.0,0.0,0.0,0.0,0.0,0.0,0.0,0.0,0.0,0.0,0.0,0.0,0.0,0.0,0.0,0.0,0.0,0.0,0.0,0.0,0.0,0.0,0.0,0.0,0.0,0.0,0.0,0.0,0.0,0.0,0.0,0.0,0.0,0.0,0.0,0.0,0.0,0.0,0.0,0.0,0.0,0.0,0.0,0.0,0.0,0.0,0.0,0.0,0.0,0.0,0.0,0.0,0.0,0.0,0.0,0.0,0.0,0.0,0.0,0.0,0.0,0.0,0.0,0.0,0.0,0.0,0.0,0.0,0.0,0.0,0.0,0.0,0.0,0.0,0.0,0.0,0.0,0.0,0.0,0.0,0.0,0.0,0.0,0.0,0.0,0.0,0.0,0.0,0.0,0.0,0.0,0.0,0.0,0.0,0.0,0.0,0.0,0.0,0.0,0.0,0.0,0.0,0.0,0.0,0.0,0.0,0.0,0.0,0.0,0.0,0.0,0.0,0.0,0.0,0.0,0.0,0.0,0.0,0.0,0.0,0.0,0.0,0.0,0.0,0.0,0.0,0.0,0.0,0.0,0.0,0.0,0.0,0.0,0.0,0.0,0.0,0.0,0.0,0.0,1.2723,0.0,0.0,0.0,0.0,0.0,0.0,0.0,0.0,0.0,0.0,0.0,0.0,0.0,0.0,0.0,0.0,0.0,0.0,0.0,0.0,0.0,0.0,0.0,0.0,0.0,0.0,0.0,0.0,0.0,0.0,0.0,0.0,0.0,0.0,0.0,0.0,0.0,0.0,0.0,0.0,0.0,0.0,0.0,0.0,0.0,0.0,0.0,0.0,0.0,0.0,0.0,0.0,0.0,0.0,0.0,0.0,0.0,0.0,0.0,0.0,0.0,0.0,0.0,0.0,0.0,0.0,0.0,0.0,0.0,0.0,0.0,0.0,0.0,0.0,0.0,0.0,0.0,0.0,0.0,0.0,0.0,0.0,0.0,0.0,0.0,0.0,0.0,0.0,0.0,0.0,0.0,0.0,0.0,0.0,0.0,0.0,0.0,0.0,0.0,0.0,0.0,0.0,0.0,0.0,0.0,0.0,0.0,0.0,0.0,0.0,1.4638,1.4619,1.4222,1.3965,1.3825,0.0,0.0,0.0,0.0,0.0,0.0,0.0,0.0,0.0,0.0,0.0,0.0,0.0,0.0,0.0,0.0,0.0,0.0,0.0,0.0,0.0,0.0,0.0,0.0,0.0,0.0,0.0,0.0,0.0,0.0,0.0,0.0,0.0,0.0,0.0,0.0,0.0,0.0,0.0,0.0,0.0,0.0,0.0,0.0,0.0,0.0,0.0,0.0,0.0,0.0,0.0,0.0,0.0,0.0,0.0,0.0,0.0,0.0,0.0,0.0,0.0,0.0,0.0,0.0,0.0,0.0,0.0,0.0,0.0,0.0,0.0,0.0,0.0,0.0,0.0,0.0,0.0,0.0,0.0,0.0,0.0,0.0,0.0,0.0,0.0,0.0,0.0,0.0,0.0,0.0,0.0,0.0,0.0,0.0,0.0,0.0,0.0,0.0,0.0,0.0,0.0,0.0,0.0,0.0,0.0,0.0,0.0,0.0,0.0,0.0,0.0,0.0,1.5135,1.4846,1.4796,0.0,0.0,0.0,0.0,0.0,0.0,0.0,0.0,0.0,0.0,0.0,0.0,0.0,0.0,0.0,0.0,0.0,0.0,0.0,0.0,0.0,0.0,0.0,0.0,0.0,0.0,0.0,0.0,0.0,0.0,0.0,0.0,0.0,0.0,0.0,0.0,0.0,0.0,0.0,0.0,0.0,0.0,0.0,0.0,0.0,0.0,0.0,0.0,0.0,0.0,0.0,0.0,0.0,0.0,0.0,0.0,0.0,0.0,0.0,0.0,0.0,0.0,0.0,0.0,0.0,0.0,0.0,0.0,0.0,0.0,0.0,0.0,0.0,0.0,0.0,0.0,0.0,0.0,0.0,0.0,0.0,0.0,0.0,0.0,0.0,0.0,0.0,0.0,0.0,0.0,0.0,0.0,0.0,0.0,0.0,0.0,0.0,0.0,0.0,0.0,0.0,0.0,0.0,0.0,0.0,0.0,0.0,0.0,0.0,0.0,1.5828,1.5854,1.5574,0.0,1.5084,0.0,0.0,0.0,0.0,0.0,0.0,0.0,0.0,0.0,0.0,0.0,0.0,0.0,0.0,0.0,0.0,0.0,0.0,0.0,0.0,0.0,0.0,0.0,0.0,0.0,0.0,0.0,0.0,0.0,0.0,0.0,0.0,0.0,0.0,0.0,0.0,0.0,0.0,0.0,0.0,0.0,0.0,0.0,0.0,0.0,0.0,0.0,0.0,0.0,0.0,0.0,0.0,0.0,0.0,0.0,0.0,0.0,0.0,0.0,0.0,0.0,0.0,0.0,0.0,0.0,0.0,0.0,0.0,0.0,0.0,0.0,0.0,0.0,0.0,0.0,0.0,0.0,0.0,0.0,0.0,0.0,0.0,0.0,0.0,0.0,0.0,0.0,0.0,0.0,0.0,0.0,0.0,0.0,0.0,0.0,0.0,0.0,0.0,0.0,0.0,0.0,0.0,0.0,0.0,0.0,0.0,0.0,0.0,0.0,0.0,1.6526,1.6378,1.6279,1.6152,0.0,0.0,0.0,0.0,0.0,0.0,0.0,0.0,0.0,0.0,0.0,0.0,0.0,0.0,0.0,0.0,0.0,0.0,0.0,0.0,0.0,0.0,0.0,0.0,0.0,0.0,0.0,0.0,0.0,0.0,0.0,0.0,0.0,0.0,0.0,0.0,0.0,0.0,0.0,0.0,0.0,0.0,0.0,0.0,0.0,0.0,0.0,0.0,0.0,0.0,0.0,0.0,0.0,0.0,0.0,0.0,0.0,0.0,0.0,0.0,0.0,0.0,0.0,0.0,0.0,0.0,0.0,0.0,0.0,0.0,0.0,0.0,0.0,0.0,0.0,0.0,0.0,0.0,0.0,0.0,0.0,0.0,0.0,0.0,0.0,0.0,0.0,0.0,0.0,0.0,0.0,0.0,0.0,0.0,0.0,0.0,0.0,0.0,0.0,0.0,0.0,0.0,0.0,0.0,0.0,0.0,0.0,0.0,0.0,0.0,1.7296,1.7111,1.6859,1.682,1.6819,1.6714,0.0,0.0,0.0,0.0,0.0,0.0,0.0,0.0,0.0,0.0,0.0,0.0,0.0,0.0,0.0,0.0,0.0,0.0,0.0,0.0,0.0,0.0,0.0,0.0,0.0,0.0,0.0,0.0,0.0,0.0,0.0,0.0,0.0,0.0,0.0,0.0,0.0,0.0,0.0,0.0,0.0,0.0,0.0,0.0,0.0,0.0,0.0,0.0,0.0,0.0,0.0,0.0,0.0,0.0,0.0,0.0,0.0,0.0,0.0,0.0,0.0,0.0,0.0,0.0,0.0,0.0,0.0,0.0,0.0,0.0,0.0,0.0,0.0,0.0,0.0,0.0,0.0,0.0,0.0,0.0,0.0,0.0,0.0,0.0,0.0,0.0,0.0,0.0,0.0,0.0,0.0,0.0,0.0,0.0,0.0,0.0,0.0,0.0,0.0,0.0,0.0,0.0,0.0,0.0,0.0,0.0,0.0,0.0,1.8236,1.782,1.7449,1.7192,1.7179,1.702,0.0,0.0,0.0,0.0,0.0,0.0,0.0,0.0,0.0,0.0,0.0,0.0,0.0,0.0,0.0,0.0,0.0,0.0,0.0,0.0,0.0,0.0,0.0,0.0,0.0,0.0,0.0,0.0,0.0,0.0,0.0,0.0,0.0,0.0,0.0,0.0,0.0,0.0,0.0,0.0,0.0,0.0,0.0,0.0,0.0,0.0,0.0,0.0,0.0,0.0,0.0,0.0,0.0,0.0,0.0,0.0,0.0,0.0,0.0,0.0,0.0,0.0,0.0,0.0,0.0,0.0,0.0,0.0,0.0,0.0,0.0,0.0,0.0,0.0,0.0,0.0,0.0,0.0,0.0,0.0,0.0,0.0,0.0,0.0,0.0,0.0,0.0,0.0,0.0,0.0,0.0,0.0,0.0,0.0,0.0,0.0,0.0,0.0,0.0,0.0,0.0,0.0,0.0,0.0,0.0,0.0,0.0,0.0,0.0,1.9176,1.8702,1.8306,1.8063,1.7822,1.7649,0.0,0.0,0.0,0.0,0.0,0.0,0.0,0.0,0.0,0.0,0.0,0.0,0.0,0.0,0.0,0.0,0.0,0.0,0.0,0.0,0.0,0.0,0.0,0.0,0.0,0.0,0.0,0.0,0.0,0.0,0.0,0.0,0.0,0.0,0.0,0.0,0.0,0.0,0.0,0.0,0.0,0.0,0.0,0.0,0.0,0.0,0.0,0.0,0.0,0.0,0.0,0.0,0.0,0.0,0.0,0.0,0.0,0.0,0.0,0.0,0.0,0.0,0.0,0.0,0.0,0.0,0.0,0.0,0.0,0.0,0.0,0.0,0.0,0.0,0.0,0.0,0.0,0.0,0.0,0.0,0.0,0.0,0.0,0.0,0.0,0.0,0.0,0.0,0.0,0.0,0.0,0.0,0.0,0.0,0.0,0.0,0.0,0.0,0.0,0.0,0.0,0.0,0.0,0.0,0.0,0.0,0.0,0.0,0.0,1.9901,0.0,1.8919,1.8643,1.8331,1.8169,0.0,0.0,0.0,0.0,0.0,0.0,0.0,0.0,0.0,0.0,0.0,0.0,0.0,0.0,0.0,0.0,0.0,0.0,0.0,0.0,0.0,0.0,0.0,0.0,0.0,0.0,0.0,0.0,0.0,0.0,0.0,0.0,0.0,0.0,0.0,0.0,0.0,0.0,0.0,0.0,0.0,0.0,0.0,0.0,0.0,0.0,0.0,0.0,0.0,0.0,0.0,0.0,0.0,0.0,0.0,0.0,0.0,0.0,0.0,0.0,0.0,0.0,0.0,0.0,0.0,0.0,0.0,0.0,0.0,0.0,0.0,0.0,0.0,0.0,0.0,0.0,0.0,0.0,0.0,0.0,0.0,0.0,0.0,0.0,0.0,0.0,0.0,0.0,0.0,0.0,0.0,0.0,0.0,0.0,0.0,0.0,0.0,0.0,0.0,0.0,0.0,0.0,0.0,0.0,0.0,0.0,0.0,0.0,2.1449,2.0349,1.9733,1.9306,1.8947,1.8684,1.8504,0.0,0.0,0.0,0.0,0.0,0.0,0.0,0.0,0.0,0.0,0.0,0.0,0.0,0.0,0.0,0.0,0.0,0.0,0.0,0.0,0.0,0.0,0.0,0.0,0.0,0.0,0.0,0.0,0.0,0.0,0.0,0.0,0.0,0.0,0.0,0.0,0.0,0.0,0.0,0.0,0.0,0.0,0.0,0.0,0.0,0.0,0.0,0.0,0.0,0.0,0.0,0.0,0.0,0.0,0.0,0.0,0.0,0.0,0.0,0.0,0.0,0.0,0.0,0.0,0.0,0.0,0.0,0.0,0.0,0.0,0.0,0.0,0.0,0.0,0.0,0.0,0.0,0.0,0.0,0.0,0.0,0.0,0.0,0.0,0.0,0.0,0.0,0.0,0.0,0.0,0.0,0.0,0.0,0.0,0.0,0.0,0.0,0.0,0.0,0.0,0.0,0.0,0.0,0.0,0.0,0.0,0.0,0.0,0.0,2.0897,2.0729,2.0356,1.9827,1.9363,1.912,0.0,0.0,0.0,0.0,0.0,0.0,0.0,0.0,0.0,0.0,0.0,0.0,0.0,0.0,0.0,0.0,0.0,0.0,0.0,0.0,0.0,0.0,0.0,0.0,0.0,0.0,0.0,0.0,0.0,0.0,0.0,0.0,0.0,0.0,0.0,0.0,0.0,0.0,0.0,0.0,0.0,0.0,0.0,0.0,0.0,0.0,0.0,0.0,0.0,0.0,0.0,0.0,0.0,0.0,0.0,0.0,0.0,0.0,0.0,0.0,0.0,0.0,0.0,0.0,0.0,0.0,0.0,0.0,0.0,0.0,0.0,0.0,0.0,0.0,0.0,0.0,0.0,0.0,0.0,0.0,0.0,0.0,0.0,0.0,0.0,0.0,0.0,0.0,0.0,0.0,0.0,0.0,0.0,0.0,0.0,0.0,0.0,0.0,0.0,0.0,0.0,0.0,0.0,0.0,0.0,0.0,0.0,0.0,0.0,2.1872,2.152,2.1089,2.054,2.01,1.9829,1.9709,0.0,0.0,0.0,0.0,0.0,0.0,0.0,0.0,0.0,0.0,0.0,0.0,0.0,0.0,0.0,0.0,0.0,0.0,0.0,0.0,0.0,0.0,0.0,0.0,0.0,0.0,0.0,0.0,0.0,0.0,0.0,0.0,0.0,0.0,0.0,0.0,0.0,0.0,0.0,0.0,0.0,0.0,0.0,0.0,0.0,0.0,0.0,0.0,0.0,0.0,0.0,0.0,0.0,0.0,0.0,0.0,0.0,0.0,0.0,0.0,0.0,0.0,0.0,0.0,0.0,0.0,0.0,0.0,0.0,0.0,0.0,0.0,0.0,0.0,0.0,0.0,0.0,0.0,0.0,0.0,0.0,0.0,0.0,0.0,0.0,0.0,0.0,0.0,0.0,0.0,0.0,0.0,0.0,0.0,0.0,0.0,0.0,0.0,0.0,0.0,0.0,0.0,0.0,0.0,0.0,0.0,0.0,0.0,2.3053,2.2215,2.1579,2.1183,2.089,2.0588,0.0,0.0,0.0,0.0,0.0,0.0,0.0,0.0,0.0,0.0,0.0,0.0,0.0,0.0,0.0,0.0,0.0,0.0,0.0,0.0,0.0,0.0,0.0,0.0,0.0,0.0,0.0,0.0,0.0,0.0,0.0,0.0,0.0,0.0,0.0,0.0,0.0,0.0,0.0,0.0,0.0,0.0,0.0,0.0,0.0,0.0,0.0,0.0,0.0,0.0,0.0,0.0,0.0,0.0,0.0,0.0,0.0,0.0,0.0,0.0,0.0,0.0,0.0,0.0,0.0,0.0,0.0,0.0,0.0,0.0,0.0,0.0,0.0,0.0,0.0,0.0,0.0,0.0,0.0,0.0,0.0,0.0,0.0,0.0,0.0,0.0,0.0,0.0,0.0,0.0,0.0,0.0,0.0,0.0,0.0,0.0,0.0,0.0,0.0,0.0,0.0,0.0,0.0,0.0,0.0,0.0,0.0,0.0,0.0,2.3708,2.3658,2.3065,2.1819,2.1494,2.1221,0.0,0.0,0.0,0.0,0.0,0.0,0.0,0.0,0.0,0.0,0.0,0.0,0.0,0.0,0.0,0.0,0.0,0.0,0.0,0.0,0.0,0.0,0.0,0.0,0.0,0.0,0.0,0.0,0.0,0.0,0.0,0.0,0.0,0.0,0.0,0.0,0.0,0.0,0.0,0.0,0.0,0.0,0.0,0.0,0.0,0.0,0.0,0.0,0.0,0.0,0.0,0.0,0.0,0.0,0.0,0.0,0.0,0.0,0.0,0.0,0.0,0.0,0.0,0.0,0.0,0.0,0.0,0.0,0.0,0.0,0.0,0.0,0.0,0.0,0.0,0.0,0.0,0.0,0.0,0.0,0.0,0.0,0.0,0.0,0.0,0.0,0.0,0.0,0.0,0.0,0.0,0.0,0.0,0.0,0.0,0.0,0.0,0.0,0.0,0.0,0.0,0.0,0.0,0.0,0.0,0.0,0.0,0.0,2.496,2.477,2.5095,2.4575,2.3201,2.2512,2.1997,0.0,0.0,0.0,0.0,0.0,0.0,0.0,0.0,0.0,0.0,0.0,0.0,0.0,0.0,0.0,0.0,0.0,0.0,0.0,0.0,0.0,0.0,0.0,0.0,0.0,0.0,0.0,0.0,0.0,0.0,0.0,0.0,0.0,0.0,0.0,0.0,0.0,0.0,0.0,0.0,0.0,0.0,0.0,0.0,0.0,0.0,0.0,0.0,0.0,0.0,0.0,0.0,0.0,0.0,0.0,0.0,0.0,0.0,0.0,0.0,0.0,0.0,0.0,0.0,0.0,0.0,0.0,0.0,0.0,0.0,0.0,0.0,0.0,0.0,0.0,0.0,0.0,0.0,0.0,0.0,0.0,0.0,0.0,0.0,0.0,0.0,0.0,0.0,0.0,0.0,0.0,0.0,0.0,0.0,0.0,0.0,0.0,0.0,0.0,0.0,0.0,0.0,0.0,0.0,0.0,0.0,0.0,0.0,2.5476,2.6128,2.6379,2.6005,2.5011,2.3768,2.2901,0.0,0.0,0.0,0.0,0.0,0.0,0.0,0.0,0.0,0.0,0.0,0.0,0.0,0.0,0.0,0.0,0.0,0.0,0.0,0.0,0.0,0.0,0.0,0.0,0.0,0.0,0.0,0.0,0.0,0.0,0.0,0.0,0.0,0.0,0.0,0.0,0.0,0.0,0.0,0.0,0.0,0.0,0.0,0.0,0.0,0.0,0.0,0.0,0.0,0.0,0.0,0.0,0.0,0.0,0.0,0.0,0.0,0.0,0.0,0.0,0.0,0.0,0.0,0.0,0.0,0.0,0.0,0.0,0.0,0.0,0.0,0.0,0.0,0.0,0.0,0.0,0.0,0.0,0.0,0.0,0.0,0.0,0.0,0.0,0.0,0.0,0.0,0.0,0.0,0.0,0.0,0.0,0.0,0.0,0.0,0.0,0.0,0.0,0.0,0.0,0.0,0.0,0.0,0.0,0.0,0.0,0.0,0.0,2.6436,2.7104,2.7139,2.6876,2.6246,2.5025,2.3893,0.0,0.0,0.0,0.0,0.0,0.0,0.0,0.0,0.0,0.0,0.0,0.0,0.0,0.0,0.0,0.0,0.0,0.0,0.0,0.0,0.0,0.0,0.0,0.0,0.0,0.0,0.0,0.0,0.0,0.0,0.0,0.0,0.0,0.0,0.0,0.0,0.0,0.0,0.0,0.0,0.0,0.0,0.0,0.0,0.0,0.0,0.0,0.0,1.0161,0.0,0.0,0.0,0.0,0.0,0.0,0.0,0.0,0.0,0.0,0.0,0.0,0.0,0.0,0.0,0.0,0.0,0.0,0.0,0.0,0.0,0.0,0.0,0.0,0.0,0.0,0.0,0.0,0.0,0.0,0.0,0.0,0.0,0.0,0.0,0.0,0.0,0.0,0.0,0.0,0.0,0.0,0.0,0.0,0.0,0.0,0.0,0.0,0.0,0.0,0.0,0.0,0.0,0.0,0.0,0.0,0.0,0.0,0.0,2.7106,2.8067,2.8424,2.8121,2.7134,2.6398,2.5203,0.0,0.0,0.0,0.0,0.0,0.0,0.0,0.0,0.0,0.0,0.0,0.0,0.0,0.0,0.0,0.0,0.0,0.0,0.0,0.0,0.0,0.0,0.0,0.0,0.0,0.0,0.0,0.0,0.0,0.0,0.0,0.0,0.0,0.0,0.0,0.0,0.0,0.0,0.0,0.0,0.0,0.0,0.0,0.0,0.0,0.0,0.0,0.0,0.0,0.0,0.0,0.0,0.0,0.0,0.0,0.0,0.0,0.0,0.0,0.0,0.0,0.0,0.0,0.0,0.0,0.0,0.0,0.0,0.0,0.0,0.0,0.0,0.0,0.0,0.0,0.0,0.0,0.0,0.0,0.0,0.0,0.0,0.0,0.0,0.0,0.0,0.0,0.0,0.0,0.0,0.0,0.0,0.0,0.0,0.0,0.0,0.0,0.0,0.0,0.0,0.0,0.0,0.0,0.0,0.0,0.0,0.0,2.6477,2.762,2.8993,2.9613,2.9243,2.788,2.7529,2.6406,2.4419,0.0,0.0,0.0,0.0,0.0,0.0,0.0,0.0,0.0,0.0,0.0,0.0,0.0,0.0,0.0,0.0,0.0,0.0,0.0,0.0,0.0,0.0,0.0,0.0,0.0,0.0,0.0,0.0,0.0,0.0,0.0,0.0,0.0,0.0,0.0,0.0,0.0,0.0,1.1867,1.1095,0.0,0.0,0.0,0.0,0.0,0.0,0.0,0.0,1.0351,0.0,0.0,0.0,0.0,0.0,0.0,0.0,0.0,0.0,0.0,0.0,0.0,0.0,0.0,0.0,0.0,0.0,0.0,0.0,0.0,0.0,0.0,0.0,0.0,0.0,0.0,0.0,0.0,0.0,0.0,0.0,0.0,0.0,0.0,0.0,0.0,0.0,0.0,0.0,0.0,0.0,0.0,0.0,0.0,0.0,0.0,0.0,0.0,0.0,0.0,0.0,0.0,0.0,0.0,0.0,0.0,2.6145,2.7056,2.8275,2.969,2.9848,2.9445,2.8484,2.7911,2.6807,2.5045,0.0,0.0,0.0,0.0,0.0,0.0,0.0,0.0,0.0,0.0,0.0,0.0,0.0,0.0,0.0,0.0,0.0,0.0,0.0,0.0,0.0,0.0,0.0,0.0,0.0,0.0,0.0,0.0,0.0,0.0,0.0,0.0,0.0,0.0,0.0,0.0,0.0,0.0,0.0,1.133,1.0939,0.0,0.0,0.0,0.0,0.0,0.0,0.0,0.0,1.0649,0.0,0.0,0.0,0.0,0.0,0.0,0.0,0.0,0.0,0.0,0.0,0.0,0.0,0.0,0.0,0.0,0.0,0.0,0.0,0.0,0.0,0.0,0.0,0.0,0.0,0.0,0.0,0.0,0.0,0.0,0.0,0.0,0.0,0.0,0.0,0.0,0.0,0.0,0.0,0.0,0.0,0.0,0.0,0.0,0.0,0.0,0.0,0.0,0.0,0.0,0.0,0.0,0.0,0.0,0.0,2.616,2.7332,2.8554,2.9734,2.9948,2.9676,2.8877,2.8061,2.6948,0.0,0.0,0.0,0.0,0.0,0.0,0.0,0.0,0.0,0.0,0.0,0.0,0.0,0.0,0.0,0.0,0.0,0.0,0.0,0.0,0.0,0.0,0.0,0.0,0.0,0.0,0.0,0.0,0.0,0.0,0.0,0.0,0.0,0.0,0.0,0.0,0.0,0.0,0.0,0.0,1.1529,1.1191,1.0598,0.0,0.0,0.0,0.0,0.0,0.0,1.0982,1.0948,0.0,0.0,0.0,0.0,0.0,0.0,0.0,0.0,0.0,0.0,0.0,0.0,0.0,0.0,0.0,0.0,0.0,0.0,0.0,0.0,0.0,0.0,0.0,0.0,0.0,0.0,0.0,0.0,0.0,0.0,0.0,0.0,0.0,0.0,0.0,0.0,0.0,0.0,0.0,0.0,0.0,0.0,0.0,0.0,0.0,0.0,0.0,0.0,0.0,0.0,0.0,0.0,0.0,0.0,0.0,2.6173,2.7455,2.8623,2.9599,2.9911,2.9759,2.9049,2.8097,2.7065,0.0,0.0,0.0,0.0,0.0,0.0,0.0,0.0,0.0,0.0,0.0,0.0,0.0,0.0,0.0,0.0,0.0,0.0,0.0,0.0,0.0,0.0,0.0,0.0,0.0,0.0,0.0,0.0,0.0,0.0,0.0,0.0,0.0,0.0,0.0,0.0,0.0,0.0,0.0,0.0,0.0,1.1392,1.0885,1.088,0.0,0.0,0.0,0.0,1.12,1.12,0.0,0.0,0.0,0.0,0.0,0.0,0.0,0.0,0.0,0.0,0.0,0.0,0.0,0.0,0.0,0.0,0.0,0.0,0.0,0.0,0.0,0.0,0.0,0.0,0.0,0.0,0.0,0.0,0.0,0.0,0.0,0.0,0.0,0.0,0.0,0.0,0.0,0.0,0.0,0.0,0.0,0.0,0.0,0.0,0.0,0.0,0.0,0.0,0.0,0.0,0.0,0.0,0.0,0.0,0.0,0.0,2.6525,2.7455,2.8454,2.9439,2.9551,2.9342,2.8853,2.8194,2.7269,0.0,0.0,0.0,0.0,0.0,0.0,0.0,0.0,0.0,0.0,0.0,0.0,0.0,0.0,0.0,0.0,0.0,0.0,0.0,0.0,0.0,0.0,0.0,0.0,0.0,0.0,0.0,0.0,0.0,0.0,0.0,0.0,0.0,0.0,0.0,0.0,0.0,0.0,0.0,0.0,0.0,1.1726,1.1228,1.1159,1.1179,0.0,0.0,1.12,1.12,1.12,0.0,0.0,0.0,0.0,0.0,0.0,0.0,0.0,0.0,0.0,0.0,0.0,0.0,0.0,0.0,0.0,0.0,0.0,0.0,0.0,0.0,0.0,0.0,0.0,0.0,0.0,0.0,0.0,0.0,0.0,0.0,0.0,0.0,0.0,0.0,0.0,0.0,0.0,0.0,0.0,0.0,0.0,0.0,0.0,0.0,0.0,0.0,0.0,0.0,0.0,0.0,0.0,0.0,0.0,0.0,2.5393,2.6474,2.7594,2.8565,2.9339,2.9367,2.9282,2.9084,2.8083,2.7216,0.0,0.0,0.0,0.0,0.0,0.0,0.0,0.0,0.0,0.0,0.0,0.0,0.0,0.0,0.0,0.0,0.0,0.0,0.0,0.0,0.0,0.0,0.0,0.0,0.0,0.0,0.0,0.0,0.0,0.0,0.0,0.0,0.0,0.0,0.0,0.0,0.0,0.0,0.0,0.0,0.0,0.0,1.1508,1.1491,0.0,0.0,0.0,1.171,1.171,0.0,0.0,0.0,0.0,0.0,0.0,0.0,0.0,0.0,0.0,0.0,0.0,0.0,0.0,0.0,0.0,0.0,0.0,0.0,0.0,0.0,0.0,0.0,0.0,0.0,0.0,0.0,0.0,0.0,0.0,0.0,0.0,0.0,0.0,0.0,0.0,0.0,0.0,0.0,0.0,0.0,0.0,0.0,0.0,0.0,0.0,0.0,0.0,0.0,0.0,0.0,0.0,0.0,0.0,0.0,0.0,0.0,2.6493,2.7703,2.8615,2.9199,2.9213,2.9227,2.9213,2.8118,0.0,0.0,0.0,0.0,0.0,0.0,0.0,0.0,0.0,0.0,0.0,0.0,0.0,0.0,0.0,0.0,0.0,0.0,0.0,0.0,0.0,0.0,0.0,0.0,0.0,0.0,0.0,1.7613,0.0,0.0,0.0,0.0,0.0,0.0,0.0,0.0,0.0,0.0,0.0,0.0,0.0,0.0,1.223,1.1773,1.185,1.1986,0.0,0.0,1.2159,1.2152,1.2125,1.2057,0.0,0.0,0.0,0.0,0.0,0.0,0.0,0.0,0.0,0.0,0.0,0.0,0.0,0.0,0.0,0.0,0.0,0.0,0.0,0.0,0.0,0.0,0.0,0.0,0.0,0.0,0.0,0.0,0.0,0.0,0.0,0.0,0.0,0.0,0.0,0.0,0.0,0.0,0.0,0.0,0.0,0.0,0.0,0.0,0.0,0.0,0.0,0.0,0.0,0.0,0.0,0.0,0.0,0.0,0.0,2.6747,2.771,2.8489,2.8978,2.9005,2.9018,2.9005,2.8446,2.7724,0.0,0.0,0.0,0.0,0.0,0.0,0.0,0.0,0.0,0.0,0.0,0.0,0.0,0.0,0.0,0.0,0.0,0.0,0.0,0.0,0.0,0.0,0.0,0.0,0.0,0.0,0.0,0.0,0.0,0.0,0.0,0.0,0.0,0.0,0.0,0.0,0.0,0.0,0.0,0.0,0.0,1.2106,1.2067,1.22,1.2264,0.0,0.0,1.2277,1.2277,1.2193,1.2098,1.2084,0.0,0.0,0.0,0.0,0.0,0.0,0.0,0.0,0.0,0.0,0.0,0.0,0.0,0.0,0.0,0.0,0.0,0.0,0.0,0.0,0.0,0.0,0.0,0.0,0.0,0.0,0.0,0.0,0.0,0.0,0.0,0.0,0.0,0.0,0.0,0.0,0.0,0.0,0.0,0.0,0.0,0.0,0.0,0.0,0.0,0.0,0.0,0.0,0.0,0.0,0.0,0.0,0.0,2.6252,2.7081,2.7976,2.8711,2.9285,2.9312,2.9232,2.9001,2.85,2.7857,0.0,0.0,0.0,0.0,0.0,0.0,0.0,0.0,0.0,0.0,0.0,0.0,0.0,0.0,0.0,0.0,0.0,0.0,0.0,0.0,0.0,0.0,0.0,0.0,0.0,0.0,0.0,0.0,1.5223,1.4683,1.4376,0.0,0.0,0.0,0.0,0.0,0.0,0.0,0.0,0.0,0.0,1.2625,1.2394,1.2542,0.0,0.0,1.2744,1.2744,1.2744,1.2696,1.2622,1.2488,1.2243,0.0,0.0,0.0,0.0,0.0,0.0,0.0,0.0,0.0,0.0,0.0,0.0,0.0,0.0,0.0,0.0,0.0,0.0,0.0,0.0,0.0,0.0,0.0,0.0,0.0,0.0,0.0,0.0,0.0,0.0,0.0,0.0,0.0,0.0,0.0,0.0,0.0,0.0,0.0,0.0,0.0,0.0,0.0,0.0,0.0,0.0,0.0,0.0,0.0,0.0,0.0,0.0,2.6693,2.7563,2.8323,2.8978,2.9472,2.9566,2.9472,2.9135,2.8671,2.8179,0.0,0.0,0.0,0.0,0.0,0.0,0.0,0.0,0.0,0.0,0.0,0.0,0.0,0.0,0.0,0.0,0.0,0.0,0.0,0.0,0.0,0.0,0.0,0.0,0.0,0.0,0.0,0.0,1.4441,1.3881,1.3589,0.0,0.0,0.0,0.0,0.0,0.0,0.0,0.0,0.0,0.0,1.2915,1.273,1.2809,1.295,1.2949,1.2833,1.2752,1.2752,1.2713,1.2647,1.2502,0.0,0.0,0.0,0.0,0.0,0.0,0.0,0.0,0.0,0.0,0.0,0.0,0.0,0.0,0.0,0.0,0.0,0.0,0.0,0.0,0.0,0.0,0.0,0.0,0.0,0.0,0.0,0.0,0.0,0.0,2.1582,0.0,0.0,0.0,0.0,0.0,0.0,0.0,0.0,0.0,0.0,0.0,0.0,0.0,0.0,0.0,0.0,0.0,0.0,0.0,0.0,0.0,0.0,2.7241,2.8152,2.8724,2.9148,2.9499,2.9766,2.978,2.9486,2.9179,2.8738,2.8165,0.0,0.0,0.0,0.0,0.0,0.0,0.0,0.0,0.0,0.0,0.0,0.0,0.0,0.0,0.0,0.0,0.0,0.0,0.0,0.0,0.0,0.0,0.0,0.0,0.0,0.0,1.4871,1.3968,1.3261,0.0,0.0,0.0,0.0,0.0,0.0,0.0,0.0,0.0,0.0,1.263,1.2834,1.3112,1.2925,1.273,1.2865,1.2511,1.2216,1.221,1.2106,1.2021,0.0,0.0,0.0,0.0,0.0,0.0,0.0,0.0,0.0,0.0,0.0,0.0,0.0,0.0,0.0,0.0,0.0,0.0,0.0,0.0,0.0,0.0,0.0,0.0,0.0,0.0,0.0,2.2405,2.2318,0.0,0.0,0.0,0.0,0.0,0.0,0.0,0.0,0.0,0.0,0.0,2.4957,2.5531,0.0,0.0,0.0,0.0,0.0,0.0,0.0,0.0,0.0,0.0,0.0,0.0,2.7749,2.8457,2.9232,2.9766,3.0105,3.0354,3.0261,2.9793,2.9628,2.9152,2.8219,0.0,0.0,0.0,0.0,0.0,0.0,0.0,0.0,0.0,0.0,0.0,0.0,0.0,0.0,0.0,0.0,0.0,0.0,0.0,0.0,0.0,0.0,0.0,0.0,0.0,1.3881,0.0,0.0,0.0,0.0,0.0,0.0,0.0,0.0,0.0,0.0,0.0,1.2699,1.2819,1.2775,1.2755,1.2986,1.2716,1.2483,0.0,0.0,0.0,0.0,0.0,0.0,0.0,0.0,0.0,0.0,0.0,0.0,0.0,0.0,0.8829,0.9582,0.9264,0.8896,0.8896,0.0,0.0,0.0,0.0,0.0,0.0,0.0,0.0,0.0,0.0,0.0,0.0,0.0,0.0,0.0,0.0,2.3487,0.0,0.0,0.0,0.0,0.0,0.0,0.0,0.0,2.5892,2.6172,2.6293,2.6774,2.7041,0.0,2.7041,2.664,0.0,0.0,0.0,0.0,0.0,0.0,0.0,0.0,2.8243,2.9045,2.9575,3.0114,3.0533,3.0702,3.0608,3.0234,3.002,2.9366,2.8219,2.7651,2.6967,0.0,0.0,0.0,0.0,0.0,0.0,0.0,0.0,0.0,0.0,0.0,0.0,0.0,0.0,0.0,0.0,0.0,0.0,0.0,0.0,0.0,0.0,0.0,1.3302,0.0,0.0,0.0,0.0,0.0,0.0,0.0,0.0,0.0,1.2562,1.2779,1.2936,1.2969,1.2903,1.2926,1.2895,0.0,0.0,0.0,0.0,0.0,0.0,0.0,1.0356,1.0356,1.0173,0.9926,0.9557,0.9044,0.8466,0.7795,0.0,0.0,0.822,0.7952,0.7513,0.7541,0.694,0.638,0.6424,0.5884,0.5425,0.0,0.0,0.0,0.0,0.0,0.0,0.0,0.0,2.4653,2.4653,0.0,2.4653,0.0,0.0,0.0,0.0,0.0,2.5585,0.0,0.0,2.7175,2.7523,2.7762,2.8098,2.8232,2.8232,2.8232,2.8232,2.8152,2.7041,0.0,0.0,0.0,0.0,0.0,0.0,2.8807,2.986,2.9953,3.0234,3.0782,3.0822,3.0822,3.0768,3.0221,2.9379,2.827,2.7754,2.7226,2.6555,2.5634,0.0,0.0,0.0,0.0,0.0,0.0,0.0,0.0,0.0,0.0,0.0,0.0,0.0,0.0,0.0,0.0,0.0,0.0,0.0,0.0,1.3567,0.0,0.0,0.0,0.0,0.0,0.0,0.0,0.0,0.0,0.0,1.3098,1.322,1.327,1.2917,0.0,0.0,0.0,0.0,1.1502,1.1705,1.0436,0.9425,0.9425,0.9094,0.8782,0.8828,0.0,0.0,0.7538,0.7362,0.7097,0.618,0.5596,0.5715,0.6888,0.6411,0.5887,0.5893,0.5471,0.5169,0.5257,0.4834,0.4514,2.6771,0.0,0.0,0.0,0.0,2.5462,2.5663,2.5892,2.5892,2.5892,2.5892,2.5892,0.0,0.0,0.0,0.0,0.0,0.0,2.7442,2.8096,2.839,2.8684,2.8978,2.9272,2.9406,2.9406,2.9406,2.9406,2.9379,2.8858,2.8326,2.7697,0.0,0.0,0.0,0.0,2.9579,2.9882,3.0482,3.0882,3.1102,3.1316,3.1209,3.0795,3.0221,2.9482,2.8574,2.8038,2.7136,2.582,2.5283,0.0,0.0,0.0,0.0,0.0,0.0,0.0,0.0,0.0,0.0,0.0,0.0,0.0,0.0,0.0,0.0,0.0,0.0,0.0,1.3457,1.3318,1.3235,0.0,0.0,0.0,0.0,0.0,0.0,0.0,0.0,0.0,1.3639,1.345,1.3238,0.0,0.0,1.2057,1.2174,1.0987,1.0213,1.0362,0.0,0.0,0.0,0.7377,0.6879,0.6879,0.6969,0.6847,0.6153,0.5786,0.5344,0.4694,0.3879,0.3385,0.3711,0.4186,0.4443,0.4423,0.3797,0.3164,0.315,0.281,0.2513,2.8392,2.7541,2.6707,2.648,2.6693,2.6814,2.6961,2.7135,2.7122,2.7122,2.7122,2.7122,2.7122,2.7135,2.7215,0.0,0.0,0.0,2.8791,2.9486,2.9615,2.9953,3.0386,3.0528,3.0608,3.0608,3.0608,3.0555,3.0389,3.0261,2.9847,2.9249,0.0,0.0,2.9138,2.9766,3.0207,3.0448,3.0909,3.1229,3.1396,3.157,3.1342,3.0703,3.0227,2.9519,2.8622,2.7819,2.6748,2.5344,2.4644,2.3557,0.0,0.0,0.0,0.0,0.0,0.0,0.0,0.0,0.0,0.0,0.0,1.6762,1.6094,0.0,0.0,0.0,1.3929,1.3493,1.3351,1.3377,0.0,0.0,0.0,0.0,0.0,0.0,0.0,1.3839,1.3656,1.3455,1.3295,1.2886,1.2609,1.2621,1.1792,1.1176,1.1119,0.0,0.89,0.9,0.7679,0.6629,0.6629,0.5878,0.5202,0.4988,0.5,0.4896,0.4386,0.402,0.3687,0.3168,0.2568,0.2112,0.2112,0.2453,0.279,0.2945,0.2534,0.2075,0.2047,0.1843,0.1634,3.0047,2.994,2.8577,2.7963,2.7896,2.8205,2.8326,2.8326,2.8326,2.8326,2.8326,2.8326,2.8339,2.8379,2.8644,0.0,2.9619,2.9646,3.01,3.0889,3.0902,3.1196,3.1778,3.1778,3.1791,3.1744,3.1778,3.1597,3.1343,3.1303,3.1156,3.0889,3.0087,2.9793,2.9993,3.0287,3.0748,3.1249,3.1229,3.1436,3.1751,3.1704,3.132,3.0499,3.0153,2.946,2.8344,2.7165,2.6032,2.4946,2.3791,2.246,2.086,0.0,0.0,0.0,0.0,0.0,0.0,0.0,0.0,0.0,0.0,0.0,0.0,0.0,0.0,0.0,1.3631,0.0,1.3471,1.3565,0.0,0.0,0.0,1.4204,1.4309,1.412,1.3924,1.3838,0.0,0.0,1.2342,0.0,1.1469,1.1756,1.1032,1.0314,0.9793,0.8516,0.7625,0.7539,0.6291,0.5317,0.5169,0.4396,0.3672,0.3255,0.308,0.2991,0.2513,0.2372,0.2168,0.1791,0.1595,0.1556,0.1556,0.1172,0.1008,0.149,0.1538,0.1544,0.151,0.1461,0.1465,3.1249,3.1269,3.0875,3.0207,2.9406,2.9472,2.9499,2.9499,2.9499,2.9499,2.9499,2.9499,2.9619,2.9891,3.014,3.0474,3.0822,3.1049,3.1383,3.1784,3.1797,3.1984,3.238,3.238,3.238,3.2393,3.238,3.2353,3.2273,3.1998,3.1851,3.1784,3.1583,3.1183,3.0621,3.0875,3.1196,3.1557,3.1784,3.1931,3.1998,3.1614,3.1138,3.0499,2.9488,2.8523,2.765,2.6271,2.489,2.3558,2.2553,2.1269,1.9705,1.9422,0.0,0.0,0.0,0.0,0.0,0.0,0.0,0.0,0.0,1.5844,1.5112,0.0,1.4406,0.0,1.426,1.4089,1.4089,1.4217,0.0,0.0,1.4665,1.4677,1.4408,1.4437,1.4153,1.3393,1.3015,1.2509,1.1664,1.0703,0.9877,0.9233,0.8793,0.8553,0.8414,0.7086,0.5976,0.5586,0.4627,0.3654,0.3259,0.2651,0.2248,0.211,0.2075,0.2031,0.1867,0.1501,0.1236,0.1067,0.068,0.0456,0.0,0.0286,0.0,0.0404,0.04,0.0396,0.04,0.0,0.0,3.2438,3.2438,3.2452,3.2064,3.1436,3.0915,3.0688,3.0702,3.0702,3.0702,3.0702,3.0702,3.0862,3.1142,3.1303,3.1597,3.1998,3.2171,3.2492,3.2879,3.2893,3.3053,3.3383,3.3334,3.3383,3.3334,3.3383,3.325,3.2933,3.2772,3.2559,3.2353,3.2291,3.2051,3.1657,3.173,3.1891,3.2112,3.226,3.2208,3.1904,3.1495,3.0854,2.9864,2.8942,2.786,2.662,2.526,2.3855,2.2439,2.1241,1.9947,1.8592,1.8134,1.7559,0.0,0.0,0.0,0.0,0.0,0.0,0.0,0.0,0.0,0.0,0.0,1.4486,1.4805,1.474,1.4692,1.4692,1.4767,1.4896,1.5066,1.4979,1.4875,1.479,1.4256,1.3673,1.3106,1.2318,1.1392,1.042,0.9394,0.8358,0.7323,0.6457,0.6103,0.6431,0.5471,0.4419,0.3878,0.3151,0.2363,0.1842,0.153,0.1268,0.1001,0.0953,0.0958,0.0958,0.0681,0.0514,0.0457,0.023,0.0,0.0,0.0,0.0,0.0,0.0,0.0,0.0,0.0,0.0,3.3521,3.3521,3.3534,3.3534,3.344,3.2438,3.2019,3.1891,3.1891,3.1938,3.1891,3.1891,3.2099,3.2332,3.2332,3.2639,3.3146,3.3146,3.344,3.3935,3.3948,3.4082,3.4322,3.4322,3.4322,3.4322,3.4322,3.4042,3.3534,3.3547,3.3293,3.2835,3.2822,3.2808,3.2768,3.2768,3.2728,3.2648,3.2639,3.2345,3.1767,3.1325,3.0442,2.9043,2.8224,2.7085,2.5522,2.4156,2.2772,2.1402,1.996,1.868,1.7571,1.7046,1.6514,0.0,1.5912,0.0,0.0,0.0,0.0,0.0,0.0,0.0,0.0,1.4768,1.4746,1.5031,1.5234,1.5276,1.5296,1.5249,1.5316,1.5544,1.5104,1.4821,1.4875,1.3767,1.2834,1.2697,1.1339,1.0028,0.8966,0.7868,0.6805,0.5717,0.4453,0.3793,0.4163,0.3698,0.3024,0.2383,0.1858,0.1323,0.0945,0.0784,0.0621,0.0,0.0,0.0,0.0,0.0,0.0,0.0,0.0,0.0,0.0,0.0,0.0,0.0,0.0,0.0,0.0,0.0,0.0,3.4148,3.4148,3.4148,3.4148,3.4135,3.3908,3.3547,3.3057,3.3093,3.308,3.308,3.308,3.3253,3.3547,3.3547,3.3734,3.4068,3.4068,3.4135,3.4242,3.4242,3.4269,3.4322,3.4322,3.4322,3.4322,3.4322,3.4269,3.4148,3.4097,3.4095,3.3988,3.3988,3.3868,3.3691,0.0,0.0,0.0,3.2736,3.2437,3.2066,3.0764,2.9737,2.8982,2.705,0.0,2.4657,2.3001,2.1384,1.988,1.9034,0.0,0.0,0.0,0.0,0.0,0.0,0.0,0.0,0.0,0.0,0.0,1.5418,1.5343,1.5178,1.52,1.5316,1.5451,1.569,1.5826,1.59,1.5463,1.5282,1.5457,1.5076,1.4488,1.3767,1.3058,1.2222,1.0931,0.9728,0.8536,0.7521,0.6355,0.5223,0.4147,0.3296,0.2488,0.1829,0.1922,0.1806,0.1268,0.0782,0.0339,0.0171,0.0,0.0,0.0,0.0,0.0,0.0,0.0,0.0,0.0,0.0,0.0,0.0,0.0,0.0,0.0,0.0,0.0,0.0,0.0,0.0,3.5191,0.0,3.5191,3.5191,0.0,3.503,3.4751,3.4444,3.4042,3.3855,3.3855,3.3868,3.3948,3.4095,3.4095,3.4255,3.4536,3.4536,3.4696,3.4963,3.4963,3.4886,3.4755,3.4768,3.4518,3.4124,3.4071,3.4085,3.4083,3.407,3.4159,3.4322,3.4322,3.4242,3.4108,3.3853,3.3396,3.2802,3.2683,3.2132,3.1252,3.0264,2.9172,2.7821,0.0,0.0,0.0,0.0,0.0,0.0,0.0,0.0,0.0,0.0,0.0,1.5792,1.5862,1.5801,1.5568,1.5636,1.5696,1.5845,1.6013,1.5979,1.5655,1.5764,1.5886,1.5918,1.6164,1.6226,1.5996,1.5762,1.55,1.5063,1.4568,1.3869,1.2866,1.1972,1.1008,0.9648,0.8465,0.7242,0.5821,0.4949,0.392,0.2838,0.2125,0.1575,0.1076,0.1124,0.1063,0.0564,0.0227,0.0,0.0,0.0,0.0,0.0,0.0,0.0,0.0,0.0,0.0,0.0,0.0,0.0,0.0,0.0,0.0,0.0,0.0,0.0,0.0,0.0,0.0,3.6126,3.6126,3.6126,3.6126,3.6046,3.5698,3.5497,3.5324,0.0,0.0,0.0,3.4523,3.4498,3.4549,3.4499,3.4607,3.4833,3.4728,3.4927,3.5377,3.5377,3.5241,3.5085,3.503,3.4643,3.3994,3.3994,3.3966,3.3939,3.394,3.4007,3.42,3.4186,3.4133,3.4041,3.3524,3.2891,3.2339,3.2313,3.1655,3.0373,2.9665,2.8452,2.6536,2.5556,2.4088,2.2125,2.0716,1.9487,1.8478,1.7247,1.6523,1.6419,1.5986,1.5749,1.5749,1.5906,1.6024,1.6024,1.6117,1.6279,1.6456,1.6686,1.6653,1.6232,1.6341,1.6435,1.6463,1.659,1.6471,1.6028,1.5815,1.5346,1.4493,1.3745,1.289,1.1773,1.0669,0.9539,0.8378,0.7121,0.5859,0.4456,0.3515,0.2744,0.1815,0.1195,0.0743,0.0747,0.0743,0.057,0.0172,0.0,0.0,0.0,0.0,0.0,0.0,0.0,0.0,0.0,0.0,0.0,0.0,0.0,0.0,0.0,0.0,0.0,0.0,0.0,0.0,0.0,0.0,0.0,3.614,3.6126,3.6126,3.6126,3.6072,3.5479,3.4978,3.4548,3.4914,3.507,3.5084,3.5338,3.5444,3.5405,3.5176,3.5092,3.5131,3.4592,3.4414,0.0,3.4491,3.4449,3.4433,3.4433,3.4366,3.4274,3.4207,3.4235,3.4188,3.3958,3.3938,3.3915,3.371,3.348,3.3236,3.2461,3.1728,3.1137,3.1137,3.1033,3.0762,2.8716,2.7193,2.6158,2.4472,2.2715,2.0873,2.0115,1.9029,1.7567,1.7314,1.6959,1.6496,1.6388,1.6395,1.6395,1.6415,1.6429,1.6429,1.6571,1.6775,1.7039,1.7107,1.6992,1.6642,1.6795,1.6937,1.7053,1.6631,1.639,1.6333,1.5081,1.4193,1.3847,1.2692,1.1419,1.0158,0.9092,0.8022,0.6829,0.5137,0.4107,0.3594,0.2341,0.1371,0.1032,0.0575,0.0,0.0,0.0115,0.0115,0.0,0.0,0.0,0.0,0.0,0.0,0.0,0.0,0.0,0.0,0.0,0.0,0.0,0.0,0.0,0.0,0.0,0.0,0.0,0.0,0.0,0.0,0.0,0.0,3.6927,3.6794,3.678,3.6522,3.6034,3.4946,3.4191,3.3822,3.3734,3.4104,3.4721,3.4838,3.489,3.4903,3.4762,3.4705,3.4705,3.4107,3.3868,3.3993,3.3664,3.3476,3.3334,3.3346,3.3107,3.2644,3.2632,3.2724,3.2798,3.2731,3.2779,3.3092,3.2887,3.2517,3.2074,3.1277,3.0564,2.9982,2.9979,2.9683,2.9096,2.7427,2.6065,2.5065,2.3296,2.1804,2.0526,1.9342,1.8277,1.7469,1.7109,1.6852,1.6646,1.672,1.6768,1.6775,1.6842,1.6883,1.6883,1.7026,1.7168,1.7304,1.7392,1.7419,1.7358,1.727,1.7143,1.6882,1.6632,1.62,1.5346,1.4316,1.3329,1.2391,1.1074,0.9763,0.8526,0.7368,0.6202,0.5058,0.3852,0.2875,0.2185,0.1438,0.0749,0.0463,0.0,0.0,0.0,0.0,0.0,0.0,0.0,0.0,0.0,0.0,0.0,0.0,0.0,0.0,0.0,0.0,0.0,0.0,0.0,0.0,0.0,0.0,0.0,0.0,0.0,0.0,0.0,0.0,0.0,3.7689,3.7489,3.7376,3.6643,3.5506,3.4227,3.3384,3.2761,3.2265,3.2541,3.3298,3.3741,3.3977,3.399,3.3943,3.3913,3.3804,3.3145,3.2924,3.3038,3.2495,3.2055,3.1893,3.1916,3.1532,3.098,3.0902,3.0967,3.1173,3.1159,3.1322,3.1625,3.148,3.1169,3.0734,2.9889,2.9204,2.875,2.8348,2.7897,2.7377,2.6097,2.4856,2.3685,2.2245,2.0988,2.0001,1.8662,1.7808,1.7478,1.7054,1.6844,1.6851,1.7012,1.708,1.7087,1.7182,1.7263,1.7304,1.7433,1.7534,1.7575,1.7663,1.7736,1.7761,1.7538,1.7186,1.6756,1.642,1.5634,1.4329,1.3343,1.23,1.0726,0.9432,0.8175,0.6856,0.5711,0.4563,0.3411,0.266,0.1909,0.1156,0.0751,0.0522,0.0,0.0,0.0,0.0,0.0,0.0,0.0,0.0,0.0,0.0,0.0,0.0,0.0,0.0,0.0,0.0,0.0,0.0,0.0,0.0,0.0,0.0,0.0,0.0,0.0,0.0,0.0,0.0,0.0,0.0,3.7809,3.7669,3.7172,3.58,3.4041,3.3561,3.2464,3.1026,3.0869,3.0598,3.0441,3.2205,3.293,3.2966,3.2737,3.2597,3.2553,3.1498,3.0992,3.0891,3.0349,3.0078,2.9987,3.0054,2.9987,2.9897,2.9841,2.9809,2.9822,2.9704,2.9498,2.9347,2.9293,2.9282,2.9062,2.8046,2.7418,2.7317,2.5791,2.5524,2.6505,2.4852,2.3359,2.221,2.1367,2.0144,1.8689,1.8345,1.8009,1.7465,1.7351,1.7298,1.7304,1.7372,1.7378,1.7385,1.7399,1.746,1.7548,1.7745,1.788,1.8023,1.8095,1.7958,1.7525,1.7386,1.738,1.7028,1.5741,1.4602,1.3726,1.2259,1.073,0.9435,0.816,0.6856,0.5233,0.4328,0.3466,0.2234,0.1525,0.0999,0.0821,0.0469,0.0,0.0,0.0,0.0,0.0,0.0,0.0,0.0,0.0,0.0,0.0,0.0,0.0,0.0,0.0,0.0,0.0,0.0,0.0,0.0,0.0,0.0,0.0,0.0,0.0,0.0,0.0,0.0,0.0,0.0,0.0,3.8021,3.7461,3.7232,3.5648,3.3321,3.2011,3.0514,2.908,2.8673,2.8172,2.7707,2.8523,2.9666,3.1026,3.0958,3.089,3.0778,2.958,2.9024,2.8967,2.8058,2.7603,2.7603,2.7603,2.7603,2.7613,2.7613,2.7603,2.7593,2.7513,2.7367,2.7267,2.7203,2.7078,2.7012,2.6112,2.5598,2.5543,2.3867,2.3238,2.3646,2.3068,2.2193,2.126,2.0255,1.9411,1.8613,1.8146,1.7772,1.7555,1.75,1.75,1.75,1.7636,1.7724,1.7812,1.7901,1.7982,1.7987,1.8104,1.8158,1.8226,1.7941,1.7667,1.7466,1.6558,1.5894,1.5832,1.515,1.401,1.235,1.081,0.9444,0.815,0.649,0.498,0.4277,0.2938,0.1825,0.1355,0.0766,0.0,0.0353,0.0177,0.0,0.0,0.0,0.0,0.0,0.0,0.0,0.0,0.0,0.0,0.0,0.0,0.0,0.0,0.0,0.0,0.0,0.0,0.0,0.0,0.0,0.0,0.0,0.0,0.0,0.0,0.0,0.0,0.0,0.0,0.0,3.8311,3.7521,3.6846,3.4918,3.2207,3.0582,2.8942,2.7454,2.6653,2.5882,2.5386,2.5147,2.6063,2.7707,2.8456,2.8797,2.8626,2.766,2.7147,2.7033,2.5891,2.5386,2.5376,2.5147,2.509,2.509,2.509,2.5214,2.5319,2.5376,2.5443,2.5587,2.5457,2.5326,2.5081,2.4323,2.3866,2.3584,2.2228,2.1435,2.1378,2.1322,2.0994,2.0296,1.949,1.8936,1.8615,1.8053,1.7778,1.7778,1.7778,1.7778,1.7778,1.7935,1.8036,1.8145,1.8253,1.8208,1.8088,1.8071,1.8034,1.787,1.7498,1.7161,1.6725,1.5653,1.4591,1.3941,1.3651,1.2511,1.094,0.9503,0.8127,0.6643,0.4768,0.365,0.2944,0.1649,0.0884,0.0648,0.0295,0.0,0.0,0.0,0.0,0.0,0.0,0.0,0.0,0.0,0.0,0.0,0.0,0.0,0.0,0.0,0.0,0.0,0.0,0.0,0.0,0.0,0.0,0.0,0.0,0.0,0.0,0.0,0.0,0.0,0.0,0.0,0.0,0.0,0.0,3.8721,3.7794,3.5651,3.3269,3.082,2.9696,2.8163,2.6202,2.4999,2.4124,2.3484,2.29,2.2678,2.3073,2.5196,2.6244,2.6177,2.5548,2.5262,2.5147,2.4058,2.3541,2.3484,2.2851,2.2621,2.2728,2.2736,2.2966,2.3484,2.3541,2.3828,2.4288,2.4288,2.4049,2.3484,2.2958,2.2308,2.179,2.1098,2.0471,1.9951,1.9893,1.9691,1.9376,1.9213,1.886,1.8394,1.8287,1.8274,1.828,1.826,1.8267,1.8274,1.828,1.8294,1.8251,1.8271,1.8044,1.7553,1.7543,1.7384,1.6931,1.6786,1.6349,1.5285,1.4824,1.3722,1.1696,1.1036,1.0209,0.9331,0.8101,0.6579,0.459,0.3945,0.2885,0.1296,0.1062,0.0648,0.0,0.0,0.0,0.0,0.0,0.0,0.0,0.0,0.0,0.0,0.0,0.0,0.0,0.0,0.0,0.0,0.0,0.0,0.0,0.0,0.0,0.0,0.0,0.0,0.0,0.0,0.0,0.0,0.0,0.0,0.0,0.0,0.0,0.0,0.0,0.0,3.7829,3.6208,3.397,3.1672,2.9572,2.8353,2.6386,2.4055,2.3522,2.2669,2.1706,2.1352,2.1237,2.1295,2.216,2.3015,2.3656,2.3073,2.2851,2.2736,2.1987,2.1641,2.1583,2.1352,2.1237,2.1237,2.1237,2.1352,2.1583,2.1583,2.1761,2.1964,2.2038,2.1977,2.1903,2.1692,2.145,2.1215,2.0621,2.0158,1.9909,1.957,1.9297,1.9038,1.8839,1.8637,1.8321,1.8321,1.8321,1.8321,1.8321,1.8321,1.8328,1.8346,1.8228,1.7899,1.7914,1.7729,1.7166,1.674,1.6475,1.6243,1.5528,1.474,1.3913,1.3095,1.1867,1.0345,0.9058,0.7998,0.6648,0.5945,0.518,0.4003,0.2709,0.1771,0.1008,0.0534,0.0238,0.0,0.0,0.0,0.0,0.0,0.0,0.0,0.0,0.0,0.0,0.0,0.0,0.0,0.0,0.0,0.0,0.0,0.0,0.0,0.0,0.0,0.0,0.0,0.0,0.0,0.0,0.0,0.0,0.0,0.0,0.0,0.0,0.0,0.0,0.0,0.0,3.6925,3.4869,3.2794,3.0685,2.8691,2.7134,2.5091,2.2805,2.2098,2.1224,2.0392,2.0146,2.003,2.003,2.003,2.0428,2.1237,2.1179,2.1179,2.1121,2.0601,2.032,2.0262,2.0088,2.0059,2.011,2.0102,2.0241,2.0408,2.0408,2.0591,2.0929,2.0878,2.0871,2.079,2.0805,2.0686,2.0456,2.0034,1.9849,1.973,1.9441,1.9156,1.9047,1.885,1.8654,1.8477,1.8464,1.8464,1.8464,1.8464,1.8464,1.8477,1.8316,1.8088,1.7697,1.7407,1.6957,1.6385,1.5594,1.5082,1.4793,1.3911,1.2954,1.2095,1.1209,1.0081,0.8712,0.7355,0.5886,0.4713,0.3896,0.331,0.2838,0.1655,0.0831,0.0657,0.0239,0.0,0.0,0.0,0.0,0.0,0.0,0.0,0.0,0.0,0.0,0.0,0.0,0.0,0.0,0.0,0.0,0.0,0.0,0.0,0.0,0.0,0.0,0.0,0.0,0.0,0.0,0.0,0.0,0.0,0.0,0.0,0.0,0.0,0.0,0.0,0.0,0.0,3.6067,3.4213,3.2316,3.0169,2.8037,2.602,2.4333,2.2681,2.0878,2.0036,1.9667,1.9175,1.8994,1.8878,1.8994,1.8936,1.9284,2.0088,2.0493,2.0428,1.9972,1.969,1.9646,1.9247,1.9097,1.9162,1.9188,1.9532,2.0044,2.0096,2.0354,2.0923,2.0871,2.0597,2.0108,2.0136,1.9884,1.9482,1.937,1.9296,1.921,1.9237,1.9237,1.9203,1.9176,1.904,1.8834,1.8813,1.8793,1.8793,1.8735,1.8813,1.8612,1.811,1.7762,1.7432,1.6673,1.5855,1.5098,1.3991,1.3081,1.2483,1.1838,1.0894,0.9826,0.946,0.8607,0.6797,0.5547,0.4482,0.3603,0.2255,0.1251,0.0954,0.0894,0.0598,0.0181,0.0,0.0,0.0,0.0,0.0,0.0,0.0,0.0,0.0,0.0,0.0,0.0,0.0,0.0,0.0,0.0,0.0,0.0,0.0,0.0,0.0,0.0,0.0,0.0,0.0,0.0,0.0,0.0,0.0,0.0,0.0,0.0,0.0,0.0,0.0,0.0,-0.0584,-0.1043,3.5633,3.321,3.106,2.8941,2.6828,2.4837,2.3213,2.1853,2.062,1.9761,1.9269,1.8926,1.882,1.882,1.882,1.882,1.882,1.9226,1.94,1.9342,1.9168,1.9165,1.919,1.9035,1.8993,1.9122,1.9176,1.9262,1.9447,1.9507,1.9667,1.9884,1.9965,1.99,1.9863,1.9817,1.9696,1.9575,1.9515,1.9582,1.9515,1.9515,1.9468,1.9373,1.9359,1.9264,1.9074,1.8972,1.8871,1.8834,1.882,1.8588,1.8136,1.7573,1.6913,1.6044,1.5319,1.4378,1.331,1.2138,1.1143,1.0475,0.9875,0.8904,0.7809,0.7564,0.6718,0.5025,0.425,0.3532,0.2096,0.132,0.09,0.0895,0.0539,0.0,0.0,0.0,0.0,0.0,0.0,0.0,0.0,0.0,0.0,0.0,0.0,0.0,0.0,0.0,0.0,0.0,0.0,0.0,0.0,0.0,0.0,0.0,0.0,0.0,0.0,0.0,0.0,0.0,0.0,0.0,0.0,0.0,0.0,0.0,0.0,0.0,0.0,-0.1174,-0.177,3.5157,3.279,3.0371,2.8154,2.6027,2.4036,2.234,2.1047,2.0221,1.9532,1.9051,1.8891,1.8816,1.8827,1.882,1.882,1.882,1.882,1.8789,1.8895,1.8909,1.8905,1.9006,1.9115,1.9189,1.9284,1.9345,1.9373,1.9373,1.9379,1.942,1.9501,1.9515,1.9616,1.9718,1.9725,1.9725,1.9725,1.9718,1.9725,1.9725,1.9725,1.9617,1.9529,1.9515,1.944,1.9291,1.9196,1.9081,1.89,1.8749,1.8163,1.7349,1.6715,1.5869,1.4699,1.3762,1.2808,1.1488,1.0254,0.9235,0.8565,0.7716,0.6796,0.5879,0.551,0.4537,0.3378,0.2833,0.2231,0.1146,0.0666,0.0604,0.0542,0.0242,0.0,0.0,0.0,0.0,0.0,0.0,0.0,0.0,0.0,0.0,0.0,0.0,0.0,0.0,0.0,0.0,0.0,0.0,0.0,0.0,0.0,0.0,0.0,0.0,0.0,0.0,0.0,0.0,0.0,0.0,0.0,0.0,0.0,0.0,0.0,-0.0194,-0.0584,-0.1109,-0.2233,-0.2972,3.4618,3.2838,3.0098,2.7727,2.5572,2.3472,2.1752,2.0483,1.972,1.9278,1.9067,1.9013,1.8932,1.8875,1.8895,1.8837,1.8796,1.8823,1.8891,1.8979,1.902,1.9054,1.9094,1.9305,1.942,1.9461,1.9569,1.9691,1.9671,1.9671,1.9657,1.9705,1.9698,1.9718,1.9732,1.9732,1.9752,1.9759,1.9752,1.9752,1.9745,1.9725,1.9718,1.9711,1.9644,1.9576,1.9468,1.9307,1.9232,1.9045,1.8332,1.7316,1.6334,1.557,1.4499,1.3242,1.2128,1.0893,0.9646,0.8395,0.7383,0.6703,0.5656,0.449,0.3971,0.3477,0.2923,0.2061,0.1514,0.1029,0.0788,0.0426,0.0,0.0,0.0,0.0,0.0,0.0,0.0,0.0,0.0,0.0,0.0,0.0,0.0,0.0,0.0,0.0,0.0,0.0,0.0,0.0,0.0,0.0,0.0,0.0,0.0,0.0,0.0,0.0,0.0,0.0,0.0,0.0,0.0,0.0,0.0,0.0,0.0,0.0,-0.0583,-0.0976,-0.19,-0.3167,-0.4515,3.4115,3.1602,2.9293,2.7066,2.4929,2.2753,2.1396,2.0484,1.9715,1.9386,1.9291,1.9196,1.9122,1.9088,1.9081,1.9088,1.9067,1.9074,1.9094,1.9162,1.9271,1.9312,1.9345,1.9501,1.9657,1.9664,1.9691,1.9725,1.9725,1.9725,1.9725,1.9725,1.9732,1.9732,1.9732,1.9766,1.9813,1.9882,1.982,1.982,1.9861,1.9712,1.9725,1.9725,1.9725,1.9698,1.9543,1.9111,1.8738,1.8337,1.6876,1.5982,1.5407,1.409,1.2741,1.1484,1.0265,0.9026,0.7683,0.6466,0.5428,0.4751,0.3948,0.3205,0.2585,0.2337,0.1905,0.1411,0.1043,0.0736,0.0368,0.0,0.0,0.0,0.0,0.0,0.0,0.0,0.0,0.0,0.0,0.0,0.0,0.0,0.0,0.0,0.0,0.0,0.0,0.0,0.0,0.0,0.0,0.0,0.0,0.0,0.0,0.0,0.0,0.0,0.0,0.0,0.0,0.0,0.0,0.0,0.0,0.0,0.0,-0.0774,-0.1429,-0.209,-0.3287,-0.4566,-0.6062,3.332,3.0813,2.8596,2.6264,2.3992,2.2305,2.1115,2.0251,1.9751,1.9481,1.936,1.9345,1.9257,1.9203,1.9196,1.9196,1.9203,1.9203,1.9237,1.9325,1.9454,1.9515,1.9549,1.9691,1.9725,1.9725,1.9725,1.9725,1.9725,1.9725,1.9725,1.9739,1.9725,1.9814,1.9827,1.9888,1.9969,1.9969,1.9969,1.9969,1.9956,1.9827,1.982,1.98,1.9766,1.9603,1.9225,1.8123,1.7308,1.6892,1.5839,1.4748,1.3787,1.2318,1.0893,0.9612,0.836,0.7024,0.5795,0.4626,0.3825,0.3146,0.253,0.2037,0.1604,0.1358,0.0926,0.0617,0.0617,0.037,0.0,0.0,0.0,0.0,0.0,0.0,0.0,0.0,0.0,0.0,0.0,0.0,0.0,0.0,0.0,0.0,0.0,0.0,0.0,0.0,0.0,0.0,0.0,0.0,0.0,0.0,0.0,0.0,0.0,0.0,0.0,0.0,0.0,0.0,0.0,0.0,0.0,-0.0839,-0.1226,-0.1681,-0.241,-0.3537,-0.4809,-0.6376,-0.7822,3.2282,3.0189,2.7933,2.5491,2.3206,2.194,2.0833,1.9847,1.9711,1.9583,1.9488,1.9454,1.9393,1.925,1.9305,1.9271,1.9264,1.9298,1.9352,1.9461,1.9576,1.9705,1.9698,1.9711,1.9725,1.9725,1.9725,1.9725,1.9725,1.9725,1.9739,1.9719,1.9813,1.9875,1.9922,2.0044,2.0112,2.0126,2.0126,2.0126,2.0098,1.9983,1.9888,1.9827,1.9597,1.8988,1.8062,1.6715,1.5539,1.5183,1.4699,1.3457,1.1813,1.0409,0.8996,0.7701,0.647,0.5179,0.3948,0.3209,0.2592,0.1975,0.1358,0.0926,0.0803,0.0494,0.0,0.0,0.0,0.0,0.0,0.0,0.0,0.0,0.0,0.0,0.0,0.0,0.0,0.0,0.0,0.0,0.0,0.0,0.0,0.0,0.0,0.0,0.0,0.0,0.0,0.0,0.0,0.0,0.0,0.0,0.0,0.0,0.0,0.0,0.0,0.0,0.0,0.0,0.0,0.0,0.0,-0.1226,-0.2,-0.2914,-0.3845,-0.5112,-0.6527,-0.8324,-0.9867,3.135,2.8909,2.7214,2.5161,2.3052,2.1623,2.0492,1.9725,1.9725,1.9698,1.9617,1.961,1.9643,1.9556,1.9535,1.9563,1.9535,1.9535,1.959,1.9603,1.9637,1.9725,1.9725,1.9725,1.9725,1.9725,1.9725,1.9725,1.9725,1.9739,1.9725,1.9882,1.9881,1.9936,2.0058,2.02,2.0282,2.0282,2.0282,2.0282,2.0248,2.0132,1.9997,1.982,1.9183,1.7953,1.6538,1.5494,1.4022,1.2495,1.2066,1.1514,1.029,0.894,0.7463,0.5982,0.4811,0.3763,0.2591,0.1852,0.142,0.1234,0.0679,0.0,0.0,0.0,0.0,0.0,0.0,0.0,0.0,0.0,0.0,0.0,0.0,0.0,0.0,0.0,0.0,0.0,0.0,0.0,0.0,0.0,0.0,0.0,0.0,0.0,0.0,0.0,0.0,0.0,0.0,0.0,0.0,0.0,0.0,0.0,0.0,0.0,0.0,0.0,0.0,0.0,0.0,-0.0903,-0.1419,-0.2516,-0.3419,-0.4344,-0.5474,-0.7013,-0.8584,-1.0344,-1.1957,3.0292,2.797,2.613,2.4335,2.2565,2.1345,2.0405,1.9806,1.9725,1.9725,1.9725,1.9725,1.9725,1.9725,1.9725,1.9718,1.9725,1.9725,1.9725,1.9718,1.9725,1.9725,1.9725,1.9725,1.9725,1.9725,1.9725,1.9725,1.9732,1.9793,1.98,1.995,2.0003,2.0132,2.0214,2.0286,2.0417,2.0431,2.0361,2.0431,2.034,2.0282,1.9836,1.9156,1.8082,1.6599,1.5372,1.3659,1.1939,1.0344,0.9361,0.8931,0.8319,0.6968,0.5553,0.4565,0.3146,0.2407,0.1543,0.0926,0.0556,0.0,0.0,0.0,0.0,0.0,0.0,0.0,0.0,0.0,0.0,0.0,0.0,0.0,0.0,0.0,0.0,0.0,0.0,0.0,0.0,0.0,0.0,0.0,0.0,0.0,0.0,0.0,0.0,0.0,0.0,0.0,0.0,0.0,0.0,0.0,0.0,0.0,0.0,0.0,0.0,0.0,0.0,-0.071,-0.0903,-0.1806,-0.2516,-0.3612,-0.4968,-0.6277,-0.761,-0.9107,-1.0699,-1.2593,-1.4134,2.9043,2.6967,2.4985,2.3309,2.1946,2.1004,2.0304,1.9793,1.9725,1.9725,1.9725,1.9725,1.9725,1.9725,1.9725,1.9725,1.9725,1.9725,1.9725,1.9725,1.9725,1.9725,1.9725,1.9725,1.9725,1.9725,1.9725,1.9732,1.9793,1.9868,1.9902,1.9976,2.018,2.0302,2.0376,2.0465,2.0519,2.0455,2.0519,2.0519,2.0385,2.0214,1.9595,1.8163,1.6775,1.5092,1.373,1.1878,0.9856,0.8319,0.6532,0.598,0.561,0.4873,0.3579,0.3456,0.1976,0.1235,0.0864,0.0,0.0,0.0,0.0,0.0,0.0,0.0,0.0,0.0,0.0,0.0,0.0,0.0,0.0,0.0,0.0,0.0,0.0,0.0,0.0,0.0,0.0,0.0,0.0,0.0,0.0,0.0,0.0,0.0,0.0,0.0,0.0,0.0,0.0,0.0,0.0,0.0,0.0,0.0,0.0,0.0,0.0,0.0,-0.0774,-0.1097,-0.1484,-0.258,-0.374,-0.4964,-0.6452,-0.8144,-0.9626,-1.0958,-1.2822,-1.4839,-1.6173,2.7424,2.5034,2.4118,2.2729,2.1293,2.0506,2.0025,1.9752,1.9725,1.9725,1.9725,1.9725,1.9725,1.9725,1.9725,1.9725,1.9725,1.9725,1.9725,1.9725,1.9725,1.9725,1.9725,1.9725,1.9732,1.9725,1.9739,1.9793,1.9868,1.9868,2.0024,2.0207,2.0302,2.032,2.0408,2.0469,2.0539,2.0539,2.0476,2.0476,2.0272,1.9648,1.8515,1.6892,1.5512,1.3806,1.1714,1.004,0.8132,0.5795,0.475,0.3825,0.327,0.3023,0.253,0.1852,0.1297,0.0679,0.0309,0.0,0.0,0.0,0.0,0.0,0.0,0.0,0.0,0.0,0.0,0.0,0.0,0.0,0.0,0.0,0.0,0.0,0.0,0.0,0.0,0.0,0.0,0.0,0.0,0.0,0.0,0.0,0.0,0.0,0.0,0.0,0.0,0.0,0.0,0.0,0.0,0.0,0.0,0.0,0.0,0.0,0.0,0.0,-0.1097,-0.1935,-0.2837,-0.3869,-0.5093,-0.6382,-0.7929,-0.9676,-1.1197,-1.2756,-1.4537,-1.6269,-1.7717,2.6096,2.4529,2.3139,2.2006,2.1059,2.0347,1.9936,1.9752,1.9725,1.9725,1.9725,1.9725,1.9725,1.9725,1.9725,1.9725,1.9725,1.9725,1.9725,1.9725,1.9725,1.9725,1.9732,1.9725,1.978,1.9814,1.978,1.9807,1.9888,2.0051,2.018,2.0295,2.039,2.0415,2.0455,2.0469,2.0539,2.0539,2.0476,2.0292,1.9827,1.8708,1.7057,1.5818,1.4096,1.2249,1.0103,0.8143,0.6473,0.4626,0.3147,0.2222,0.1728,0.142,0.1358,0.0988,0.0679,0.0,0.0,0.0,0.0,0.0,0.0,0.0,0.0,0.0,0.0,0.0,0.0,0.0,0.0,0.0,0.0,0.0,0.0,0.0,0.0,0.0,0.0,0.0,0.0,0.0,0.0,0.0,0.0,0.0,0.0,0.0,0.0,0.0,0.0,0.0,0.0,0.0,0.0,0.0,0.0,0.0,-0.0384,-0.0708,-0.1355,-0.1806,-0.2644,-0.3546,-0.4449,-0.5607,-0.6768,-0.8119,-0.9663,-1.1219,-1.2965,-1.4589,-1.6094,-1.7631,-1.8965,2.4836,2.3897,2.2252,2.1314,2.0872,2.0347,1.9936,1.9766,1.9725,1.9725,1.9725,1.9725,1.9725,1.9725,1.9725,1.9725,1.9725,1.9725,1.9725,1.9725,1.9725,1.9732,1.9766,1.978,1.9848,1.9915,1.9983,1.9963,2.0037,2.0187,2.0315,2.0397,2.0499,2.0539,2.0539,2.0539,2.0539,2.0476,2.0292,1.991,1.8663,1.7264,1.5734,1.4633,1.2713,1.0695,0.8654,0.6697,0.5066,0.3457,0.2098,0.0988,0.0741,0.0309,0.0247,0.0617,0.0247,0.0,0.0,0.0,0.0,0.0,0.0,0.0,0.0,0.0,0.0,0.0,0.0,0.0,0.0,0.0,0.0,0.0,0.0,0.0,0.0,0.0,0.0,0.0,0.0,0.0,0.0,0.0,0.0,0.0,0.0,0.0,0.0,0.0,0.0,0.0,0.0,0.0,0.0,0.0,0.0,0.0,-0.0769,-0.116,-0.2129,-0.3095,-0.4191,-0.5478,-0.6763,-0.7924,-0.8956,-0.9991,-1.1545,-1.3138,-1.4819,-1.6434,-1.7831,-1.8797,-1.9804,2.3645,2.1935,2.1682,2.1062,2.0312,2.0161,1.9936,1.9745,1.9725,1.9725,1.9725,1.9725,1.9725,1.9725,1.9725,1.9725,1.9725,1.9725,1.9732,1.9745,1.9752,1.9814,1.9834,1.9847,1.9942,2.0064,2.0193,2.0205,2.0268,2.0315,2.0397,2.0485,2.0449,2.0539,2.0539,2.0412,2.0539,2.0412,1.984,1.8694,1.7222,1.6504,1.4848,1.2885,1.1112,0.9342,0.7259,0.5299,0.3727,0.2409,0.1482,0.0741,0.0247,0.0062,0.0,0.0062,0.0,0.0,0.0,0.0,0.0,0.0,0.0,0.0,0.0,0.0,0.0,0.0,0.0,0.0,0.0,0.0,0.0,0.0,0.0,0.0,0.0,0.0,0.0,0.0,0.0,0.0,0.0,0.0,0.0,0.0,0.0,0.0,0.0,0.0,0.0,0.0,0.0,0.0,0.0,0.0,0.0,0.0,-0.1409,-0.1935,-0.3224,-0.4641,-0.6444,-0.7731,-0.9081,-1.0299,-1.1393,-1.25,-1.3622,-1.4861,-1.6338,-1.7964,-1.9537,-2.0257,-2.0639,2.2379,2.1555,2.1174,2.0622,2.0119,2.0098,1.9936,1.9766,1.9725,1.9725,1.9725,1.9725,1.9725,1.9732,1.9725,1.9725,1.9725,1.9732,1.9773,1.9773,1.9793,1.9861,1.9976,2.001,2.0085,2.0214,2.0302,2.037,2.0417,2.0388,2.0428,2.0526,2.0539,2.0539,2.0412,2.0094,1.9967,1.9528,1.8567,1.7419,1.6328,1.4981,1.3235,1.1217,0.9771,0.7811,0.5748,0.4255,0.2806,0.1614,0.0805,0.037,0.0,0.0,0.0,0.0,0.0,0.0,0.0,0.0,0.0,0.0,0.0,0.0,0.0,0.0,0.0,0.0,0.0,0.0,0.0,0.0,0.0,0.0,0.0,0.0,0.0,0.0,0.0,0.0,0.0,0.0,0.0,0.0,0.0,0.0,0.0,0.0,0.0,0.0,0.0,0.0,0.0,0.0,0.0,0.0,0.0,-0.1276,-0.2693,-0.3416,-0.4641,-0.6186,-0.8181,-1.0045,-1.1522,-1.274,-1.377,-1.4552,-1.5346,-1.6485,-1.7713,-1.9027,-2.0219,-2.0739,-2.1103,2.1245,2.1245,2.0675,2.0336,2.0098,2.0064,1.9895,1.9739,1.9766,1.978,1.9773,1.978,1.978,1.9759,1.9752,1.9745,1.9719,1.978,1.9868,1.995,1.9949,2.0024,2.0112,2.0166,2.0234,2.0313,2.0327,2.0381,2.0435,2.0342,2.0272,2.0476,2.0539,2.0349,2.0094,1.9783,1.9401,1.844,1.7094,1.6009,1.4986,1.3065,1.1397,0.9772,0.8207,0.6386,0.4394,0.2908,0.1821,0.1246,0.0435,0.0,0.0,0.0,0.0,0.0,0.0,0.0,0.0,0.0,0.0,0.0,0.0,0.0,0.0,0.0,0.0,0.0,0.0,0.0,0.0,0.0,0.0,0.0,0.0,0.0,0.0,0.0,0.0,0.0,0.0,0.0,0.0,0.0,0.0,0.0,0.0,0.0,0.0,0.0,0.0,0.0,0.0,0.0,0.0,-0.0699,-0.1085,-0.2047,-0.3472,-0.509,-0.6444,-0.8181,-1.0174,-1.1975,-1.377,-1.4986,-1.5945,-1.6472,-1.6953,-1.8014,-1.8947,-1.9717,-2.0568,-2.1089,-2.1362,2.0405,2.0405,2.0343,2.0241,2.0085,1.9949,1.9807,1.9739,1.9854,1.9854,1.9861,1.9922,1.9861,1.9834,1.9834,1.9766,1.9861,1.9922,1.9956,2.0037,2.0098,2.018,2.0268,2.0329,2.0376,2.0422,2.0365,2.0322,2.0285,1.9713,1.9974,2.0349,2.0158,1.9967,1.9649,1.914,1.8057,1.6967,1.5625,1.4346,1.3001,1.1269,0.9791,0.8248,0.6568,0.4946,0.4021,0.2291,0.1203,0.0876,0.0312,0.0,0.0,0.0,0.0,0.0,0.0,0.0,0.0,0.0,0.0,0.0,0.0,0.0,0.0,0.0,0.0,0.0,0.0,0.0,0.0,0.0,0.0,0.0,0.0,0.0,0.0,0.0,0.0,0.0,0.0,0.0,0.0,0.0,0.0,0.0,0.0,0.0,0.0,0.0,0.0,0.0,0.0,0.0,0.0,-0.1342,-0.2113,-0.3465,-0.4892,-0.6766,-0.857,-1.037,-1.2356,-1.3893,-1.5625,-1.6903,-1.7878,-1.8047,-1.8445,-1.9391,-2.0123,-2.0502,-2.0804,-2.1189,-2.1368,2.0212,2.018,2.0092,2.0017,1.9956,1.9895,1.9854,1.9759,1.9868,1.9936,2.0017,2.001,2.0017,1.9997,1.9976,1.9956,2.001,2.0017,2.0112,2.0193,2.0261,2.0329,2.0354,2.0395,2.0428,2.0342,2.0165,1.991,1.9776,1.914,1.9013,1.9204,1.9134,1.914,1.8822,1.793,1.6456,1.4986,1.3834,1.268,1.1269,0.9727,0.8248,0.6379,0.5351,0.3672,0.2312,0.1534,0.0827,0.0,0.0,0.0,0.0,0.0,0.0,0.0,0.0,0.0,0.0,0.0,0.0,0.0,0.0,0.0,0.0,0.0,0.0,0.0,0.0,0.0,0.0,0.0,0.0,0.0,0.0,0.0,0.0,0.0,0.0,0.0,0.0,0.0,0.0,0.0,0.0,0.0,0.0,0.0,0.0,0.0,0.0,0.0,0.0,-0.0764,-0.1345,-0.2247,-0.3278,-0.489,-0.6446,-0.8438,-1.0562,-1.274,-1.4597,-1.6073,-1.7181,-1.8233,-1.8967,-1.9324,-1.9754,-2.0123,-2.0515,-2.0955,-2.1194,-2.1362,-2.1375,2.0132,2.0017,1.9868,1.9834,1.9868,1.9888,1.982,1.9705,1.9868,2.0058,2.022,2.0193,2.0173,2.0159,2.0105,2.0132,2.0153,2.018,2.0268,2.0343,2.034,2.0388,2.0385,2.0285,2.0081,2.0031,1.9522,1.9146,1.8822,1.8248,1.7802,1.7483,1.7222,1.7094,1.7541,1.6264,1.4538,1.2809,1.1782,1.0755,0.9409,0.7733,0.6639,0.4835,0.374,0.2644,0.1482,0.0835,0.0512,0.0,0.0,0.0,0.0,0.0,0.0,0.0,0.0,0.0,0.0,0.0,0.0,0.0,0.0,0.0,0.0,0.0,0.0,0.0,0.0,0.0,0.0,0.0,0.0,0.0,0.0,0.0,0.0,0.0,0.0,0.0,0.0,0.0,0.0,0.0,0.0,0.0,0.0,0.0,0.0,0.0,0.0,0.0,0.0,-0.1283,-0.1933,-0.3283,-0.4762,-0.6885,-0.8503,-1.043,-1.2548,-1.4661,-1.6328,-1.7547,-1.861,-1.951,-1.9972,-2.018,-2.0278,-2.0455,-2.0849,-2.1181,-2.1287,-2.1375,-2.1375,1.9888,1.9861,1.9786,1.9807,1.9841,1.9786,1.9732,1.9759,1.9956,2.0234,2.0451,2.0313,2.0322,2.0295,2.022,2.0234,2.0309,2.0329,2.0327,2.0288,2.0245,2.0399,2.0151,1.9847,1.9458,1.9337,1.8694,1.7993,1.7419,1.6648,1.6142,1.5247,1.4602,1.4469,1.6073,1.4474,1.2424,1.0562,0.973,0.8637,0.7218,0.5544,0.4578,0.3548,0.2387,0.1355,0.0903,0.0451,0.0,0.0,0.0,0.0,0.0,0.0,0.0,0.0,0.0,0.0,0.0,0.0,0.0,0.0,0.0,0.0,0.0,0.0,0.0,0.0,0.0,0.0,0.0,0.0,0.0,0.0,0.0,0.0,0.0,0.0,0.0,0.0,0.0,0.0,0.0,0.0,0.0,0.0,0.0,0.0,0.0,0.0,0.0,-0.0894,-0.1284,-0.2442,-0.3288,-0.4576,-0.6251,-0.8438,-1.0559,-1.2484,-1.4149,-1.5945,-1.7547,-1.8898,-1.9612,-2.0088,-2.0542,-2.0936,-2.0913,-2.0889,-2.1108,-2.1341,-2.1368,-2.1375,-2.1375,1.9875,1.9793,1.9745,1.9745,1.9786,1.9745,1.9725,1.978,1.9976,2.0268,2.0492,2.0485,2.0471,2.0444,2.0354,2.0347,2.0325,2.0408,2.0399,1.9834,1.9847,1.9522,1.9204,1.8949,1.8567,1.8057,1.7483,1.6456,1.5375,1.4794,1.409,1.3193,1.2103,1.1778,1.2099,1.1333,1.0305,0.8508,0.7543,0.6577,0.5224,0.3998,0.3031,0.2193,0.1355,0.0774,0.0,0.0,0.0,0.0,0.0,0.0,0.0,0.0,0.0,0.0,0.0,0.0,0.0,0.0,0.0,0.0,0.0,0.0,0.0,0.0,0.0,0.0,0.0,0.0,0.0,0.0,0.0,0.0,0.0,0.0,0.0,0.0,0.0,0.0,0.0,0.0,0.0,0.0,0.0,0.0,0.0,0.0,0.0,0.0,-0.083,-0.1475,-0.2125,-0.3415,-0.4707,-0.6379,-0.8178,-1.0366,-1.2484,-1.4469,-1.6073,-1.7355,-1.833,-1.9433,-2.0048,-2.0553,-2.0857,-2.115,-2.1285,-2.1328,-2.1355,-2.1375,-2.1375,-2.1375,-2.1375,1.9807,1.9725,1.9725,1.9536,1.9414,1.9597,1.9685,1.9773,1.9997,2.0241,2.0374,2.0449,2.0349,2.0222,2.0158,1.9904,1.984,1.9776,1.9706,1.914,1.914,1.8758,1.8312,1.7796,1.7164,1.6525,1.5625,1.4666,1.3321,1.2616,1.1654,1.0498,0.9727,0.8824,0.8696,0.8377,0.8184,0.6577,0.5546,0.4902,0.3677,0.2645,0.1935,0.129,0.0774,0.0452,0.0,0.0,0.0,0.0,0.0,0.0,0.0,0.0,0.0,0.0,0.0,0.0,0.0,0.0,0.0,0.0,0.0,0.0,0.0,0.0,0.0,0.0,0.0,0.0,0.0,0.0,0.0,0.0,0.0,0.0,0.0,0.0,0.0,0.0,0.0,0.0,0.0,0.0,0.0,0.0,0.0,-0.0319,-0.0447,-0.0895,-0.1602,-0.2443,-0.3481,-0.4963,-0.6637,-0.8505,-1.0366,-1.242,-1.4277,-1.6131,-1.735,-1.8567,-1.9299,-1.9861,-2.0391,-2.081,-2.1071,-2.1292,-2.1374,-2.1348,-2.1362,-2.1375,-2.1375,-2.1375,-2.1375,1.9664,1.9664,1.9664,1.9232,1.8799,1.9171,1.9556,1.9752,1.9907,1.9999,2.0154,2.0232,1.9967,1.9528,1.9465,1.914,1.8694,1.8567,1.837,1.8242,1.7987,1.7674,1.71,1.6456,1.537,1.441,1.3514,1.2488,1.1269,1.0366,0.902,0.7865,0.7478,0.6448,0.5933,0.5933,0.5804,0.4644,0.387,0.3225,0.2323,0.1484,0.1097,0.0645,0.0387,0.0,0.0,0.0,0.0,0.0,0.0,0.0,0.0,0.0,0.0,0.0,0.0,0.0,0.0,0.0,0.0,0.0,0.0,0.0,0.0,0.0,0.0,0.0,0.0,0.0,0.0,0.0,0.0,0.0,0.0,0.0,0.0,0.0,0.0,0.0,0.0,0.0,0.0,0.0,0.0,0.0,-0.0961,-0.1409,-0.1539,-0.167,-0.2508,-0.386,-0.5027,-0.6701,-0.8503,-1.0495,-1.2291,-1.4213,-1.5748,-1.7413,-1.8631,-1.9414,-1.9899,-2.0311,-2.0756,-2.1068,-2.1258,-2.136,-2.1348,-2.1375,-2.1375,-2.1375,-2.1375,-2.1375,-2.1375,1.9414,1.8982,1.8988,1.8617,1.8014,1.7642,1.7898,1.8459,1.8604,1.8743,1.8887,1.902,1.8873,1.8822,1.8822,1.8312,1.793,1.7611,1.7036,1.6717,1.6264,1.5503,1.4858,1.4282,1.3129,1.2039,1.1076,1.0305,0.8698,0.7798,0.7154,0.5997,0.587,0.4774,0.4194,0.4,0.3484,0.2967,0.2387,0.1871,0.1355,0.071,0.0,0.0,0.0,0.0,0.0,0.0,0.0,0.0,0.0,0.0,0.0,0.0,0.0,0.0,0.0,0.0,0.0,0.0,0.0,0.0,0.0,0.0,0.0,0.0,0.0,0.0,0.0,0.0,0.0,0.0,-0.0432,-0.0679,-0.0741,-0.0864,-0.1049,-0.1234,-0.1236,-0.1433,-0.138,-0.1266,-0.134,0.0,0.0,0.0,-0.1806,-0.2318,-0.2702,-0.2835,-0.3803,-0.5222,-0.6894,-0.8567,-1.0555,-1.2612,-1.4277,-1.5945,-1.7286,-1.8376,-1.9146,-1.9809,-2.0315,-2.0655,-2.1007,-2.1197,-2.1314,-2.1368,-2.1368,-2.1375,-2.1375,-2.1375,-2.1375,-2.1375,-2.1375,1.911,1.8617,1.8123,1.727,1.6172,1.5438,1.5358,1.5679,1.6721,1.7352,1.7418,1.7598,1.7495,1.7222,1.7158,1.6712,1.5822,1.5631,1.5183,1.4474,1.4159,1.3321,1.2616,1.1975,1.0948,0.9795,0.8894,0.838,0.6963,0.6126,0.5482,0.4903,0.4774,0.4129,0.3421,0.3033,0.2388,0.1871,0.129,0.0903,0.0,0.0,0.0,0.0,0.0,0.0,0.0,0.0,0.0,0.0,0.0,0.0,0.0,0.0,0.0,0.0,0.0,0.0,0.0,0.0,0.0,0.0,0.0,0.0,0.0,0.0,0.0,0.0,0.0,0.0,0.0,-0.0679,-0.105,-0.1358,-0.1543,-0.1728,-0.1974,-0.2283,-0.2484,-0.2694,-0.2653,-0.2484,-0.2372,-0.2318,-0.2258,-0.2451,-0.2967,-0.3674,-0.4058,-0.4317,-0.5542,-0.7087,-0.8824,-1.0623,-1.2612,-1.4405,-1.5876,-1.7222,-1.8248,-1.921,-1.979,-2.0194,-2.0621,-2.0875,-2.115,-2.1306,-2.1368,-2.1368,-2.1375,-2.1375,-2.1375,-2.1375,-2.1375,-2.1375,-2.1375,1.8617,1.8245,1.6965,1.525,1.3598,1.2924,1.2254,1.1894,1.4071,1.5487,1.5613,1.5913,1.5591,1.5232,1.5119,1.441,1.3642,1.3257,1.2809,1.2103,1.1911,1.1205,1.037,0.992,0.8959,0.7739,0.6966,0.6834,0.6255,0.5739,0.5288,0.4324,0.4389,0.4065,0.342,0.2581,0.1936,0.129,0.0903,0.0,0.0,0.0,0.0,0.0,0.0,0.0,0.0,0.0,0.0,0.0,0.0,0.0,0.0,0.0,0.0,0.0,0.0,0.0,0.0,0.0,0.0,0.0,0.0,0.0,0.0,0.0,0.0,0.0,0.0,-0.0988,-0.1173,-0.1543,-0.1975,-0.2345,-0.2653,-0.3214,-0.3901,-0.4286,-0.47,-0.4736,-0.4514,-0.4291,-0.4112,-0.4063,-0.3806,-0.3675,-0.4191,-0.5095,-0.5802,-0.6122,-0.7409,-0.9084,-1.0687,-1.2488,-1.4341,-1.6068,-1.7413,-1.8631,-1.9331,-1.9783,-2.0165,-2.0503,-2.0892,-2.1068,-2.1238,-2.134,-2.1368,-2.1375,-2.1375,-2.1375,-2.1375,-2.1375,-2.1375,-2.1375,-2.1375,1.7818,1.6227,1.446,1.2863,1.1514,1.0843,1.0228,0.9617,0.9688,1.1071,1.2771,1.3128,1.3224,1.3043,1.3001,1.2296,1.1269,1.0948,1.0241,0.9599,0.9277,0.8827,0.8058,0.7865,0.6963,0.619,0.5612,0.5741,0.5739,0.5739,0.5868,0.561,0.5226,0.4452,0.3806,0.2838,0.1742,0.1161,0.0516,0.0,0.0,0.0,0.0,0.0,0.0,0.0,0.0,0.0,0.0,0.0,0.0,0.0,0.0,0.0,0.0,0.0,0.0,0.0,0.0,0.0,0.0,0.0,-0.037,-0.0617,0.0,-0.0741,-0.0864,-0.1049,-0.1297,-0.1605,-0.2038,-0.2594,-0.3089,-0.3521,-0.3953,-0.4896,-0.5845,-0.6457,-0.6893,-0.6805,-0.6527,-0.6232,-0.6055,-0.5739,-0.5482,-0.5675,-0.6126,-0.6963,-0.8055,-0.8763,-0.9785,-1.1265,-1.2616,-1.4346,-1.6073,-1.735,-1.8503,-1.9204,-1.9776,-2.0158,-2.0489,-2.0783,-2.1014,-2.1157,-2.1306,-2.1321,-2.1375,-2.1375,-2.1375,-2.1375,-2.1375,-2.1375,-2.1375,-2.1375,-2.1375,1.6593,1.5005,1.2557,1.072,0.9552,0.8814,0.8014,0.7152,0.6719,0.7256,0.865,0.973,1.044,1.0517,1.0545,1.0048,0.902,0.8959,0.8058,0.7221,0.6706,0.619,0.5868,0.5739,0.5161,0.4516,0.5097,0.5354,0.5739,0.5868,0.6126,0.619,0.561,0.4968,0.4321,0.3096,0.1935,0.1484,0.0515,0.0,0.0,0.0,0.0,0.0,0.0,0.0,0.0,0.0,0.0,0.0,0.0,0.0,0.0,0.0,0.0,0.0,0.0,0.0,0.0,0.0,0.0,-0.0432,-0.0679,-0.0926,-0.2037,-0.2098,-0.2222,-0.2408,-0.2668,-0.2981,-0.3794,-0.4417,-0.5055,-0.5497,-0.6183,-0.7006,-0.8158,-0.921,-0.9636,-0.9859,-0.934,-0.8491,-0.8119,-0.7347,-0.7218,-0.7669,-0.8187,-0.9087,-1.0177,-1.114,-1.2231,-1.3381,-1.4666,-1.5817,-1.7222,-1.8306,-1.9267,-1.984,-2.0222,-2.0456,-2.0672,-2.0946,-2.1143,-2.1272,-2.136,-2.1335,-2.1375,-2.1375,-2.1375,-2.1375,-2.1375,-2.1375,-2.1375,-2.1375,-2.1375,1.5112,1.3777,1.0904,0.8814,0.7524,0.6783,0.5857,0.4811,0.4565,0.427,0.4361,0.6399,0.7272,0.7652,0.7634,0.7207,0.6768,0.651,0.5739,0.5095,0.4839,0.4321,0.3999,0.3741,0.3871,0.4323,0.4968,0.5868,0.6577,0.6706,0.6706,0.6384,0.5868,0.529,0.471,0.3354,0.1999,0.1607,0.0,0.0,0.0,0.0,0.0,0.0,0.0,0.0,0.0,0.0,0.0,0.0,0.0,0.0,0.0,0.0,0.0,0.0,0.0,0.0,0.0,0.0,0.0,-0.0741,-0.0988,-0.179,-0.2901,-0.3645,-0.3768,-0.4213,-0.4484,-0.481,-0.5631,-0.6459,-0.7107,-0.7754,-0.8509,-0.9207,-1.0563,-1.1745,-1.2153,-1.2499,-1.1784,-1.0816,-1.0241,-0.9406,-0.9341,-0.9791,-1.0434,-1.1397,-1.236,-1.3257,-1.4282,-1.5306,-1.6456,-1.7611,-1.8503,-1.914,-1.9904,-2.0094,-2.0439,-2.0672,-2.0906,-2.1055,-2.1204,-2.1294,-2.1368,-2.1375,-2.1375,-2.1375,-2.1375,-2.1375,-2.1375,-2.1375,-2.1375,-2.1375,-2.1375,1.371,1.0658,0.8937,0.7214,0.5551,0.4811,0.401,0.3331,0.2776,0.247,0.254,0.2806,0.3714,0.4845,0.4851,0.4675,0.4441,0.4253,0.3548,0.2775,0.2967,0.2646,0.271,0.3225,0.3936,0.4774,0.5675,0.6641,0.7478,0.78,0.8122,0.8377,0.6577,0.5868,0.5482,0.3866,0.1993,0.1602,0.0,0.0,0.0,0.0,0.0,0.0,0.0,0.0,0.0,0.0,0.0,0.0,0.0,0.0,0.0,0.0,0.0,0.0,0.0,0.0,0.0,0.0,-0.0556,-0.1173,-0.1667,-0.2903,-0.4143,-0.5585,-0.6028,-0.6978,-0.7194,-0.7088,-0.7793,-0.888,-0.9664,-1.0374,-1.1075,-1.1923,-1.2977,-1.3665,-1.4098,-1.4043,-1.3551,-1.3065,-1.2809,-1.2167,-1.1718,-1.2167,-1.2552,-1.3449,-1.409,-1.5114,-1.6201,-1.71,-1.8121,-1.8694,-1.9337,-1.9713,-2.0285,-2.0476,-2.0594,-2.0777,-2.0946,-2.1102,-2.1258,-2.1328,-2.1375,-2.1375,-2.1375,-2.1375,-2.1375,-2.1375,-2.1375,-2.1375,-2.1375,-2.1375,-2.1375]},{"header":{"parameterUnit":"m.s-1","parameterCategory":1,"la1":31.0,"la2":29.5877,"lo1":-88.7671,"lo2":-86.6584,"dy":0.0162,"dx":0.0185,"nx":115,"ny":88,"refTime":"2023-04-11T12:00:00:Z","depth":0,"parameterNumber":3,"parameterNumberName":"V-component_of_WINDS"},"data":[0.0,0.0,0.0,0.0,0.0,0.0,0.0,0.0,0.0,0.0,0.0,0.0,0.0,0.0,0.0,0.0,0.0,0.0,0.0,0.0,0.0,0.0,0.0,0.0,0.0,0.0,0.0,0.0,0.0,0.0,0.0,0.0,0.0,0.0,0.0,0.0,0.0,0.0,0.0,0.0,0.0,0.0,0.0,0.0,0.0,0.0,0.0,0.0,0.0,0.0,0.0,0.0,0.0,0.0,0.0,0.0,0.0,0.0,0.0,0.0,0.0,0.0,0.0,0.0,0.0,0.0,0.0,0.0,0.0,0.0,0.0,0.0,0.0,0.0,0.0,0.0,0.0,0.0,0.0,0.0,0.0,0.0,0.0,0.0,0.0,0.0,0.0,0.0,0.0,0.0,0.0,0.0,0.0,0.0,0.0,0.0,0.0,0.0,0.0,0.0,0.0,0.0,0.0,0.0,0.0,0.0,0.0,0.0,0.0,0.0,0.0,0.0,0.0,0.0,0.0,0.0,0.0,0.0,0.0,0.0,0.0,0.0,0.0,0.0,0.0,0.0,0.0,0.0,0.0,0.0,0.0,0.0,0.0,0.0,0.0,0.0,0.0,0.0,0.0,0.0,0.0,0.0,0.0,0.0,0.0,0.0,0.0,0.0,0.0,0.0,0.0,0.0,0.0,0.0,0.0,0.0,0.0,0.0,0.0,0.0,0.0,0.0,0.0,0.0,0.0,0.0,0.0,0.0,0.0,0.0,0.0,0.0,0.0,0.0,0.0,0.0,0.0,0.0,0.0,0.0,0.0,0.0,0.0,0.0,0.0,0.0,0.0,0.0,0.0,0.0,0.0,0.0,0.0,0.0,0.0,0.0,0.0,0.0,0.0,0.0,0.0,0.0,0.0,0.0,0.0,0.0,0.0,0.0,0.0,0.0,0.0,0.0,0.0,0.0,0.0,0.0,0.0,0.0,0.0,0.0,0.0,0.0,0.0,0.0,0.0,0.0,0.0,0.0,0.0,0.0,0.0,0.0,0.0,0.0,0.0,0.0,0.0,0.0,0.0,0.0,0.0,0.0,0.0,0.0,0.0,0.0,0.0,0.0,0.0,0.0,0.0,0.0,0.0,0.0,0.0,0.0,0.0,0.0,0.0,0.0,0.0,0.0,0.0,0.0,0.0,0.0,0.0,0.0,0.0,0.0,0.0,0.0,0.0,0.0,0.0,0.0,0.0,0.0,0.0,0.0,0.0,0.0,0.0,0.0,0.0,0.0,0.0,0.0,0.0,0.0,0.0,0.0,0.0,0.0,0.0,0.0,0.0,0.0,0.0,0.0,0.0,0.0,0.0,0.0,0.0,0.0,0.0,0.0,0.0,0.0,0.0,0.0,0.0,0.0,0.0,0.0,0.0,0.0,0.0,0.0,0.0,0.0,0.0,0.0,0.0,0.0,0.0,0.0,0.0,0.0,0.0,0.0,0.0,0.0,0.0,0.0,0.0,0.0,0.0,0.0,0.0,0.0,0.0,0.0,0.0,0.0,0.0,0.0,0.0,0.0,0.0,0.0,0.0,0.0,0.0,0.0,0.0,0.0,0.0,0.0,0.0,0.0,0.0,0.0,0.0,0.0,0.0,0.0,0.0,0.0,0.0,0.0,0.0,0.0,0.0,0.0,0.0,0.0,0.0,0.0,0.0,0.0,0.0,0.0,0.0,0.0,0.0,0.0,0.0,0.0,0.0,0.0,0.0,0.0,0.0,0.0,0.0,0.0,0.0,0.0,0.0,0.0,0.0,0.0,0.0,0.0,0.0,0.0,0.0,0.0,0.0,0.0,0.0,0.0,0.0,0.0,0.0,0.0,0.0,0.0,0.0,0.0,0.0,0.0,0.0,0.0,0.0,0.0,0.0,0.0,0.0,0.0,0.0,0.0,0.0,0.0,0.0,0.0,0.0,0.0,0.0,0.0,0.0,0.0,0.0,0.0,0.0,0.0,0.0,0.0,0.0,0.0,0.0,0.0,0.0,0.0,0.0,0.0,0.0,0.0,0.0,0.0,0.0,0.0,0.0,0.0,0.0,0.0,0.0,0.0,0.0,0.0,0.0,0.0,0.0,0.0,0.0,0.0,0.0,0.0,0.0,0.0,0.0,0.0,0.0,0.0,0.0,0.0,0.0,0.0,0.0,0.0,0.0,0.0,0.0,0.0,0.0,0.0,0.0,0.0,0.0,0.0,0.0,0.0,0.0,0.0,0.0,0.0,0.0,0.0,0.0,0.0,0.0,0.0,0.0,0.0,0.0,0.0,0.0,0.0,0.0,0.0,0.0,0.0,0.0,0.0,0.0,0.0,0.0,0.0,0.0,0.0,0.0,0.0,0.0,0.0,0.0,0.0,0.0,0.0,0.0,0.0,0.0,0.0,0.0,0.0,0.0,0.0,0.0,0.0,0.0,0.0,0.0,0.0,0.0,0.0,0.0,0.0,0.0,0.0,0.0,0.0,0.0,0.0,0.0,0.0,0.0,0.0,0.0,0.0,0.0,0.0,0.0,0.0,0.0,0.0,0.0,0.0,0.0,0.0,0.0,0.0,0.0,0.0,0.0,0.0,0.0,0.0,0.0,0.0,0.0,0.0,0.0,0.0,0.0,0.0,0.0,0.0,0.0,0.0,0.0,0.0,0.0,0.0,0.0,0.0,0.0,0.0,0.0,0.0,0.0,0.0,0.0,0.0,0.0,0.0,0.0,0.0,0.0,0.0,0.0,0.0,0.0,0.0,0.0,0.0,0.0,0.0,0.0,0.0,0.0,0.0,0.0,0.0,0.0,0.0,0.0,0.0,0.0,0.0,0.0,0.0,0.0,0.0,0.0,0.0,0.0,0.0,0.0,0.0,0.0,0.0,0.0,0.0,0.0,0.0,0.0,0.0,0.0,0.0,0.0,0.0,0.0,0.0,0.0,0.0,0.0,0.0,0.0,0.0,0.0,0.0,0.0,0.0,0.0,0.0,0.0,0.0,0.0,0.0,0.0,0.0,0.0,0.0,0.0,0.0,0.0,0.0,0.0,0.0,0.0,0.0,0.0,0.0,0.0,0.0,0.0,0.0,0.0,0.0,0.0,0.0,0.0,0.0,0.0,0.0,0.0,0.0,0.0,0.0,0.0,0.0,0.0,0.0,0.0,0.0,0.0,0.0,0.0,0.0,0.0,0.0,0.0,0.0,0.0,0.0,0.0,0.0,0.0,0.0,0.0,0.0,0.0,0.0,0.0,0.0,0.0,0.0,0.0,0.0,0.0,0.0,0.0,0.0,0.0,0.0,0.0,0.0,0.0,0.0,0.0,0.0,0.0,0.0,0.0,0.0,0.0,0.0,0.0,0.0,0.0,0.0,0.0,0.0,0.0,0.0,0.0,0.0,0.0,0.0,0.0,0.0,0.0,0.0,0.0,0.0,0.0,0.0,0.0,0.0,0.0,0.0,0.0,0.0,0.0,0.0,0.0,0.0,0.0,0.0,0.0,0.0,0.0,0.0,0.0,0.0,0.0,0.0,0.0,0.0,0.0,0.0,0.0,0.0,0.0,0.0,0.0,0.0,0.0,0.0,0.0,0.0,0.0,0.0,0.0,0.0,0.0,0.0,0.0,0.0,0.0,0.0,0.0,0.0,0.0,0.0,0.0,0.0,0.0,0.0,0.0,0.0,0.0,0.0,0.0,0.0,0.0,0.0,0.0,0.0,0.0,0.0,0.0,0.0,0.0,0.0,0.0,0.0,0.0,0.0,0.0,0.0,0.0,0.0,0.0,0.0,0.0,0.0,0.0,0.0,0.0,0.0,0.0,0.0,0.0,0.0,0.0,0.0,0.0,0.0,0.0,0.0,0.0,0.0,0.0,0.0,0.0,0.0,0.0,0.0,0.0,0.0,0.0,0.0,0.0,0.0,0.0,0.0,0.0,0.0,0.0,0.0,0.0,0.0,0.0,0.0,0.0,0.0,0.0,0.0,0.0,0.0,0.0,0.0,0.0,0.0,0.0,0.0,0.0,0.0,0.0,0.0,0.0,0.0,0.0,0.0,0.0,0.0,0.0,0.0,0.0,0.0,0.0,0.0,0.0,0.0,0.0,0.0,0.0,0.0,0.0,0.0,0.0,0.0,0.0,0.0,0.0,0.0,0.0,0.0,0.0,0.0,0.0,0.0,0.0,0.0,0.0,0.0,0.0,0.0,0.0,0.0,0.0,0.0,0.0,0.0,0.0,0.0,0.0,0.0,0.0,0.0,0.0,0.0,0.0,0.0,4.1859,0.0,0.0,0.0,0.0,0.0,0.0,0.0,0.0,0.0,0.0,0.0,0.0,0.0,0.0,0.0,0.0,0.0,0.0,0.0,0.0,0.0,0.0,0.0,0.0,0.0,0.0,0.0,0.0,0.0,0.0,0.0,0.0,0.0,0.0,0.0,0.0,0.0,0.0,0.0,0.0,0.0,0.0,0.0,0.0,0.0,0.0,0.0,0.0,0.0,0.0,0.0,0.0,0.0,0.0,0.0,0.0,0.0,0.0,0.0,0.0,0.0,0.0,0.0,0.0,0.0,0.0,0.0,0.0,0.0,0.0,0.0,0.0,0.0,0.0,0.0,0.0,0.0,0.0,0.0,0.0,0.0,0.0,0.0,0.0,0.0,0.0,0.0,0.0,0.0,0.0,0.0,0.0,0.0,0.0,0.0,0.0,0.0,0.0,0.0,0.0,0.0,0.0,0.0,0.0,0.0,0.0,0.0,0.0,0.0,0.0,4.2139,4.2683,4.2817,4.2901,4.2947,0.0,0.0,0.0,0.0,0.0,0.0,0.0,0.0,0.0,0.0,0.0,0.0,0.0,0.0,0.0,0.0,0.0,0.0,0.0,0.0,0.0,0.0,0.0,0.0,0.0,0.0,0.0,0.0,0.0,0.0,0.0,0.0,0.0,0.0,0.0,0.0,0.0,0.0,0.0,0.0,0.0,0.0,0.0,0.0,0.0,0.0,0.0,0.0,0.0,0.0,0.0,0.0,0.0,0.0,0.0,0.0,0.0,0.0,0.0,0.0,0.0,0.0,0.0,0.0,0.0,0.0,0.0,0.0,0.0,0.0,0.0,0.0,0.0,0.0,0.0,0.0,0.0,0.0,0.0,0.0,0.0,0.0,0.0,0.0,0.0,0.0,0.0,0.0,0.0,0.0,0.0,0.0,0.0,0.0,0.0,0.0,0.0,0.0,0.0,0.0,0.0,0.0,0.0,0.0,0.0,0.0,0.0,0.0,0.0,0.0,0.0,0.0,4.4034,4.405,4.3902,0.0,0.0,0.0,0.0,0.0,0.0,0.0,0.0,0.0,0.0,0.0,0.0,0.0,0.0,0.0,0.0,0.0,0.0,0.0,0.0,0.0,0.0,0.0,0.0,0.0,0.0,0.0,0.0,0.0,0.0,0.0,0.0,0.0,0.0,0.0,0.0,0.0,0.0,0.0,0.0,0.0,0.0,0.0,0.0,0.0,0.0,0.0,0.0,0.0,0.0,0.0,0.0,0.0,0.0,0.0,0.0,0.0,0.0,0.0,0.0,0.0,0.0,0.0,0.0,0.0,0.0,0.0,0.0,0.0,0.0,0.0,0.0,0.0,0.0,0.0,0.0,0.0,0.0,0.0,0.0,0.0,0.0,0.0,0.0,0.0,0.0,0.0,0.0,0.0,0.0,0.0,0.0,0.0,0.0,0.0,0.0,0.0,0.0,0.0,0.0,0.0,0.0,0.0,0.0,0.0,0.0,0.0,0.0,0.0,0.0,4.4619,4.4693,4.4833,0.0,4.3886,0.0,0.0,0.0,0.0,0.0,0.0,0.0,0.0,0.0,0.0,0.0,0.0,0.0,0.0,0.0,0.0,0.0,0.0,0.0,0.0,0.0,0.0,0.0,0.0,0.0,0.0,0.0,0.0,0.0,0.0,0.0,0.0,0.0,0.0,0.0,0.0,0.0,0.0,0.0,0.0,0.0,0.0,0.0,0.0,0.0,0.0,0.0,0.0,0.0,0.0,0.0,0.0,0.0,0.0,0.0,0.0,0.0,0.0,0.0,0.0,0.0,0.0,0.0,0.0,0.0,0.0,0.0,0.0,0.0,0.0,0.0,0.0,0.0,0.0,0.0,0.0,0.0,0.0,0.0,0.0,0.0,0.0,0.0,0.0,0.0,0.0,0.0,0.0,0.0,0.0,0.0,0.0,0.0,0.0,0.0,0.0,0.0,0.0,0.0,0.0,0.0,0.0,0.0,0.0,0.0,0.0,0.0,0.0,0.0,0.0,4.5406,4.546,4.5496,4.5375,0.0,0.0,0.0,0.0,0.0,0.0,0.0,0.0,0.0,0.0,0.0,0.0,0.0,0.0,0.0,0.0,0.0,0.0,0.0,0.0,0.0,0.0,0.0,0.0,0.0,0.0,0.0,0.0,0.0,0.0,0.0,0.0,0.0,0.0,0.0,0.0,0.0,0.0,0.0,0.0,0.0,0.0,0.0,0.0,0.0,0.0,0.0,0.0,0.0,0.0,0.0,0.0,0.0,0.0,0.0,0.0,0.0,0.0,0.0,0.0,0.0,0.0,0.0,0.0,0.0,0.0,0.0,0.0,0.0,0.0,0.0,0.0,0.0,0.0,0.0,0.0,0.0,0.0,0.0,0.0,0.0,0.0,0.0,0.0,0.0,0.0,0.0,0.0,0.0,0.0,0.0,0.0,0.0,0.0,0.0,0.0,0.0,0.0,0.0,0.0,0.0,0.0,0.0,0.0,0.0,0.0,0.0,0.0,0.0,0.0,4.5954,4.6149,4.6241,4.6214,4.6131,4.592,0.0,0.0,0.0,0.0,0.0,0.0,0.0,0.0,0.0,0.0,0.0,0.0,0.0,0.0,0.0,0.0,0.0,0.0,0.0,0.0,0.0,0.0,0.0,0.0,0.0,0.0,0.0,0.0,0.0,0.0,0.0,0.0,0.0,0.0,0.0,0.0,0.0,0.0,0.0,0.0,0.0,0.0,0.0,0.0,0.0,0.0,0.0,0.0,0.0,0.0,0.0,0.0,0.0,0.0,0.0,0.0,0.0,0.0,0.0,0.0,0.0,0.0,0.0,0.0,0.0,0.0,0.0,0.0,0.0,0.0,0.0,0.0,0.0,0.0,0.0,0.0,0.0,0.0,0.0,0.0,0.0,0.0,0.0,0.0,0.0,0.0,0.0,0.0,0.0,0.0,0.0,0.0,0.0,0.0,0.0,0.0,0.0,0.0,0.0,0.0,0.0,0.0,0.0,0.0,0.0,0.0,0.0,0.0,4.5421,4.6424,4.6981,4.7076,4.7039,4.6682,0.0,0.0,0.0,0.0,0.0,0.0,0.0,0.0,0.0,0.0,0.0,0.0,0.0,0.0,0.0,0.0,0.0,0.0,0.0,0.0,0.0,0.0,0.0,0.0,0.0,0.0,0.0,0.0,0.0,0.0,0.0,0.0,0.0,0.0,0.0,0.0,0.0,0.0,0.0,0.0,0.0,0.0,0.0,0.0,0.0,0.0,0.0,0.0,0.0,0.0,0.0,0.0,0.0,0.0,0.0,0.0,0.0,0.0,0.0,0.0,0.0,0.0,0.0,0.0,0.0,0.0,0.0,0.0,0.0,0.0,0.0,0.0,0.0,0.0,0.0,0.0,0.0,0.0,0.0,0.0,0.0,0.0,0.0,0.0,0.0,0.0,0.0,0.0,0.0,0.0,0.0,0.0,0.0,0.0,0.0,0.0,0.0,0.0,0.0,0.0,0.0,0.0,0.0,0.0,0.0,0.0,0.0,0.0,0.0,4.7611,4.8721,4.9372,4.9461,4.8967,4.8573,0.0,0.0,0.0,0.0,0.0,0.0,0.0,0.0,0.0,0.0,0.0,0.0,0.0,0.0,0.0,0.0,0.0,0.0,0.0,0.0,0.0,0.0,0.0,0.0,0.0,0.0,0.0,0.0,0.0,0.0,0.0,0.0,0.0,0.0,0.0,0.0,0.0,0.0,0.0,0.0,0.0,0.0,0.0,0.0,0.0,0.0,0.0,0.0,0.0,0.0,0.0,0.0,0.0,0.0,0.0,0.0,0.0,0.0,0.0,0.0,0.0,0.0,0.0,0.0,0.0,0.0,0.0,0.0,0.0,0.0,0.0,0.0,0.0,0.0,0.0,0.0,0.0,0.0,0.0,0.0,0.0,0.0,0.0,0.0,0.0,0.0,0.0,0.0,0.0,0.0,0.0,0.0,0.0,0.0,0.0,0.0,0.0,0.0,0.0,0.0,0.0,0.0,0.0,0.0,0.0,0.0,0.0,0.0,0.0,4.9257,0.0,5.0602,5.0705,5.0278,5.0004,0.0,0.0,0.0,0.0,0.0,0.0,0.0,0.0,0.0,0.0,0.0,0.0,0.0,0.0,0.0,0.0,0.0,0.0,0.0,0.0,0.0,0.0,0.0,0.0,0.0,0.0,0.0,0.0,0.0,0.0,0.0,0.0,0.0,0.0,0.0,0.0,0.0,0.0,0.0,0.0,0.0,0.0,0.0,0.0,0.0,0.0,0.0,0.0,0.0,0.0,0.0,0.0,0.0,0.0,0.0,0.0,0.0,0.0,0.0,0.0,0.0,0.0,0.0,0.0,0.0,0.0,0.0,0.0,0.0,0.0,0.0,0.0,0.0,0.0,0.0,0.0,0.0,0.0,0.0,0.0,0.0,0.0,0.0,0.0,0.0,0.0,0.0,0.0,0.0,0.0,0.0,0.0,0.0,0.0,0.0,0.0,0.0,0.0,0.0,0.0,0.0,0.0,0.0,0.0,0.0,0.0,0.0,0.0,4.9625,5.0129,5.0416,5.0707,5.0675,5.0815,5.0839,0.0,0.0,0.0,0.0,0.0,0.0,0.0,0.0,0.0,0.0,0.0,0.0,0.0,0.0,0.0,0.0,0.0,0.0,0.0,0.0,0.0,0.0,0.0,0.0,0.0,0.0,0.0,0.0,0.0,0.0,0.0,0.0,0.0,0.0,0.0,0.0,0.0,0.0,0.0,0.0,0.0,0.0,0.0,0.0,0.0,0.0,0.0,0.0,0.0,0.0,0.0,0.0,0.0,0.0,0.0,0.0,0.0,0.0,0.0,0.0,0.0,0.0,0.0,0.0,0.0,0.0,0.0,0.0,0.0,0.0,0.0,0.0,0.0,0.0,0.0,0.0,0.0,0.0,0.0,0.0,0.0,0.0,0.0,0.0,0.0,0.0,0.0,0.0,0.0,0.0,0.0,0.0,0.0,0.0,0.0,0.0,0.0,0.0,0.0,0.0,0.0,0.0,0.0,0.0,0.0,0.0,0.0,0.0,0.0,5.1803,5.3047,5.3818,5.4015,5.302,5.2443,0.0,0.0,0.0,0.0,0.0,0.0,0.0,0.0,0.0,0.0,0.0,0.0,0.0,0.0,0.0,0.0,0.0,0.0,0.0,0.0,0.0,0.0,0.0,0.0,0.0,0.0,0.0,0.0,0.0,0.0,0.0,0.0,0.0,0.0,0.0,0.0,0.0,0.0,0.0,0.0,0.0,0.0,0.0,0.0,0.0,0.0,0.0,0.0,0.0,0.0,0.0,0.0,0.0,0.0,0.0,0.0,0.0,0.0,0.0,0.0,0.0,0.0,0.0,0.0,0.0,0.0,0.0,0.0,0.0,0.0,0.0,0.0,0.0,0.0,0.0,0.0,0.0,0.0,0.0,0.0,0.0,0.0,0.0,0.0,0.0,0.0,0.0,0.0,0.0,0.0,0.0,0.0,0.0,0.0,0.0,0.0,0.0,0.0,0.0,0.0,0.0,0.0,0.0,0.0,0.0,0.0,0.0,0.0,0.0,5.4821,5.5338,5.5754,5.5959,5.5038,5.4388,5.4058,0.0,0.0,0.0,0.0,0.0,0.0,0.0,0.0,0.0,0.0,0.0,0.0,0.0,0.0,0.0,0.0,0.0,0.0,0.0,0.0,0.0,0.0,0.0,0.0,0.0,0.0,0.0,0.0,0.0,0.0,0.0,0.0,0.0,0.0,0.0,0.0,0.0,0.0,0.0,0.0,0.0,0.0,0.0,0.0,0.0,0.0,0.0,0.0,0.0,0.0,0.0,0.0,0.0,0.0,0.0,0.0,0.0,0.0,0.0,0.0,0.0,0.0,0.0,0.0,0.0,0.0,0.0,0.0,0.0,0.0,0.0,0.0,0.0,0.0,0.0,0.0,0.0,0.0,0.0,0.0,0.0,0.0,0.0,0.0,0.0,0.0,0.0,0.0,0.0,0.0,0.0,0.0,0.0,0.0,0.0,0.0,0.0,0.0,0.0,0.0,0.0,0.0,0.0,0.0,0.0,0.0,0.0,0.0,5.8807,5.7498,5.6863,5.6845,5.6912,5.6565,0.0,0.0,0.0,0.0,0.0,0.0,0.0,0.0,0.0,0.0,0.0,0.0,0.0,0.0,0.0,0.0,0.0,0.0,0.0,0.0,0.0,0.0,0.0,0.0,0.0,0.0,0.0,0.0,0.0,0.0,0.0,0.0,0.0,0.0,0.0,0.0,0.0,0.0,0.0,0.0,0.0,0.0,0.0,0.0,0.0,0.0,0.0,0.0,0.0,0.0,0.0,0.0,0.0,0.0,0.0,0.0,0.0,0.0,0.0,0.0,0.0,0.0,0.0,0.0,0.0,0.0,0.0,0.0,0.0,0.0,0.0,0.0,0.0,0.0,0.0,0.0,0.0,0.0,0.0,0.0,0.0,0.0,0.0,0.0,0.0,0.0,0.0,0.0,0.0,0.0,0.0,0.0,0.0,0.0,0.0,0.0,0.0,0.0,0.0,0.0,0.0,0.0,0.0,0.0,0.0,0.0,0.0,0.0,0.0,6.136,6.1631,6.0979,5.9442,5.8854,5.8205,0.0,0.0,0.0,0.0,0.0,0.0,0.0,0.0,0.0,0.0,0.0,0.0,0.0,0.0,0.0,0.0,0.0,0.0,0.0,0.0,0.0,0.0,0.0,0.0,0.0,0.0,0.0,0.0,0.0,0.0,0.0,0.0,0.0,0.0,0.0,0.0,0.0,0.0,0.0,0.0,0.0,0.0,0.0,0.0,0.0,0.0,0.0,0.0,0.0,0.0,0.0,0.0,0.0,0.0,0.0,0.0,0.0,0.0,0.0,0.0,0.0,0.0,0.0,0.0,0.0,0.0,0.0,0.0,0.0,0.0,0.0,0.0,0.0,0.0,0.0,0.0,0.0,0.0,0.0,0.0,0.0,0.0,0.0,0.0,0.0,0.0,0.0,0.0,0.0,0.0,0.0,0.0,0.0,0.0,0.0,0.0,0.0,0.0,0.0,0.0,0.0,0.0,0.0,0.0,0.0,0.0,0.0,0.0,6.2463,6.3798,6.4635,6.4333,6.2888,6.1435,6.0334,0.0,0.0,0.0,0.0,0.0,0.0,0.0,0.0,0.0,0.0,0.0,0.0,0.0,0.0,0.0,0.0,0.0,0.0,0.0,0.0,0.0,0.0,0.0,0.0,0.0,0.0,0.0,0.0,0.0,0.0,0.0,0.0,0.0,0.0,0.0,0.0,0.0,0.0,0.0,0.0,0.0,0.0,0.0,0.0,0.0,0.0,0.0,0.0,0.0,0.0,0.0,0.0,0.0,0.0,0.0,0.0,0.0,0.0,0.0,0.0,0.0,0.0,0.0,0.0,0.0,0.0,0.0,0.0,0.0,0.0,0.0,0.0,0.0,0.0,0.0,0.0,0.0,0.0,0.0,0.0,0.0,0.0,0.0,0.0,0.0,0.0,0.0,0.0,0.0,0.0,0.0,0.0,0.0,0.0,0.0,0.0,0.0,0.0,0.0,0.0,0.0,0.0,0.0,0.0,0.0,0.0,0.0,0.0,6.457,6.6118,6.6859,6.7089,6.6674,6.4427,6.2707,0.0,0.0,0.0,0.0,0.0,0.0,0.0,0.0,0.0,0.0,0.0,0.0,0.0,0.0,0.0,0.0,0.0,0.0,0.0,0.0,0.0,0.0,0.0,0.0,0.0,0.0,0.0,0.0,0.0,0.0,0.0,0.0,0.0,0.0,0.0,0.0,0.0,0.0,0.0,0.0,0.0,0.0,0.0,0.0,0.0,0.0,0.0,0.0,0.0,0.0,0.0,0.0,0.0,0.0,0.0,0.0,0.0,0.0,0.0,0.0,0.0,0.0,0.0,0.0,0.0,0.0,0.0,0.0,0.0,0.0,0.0,0.0,0.0,0.0,0.0,0.0,0.0,0.0,0.0,0.0,0.0,0.0,0.0,0.0,0.0,0.0,0.0,0.0,0.0,0.0,0.0,0.0,0.0,0.0,0.0,0.0,0.0,0.0,0.0,0.0,0.0,0.0,0.0,0.0,0.0,0.0,0.0,0.0,6.7005,6.8589,6.8785,6.9223,6.9966,6.7044,6.4548,0.0,0.0,0.0,0.0,0.0,0.0,0.0,0.0,0.0,0.0,0.0,0.0,0.0,0.0,0.0,0.0,0.0,0.0,0.0,0.0,0.0,0.0,0.0,0.0,0.0,0.0,0.0,0.0,0.0,0.0,0.0,0.0,0.0,0.0,0.0,0.0,0.0,0.0,0.0,0.0,0.0,0.0,0.0,0.0,0.0,0.0,0.0,0.0,5.7627,0.0,0.0,0.0,0.0,0.0,0.0,0.0,0.0,0.0,0.0,0.0,0.0,0.0,0.0,0.0,0.0,0.0,0.0,0.0,0.0,0.0,0.0,0.0,0.0,0.0,0.0,0.0,0.0,0.0,0.0,0.0,0.0,0.0,0.0,0.0,0.0,0.0,0.0,0.0,0.0,0.0,0.0,0.0,0.0,0.0,0.0,0.0,0.0,0.0,0.0,0.0,0.0,0.0,0.0,0.0,0.0,0.0,0.0,0.0,6.8924,7.035,7.1133,7.1505,7.1384,6.9449,6.7186,0.0,0.0,0.0,0.0,0.0,0.0,0.0,0.0,0.0,0.0,0.0,0.0,0.0,0.0,0.0,0.0,0.0,0.0,0.0,0.0,0.0,0.0,0.0,0.0,0.0,0.0,0.0,0.0,0.0,0.0,0.0,0.0,0.0,0.0,0.0,0.0,0.0,0.0,0.0,0.0,0.0,0.0,0.0,0.0,0.0,0.0,0.0,0.0,0.0,0.0,0.0,0.0,0.0,0.0,0.0,0.0,0.0,0.0,0.0,0.0,0.0,0.0,0.0,0.0,0.0,0.0,0.0,0.0,0.0,0.0,0.0,0.0,0.0,0.0,0.0,0.0,0.0,0.0,0.0,0.0,0.0,0.0,0.0,0.0,0.0,0.0,0.0,0.0,0.0,0.0,0.0,0.0,0.0,0.0,0.0,0.0,0.0,0.0,0.0,0.0,0.0,0.0,0.0,0.0,0.0,0.0,0.0,6.875,7.0568,7.1872,7.3181,7.3414,7.2395,7.1484,6.9697,6.6976,0.0,0.0,0.0,0.0,0.0,0.0,0.0,0.0,0.0,0.0,0.0,0.0,0.0,0.0,0.0,0.0,0.0,0.0,0.0,0.0,0.0,0.0,0.0,0.0,0.0,0.0,0.0,0.0,0.0,0.0,0.0,0.0,0.0,0.0,0.0,0.0,0.0,0.0,5.5383,5.6419,0.0,0.0,0.0,0.0,0.0,0.0,0.0,0.0,5.8704,0.0,0.0,0.0,0.0,0.0,0.0,0.0,0.0,0.0,0.0,0.0,0.0,0.0,0.0,0.0,0.0,0.0,0.0,0.0,0.0,0.0,0.0,0.0,0.0,0.0,0.0,0.0,0.0,0.0,0.0,0.0,0.0,0.0,0.0,0.0,0.0,0.0,0.0,0.0,0.0,0.0,0.0,0.0,0.0,0.0,0.0,0.0,0.0,0.0,0.0,0.0,0.0,0.0,0.0,0.0,0.0,6.7998,7.0368,7.2242,7.3486,7.376,7.3922,7.3962,7.2592,7.0756,6.8577,0.0,0.0,0.0,0.0,0.0,0.0,0.0,0.0,0.0,0.0,0.0,0.0,0.0,0.0,0.0,0.0,0.0,0.0,0.0,0.0,0.0,0.0,0.0,0.0,0.0,0.0,0.0,0.0,0.0,0.0,0.0,0.0,0.0,0.0,0.0,0.0,0.0,0.0,0.0,5.7289,5.7961,0.0,0.0,0.0,0.0,0.0,0.0,0.0,0.0,6.0396,0.0,0.0,0.0,0.0,0.0,0.0,0.0,0.0,0.0,0.0,0.0,0.0,0.0,0.0,0.0,0.0,0.0,0.0,0.0,0.0,0.0,0.0,0.0,0.0,0.0,0.0,0.0,0.0,0.0,0.0,0.0,0.0,0.0,0.0,0.0,0.0,0.0,0.0,0.0,0.0,0.0,0.0,0.0,0.0,0.0,0.0,0.0,0.0,0.0,0.0,0.0,0.0,0.0,0.0,0.0,6.9163,7.1434,7.3307,7.4647,7.5067,7.5217,7.4983,7.3581,7.1955,0.0,0.0,0.0,0.0,0.0,0.0,0.0,0.0,0.0,0.0,0.0,0.0,0.0,0.0,0.0,0.0,0.0,0.0,0.0,0.0,0.0,0.0,0.0,0.0,0.0,0.0,0.0,0.0,0.0,0.0,0.0,0.0,0.0,0.0,0.0,0.0,0.0,0.0,0.0,0.0,5.8125,5.8947,5.9533,0.0,0.0,0.0,0.0,0.0,0.0,6.2083,6.2089,0.0,0.0,0.0,0.0,0.0,0.0,0.0,0.0,0.0,0.0,0.0,0.0,0.0,0.0,0.0,0.0,0.0,0.0,0.0,0.0,0.0,0.0,0.0,0.0,0.0,0.0,0.0,0.0,0.0,0.0,0.0,0.0,0.0,0.0,0.0,0.0,0.0,0.0,0.0,0.0,0.0,0.0,0.0,0.0,0.0,0.0,0.0,0.0,0.0,0.0,0.0,0.0,0.0,0.0,0.0,7.0118,7.2348,7.4202,7.5625,7.6299,7.6401,7.5921,7.4528,7.2995,0.0,0.0,0.0,0.0,0.0,0.0,0.0,0.0,0.0,0.0,0.0,0.0,0.0,0.0,0.0,0.0,0.0,0.0,0.0,0.0,0.0,0.0,0.0,0.0,0.0,0.0,0.0,0.0,0.0,0.0,0.0,0.0,0.0,0.0,0.0,0.0,0.0,0.0,0.0,0.0,0.0,6.0181,6.1148,6.1903,0.0,0.0,0.0,0.0,6.3314,6.3314,0.0,0.0,0.0,0.0,0.0,0.0,0.0,0.0,0.0,0.0,0.0,0.0,0.0,0.0,0.0,0.0,0.0,0.0,0.0,0.0,0.0,0.0,0.0,0.0,0.0,0.0,0.0,0.0,0.0,0.0,0.0,0.0,0.0,0.0,0.0,0.0,0.0,0.0,0.0,0.0,0.0,0.0,0.0,0.0,0.0,0.0,0.0,0.0,0.0,0.0,0.0,0.0,0.0,0.0,0.0,0.0,7.0945,7.3309,7.5228,7.6567,7.6733,7.6813,7.6915,7.5409,7.3545,0.0,0.0,0.0,0.0,0.0,0.0,0.0,0.0,0.0,0.0,0.0,0.0,0.0,0.0,0.0,0.0,0.0,0.0,0.0,0.0,0.0,0.0,0.0,0.0,0.0,0.0,0.0,0.0,0.0,0.0,0.0,0.0,0.0,0.0,0.0,0.0,0.0,0.0,0.0,0.0,0.0,6.1947,6.2872,6.3083,6.3198,0.0,0.0,6.3314,6.3314,6.3314,0.0,0.0,0.0,0.0,0.0,0.0,0.0,0.0,0.0,0.0,0.0,0.0,0.0,0.0,0.0,0.0,0.0,0.0,0.0,0.0,0.0,0.0,0.0,0.0,0.0,0.0,0.0,0.0,0.0,0.0,0.0,0.0,0.0,0.0,0.0,0.0,0.0,0.0,0.0,0.0,0.0,0.0,0.0,0.0,0.0,0.0,0.0,0.0,0.0,0.0,0.0,0.0,0.0,0.0,0.0,6.9531,7.1881,7.4174,7.6147,7.7566,7.7639,7.7671,7.7788,7.5867,7.4147,0.0,0.0,0.0,0.0,0.0,0.0,0.0,0.0,0.0,0.0,0.0,0.0,0.0,0.0,0.0,0.0,0.0,0.0,0.0,0.0,0.0,0.0,0.0,0.0,0.0,0.0,0.0,0.0,0.0,0.0,0.0,0.0,0.0,0.0,0.0,0.0,0.0,0.0,0.0,0.0,0.0,0.0,6.4648,6.5166,0.0,0.0,0.0,6.6199,6.6199,0.0,0.0,0.0,0.0,0.0,0.0,0.0,0.0,0.0,0.0,0.0,0.0,0.0,0.0,0.0,0.0,0.0,0.0,0.0,0.0,0.0,0.0,0.0,0.0,0.0,0.0,0.0,0.0,0.0,0.0,0.0,0.0,0.0,0.0,0.0,0.0,0.0,0.0,0.0,0.0,0.0,0.0,0.0,0.0,0.0,0.0,0.0,0.0,0.0,0.0,0.0,0.0,0.0,0.0,0.0,0.0,0.0,7.2789,7.5092,7.7045,7.862,7.8656,7.8693,7.8656,7.6604,0.0,0.0,0.0,0.0,0.0,0.0,0.0,0.0,0.0,0.0,0.0,0.0,0.0,0.0,0.0,0.0,0.0,0.0,0.0,0.0,0.0,0.0,0.0,0.0,0.0,0.0,0.0,5.4408,0.0,0.0,0.0,0.0,0.0,0.0,0.0,0.0,0.0,0.0,0.0,0.0,0.0,0.0,6.5191,6.6346,6.7205,6.7975,0.0,0.0,6.8737,6.8699,6.8545,6.816,0.0,0.0,0.0,0.0,0.0,0.0,0.0,0.0,0.0,0.0,0.0,0.0,0.0,0.0,0.0,0.0,0.0,0.0,0.0,0.0,0.0,0.0,0.0,0.0,0.0,0.0,0.0,0.0,0.0,0.0,0.0,0.0,0.0,0.0,0.0,0.0,0.0,0.0,0.0,0.0,0.0,0.0,0.0,0.0,0.0,0.0,0.0,0.0,0.0,0.0,0.0,0.0,0.0,0.0,0.0,7.3611,7.6004,7.8007,7.9617,7.969,7.9727,7.969,7.8023,7.6041,0.0,0.0,0.0,0.0,0.0,0.0,0.0,0.0,0.0,0.0,0.0,0.0,0.0,0.0,0.0,0.0,0.0,0.0,0.0,0.0,0.0,0.0,0.0,0.0,0.0,0.0,0.0,0.0,0.0,0.0,0.0,0.0,0.0,0.0,0.0,0.0,0.0,0.0,0.0,0.0,0.0,6.6326,6.8,6.8968,6.9552,0.0,0.0,6.9629,6.9629,6.893,6.8391,6.8314,0.0,0.0,0.0,0.0,0.0,0.0,0.0,0.0,0.0,0.0,0.0,0.0,0.0,0.0,0.0,0.0,0.0,0.0,0.0,0.0,0.0,0.0,0.0,0.0,0.0,0.0,0.0,0.0,0.0,0.0,0.0,0.0,0.0,0.0,0.0,0.0,0.0,0.0,0.0,0.0,0.0,0.0,0.0,0.0,0.0,0.0,0.0,0.0,0.0,0.0,0.0,0.0,0.0,7.2004,7.4404,7.6864,7.8883,8.0461,8.0534,8.0314,7.9816,7.817,7.6408,0.0,0.0,0.0,0.0,0.0,0.0,0.0,0.0,0.0,0.0,0.0,0.0,0.0,0.0,0.0,0.0,0.0,0.0,0.0,0.0,0.0,0.0,0.0,0.0,0.0,0.0,0.0,0.0,5.8077,5.9303,6.0463,0.0,0.0,0.0,0.0,0.0,0.0,0.0,0.0,0.0,0.0,6.917,6.9846,7.1129,0.0,0.0,7.2045,7.2045,7.2045,7.1776,7.1353,7.0821,7.0785,0.0,0.0,0.0,0.0,0.0,0.0,0.0,0.0,0.0,0.0,0.0,0.0,0.0,0.0,0.0,0.0,0.0,0.0,0.0,0.0,0.0,0.0,0.0,0.0,0.0,0.0,0.0,0.0,0.0,0.0,0.0,0.0,0.0,0.0,0.0,0.0,0.0,0.0,0.0,0.0,0.0,0.0,0.0,0.0,0.0,0.0,0.0,0.0,0.0,0.0,0.0,0.0,7.3215,7.5601,7.7818,7.9617,8.0975,8.1232,8.0975,8.0183,7.8772,7.7289,0.0,0.0,0.0,0.0,0.0,0.0,0.0,0.0,0.0,0.0,0.0,0.0,0.0,0.0,0.0,0.0,0.0,0.0,0.0,0.0,0.0,0.0,0.0,0.0,0.0,0.0,0.0,0.0,6.0005,6.15,6.3084,0.0,0.0,0.0,0.0,0.0,0.0,0.0,0.0,0.0,0.0,7.142,7.1968,7.3343,7.4389,7.4627,7.4686,7.47,7.47,7.4469,7.4084,7.3475,0.0,0.0,0.0,0.0,0.0,0.0,0.0,0.0,0.0,0.0,0.0,0.0,0.0,0.0,0.0,0.0,0.0,0.0,0.0,0.0,0.0,0.0,0.0,0.0,0.0,0.0,0.0,0.0,0.0,0.0,5.9196,0.0,0.0,0.0,0.0,0.0,0.0,0.0,0.0,0.0,0.0,0.0,0.0,0.0,0.0,0.0,0.0,0.0,0.0,0.0,0.0,0.0,0.0,7.4845,7.7215,7.8919,8.022,8.1048,8.1782,8.1819,8.1012,8.0167,7.8956,7.7252,0.0,0.0,0.0,0.0,0.0,0.0,0.0,0.0,0.0,0.0,0.0,0.0,0.0,0.0,0.0,0.0,0.0,0.0,0.0,0.0,0.0,0.0,0.0,0.0,0.0,0.0,6.2393,6.2681,6.3234,0.0,0.0,0.0,0.0,0.0,0.0,0.0,0.0,0.0,0.0,7.1629,7.2783,7.4361,7.5464,7.6328,7.7137,7.7354,7.7401,7.7363,7.6707,7.6166,0.0,0.0,0.0,0.0,0.0,0.0,0.0,0.0,0.0,0.0,0.0,0.0,0.0,0.0,0.0,0.0,0.0,0.0,0.0,0.0,0.0,0.0,0.0,0.0,0.0,0.0,0.0,6.1141,6.1215,0.0,0.0,0.0,0.0,0.0,0.0,0.0,0.0,0.0,0.0,0.0,6.8568,7.0146,0.0,0.0,0.0,0.0,0.0,0.0,0.0,0.0,0.0,0.0,0.0,0.0,7.624,7.8185,8.0314,8.1782,8.2574,8.3398,8.3141,8.1856,8.1542,8.0094,7.7399,0.0,0.0,0.0,0.0,0.0,0.0,0.0,0.0,0.0,0.0,0.0,0.0,0.0,0.0,0.0,0.0,0.0,0.0,0.0,0.0,0.0,0.0,0.0,0.0,0.0,6.41,0.0,0.0,0.0,0.0,0.0,0.0,0.0,0.0,0.0,0.0,0.0,7.1339,7.2469,7.3864,7.5215,7.6325,7.7281,7.7991,0.0,0.0,0.0,0.0,0.0,0.0,0.0,0.0,0.0,0.0,0.0,0.0,0.0,0.0,8.1437,7.9109,7.9383,8.0015,8.0015,0.0,0.0,0.0,0.0,0.0,0.0,0.0,0.0,0.0,0.0,0.0,0.0,0.0,0.0,0.0,0.0,6.453,0.0,0.0,0.0,0.0,0.0,0.0,0.0,0.0,7.1138,7.1908,7.2239,7.356,7.4169,0.0,7.4169,7.3068,0.0,0.0,0.0,0.0,0.0,0.0,0.0,0.0,7.7598,7.98,8.1395,8.2737,8.3748,8.4352,8.4095,8.3067,8.248,8.0681,7.7399,7.6358,7.511,0.0,0.0,0.0,0.0,0.0,0.0,0.0,0.0,0.0,0.0,0.0,0.0,0.0,0.0,0.0,0.0,0.0,0.0,0.0,0.0,0.0,0.0,0.0,6.6495,0.0,0.0,0.0,0.0,0.0,0.0,0.0,0.0,0.0,7.1245,7.2476,7.3836,7.4742,7.6339,7.7761,7.8637,0.0,0.0,0.0,0.0,0.0,0.0,0.0,8.2123,8.2123,8.2854,8.3474,8.3478,8.4282,8.5009,8.5348,0.0,0.0,8.2992,8.3058,8.3765,8.4076,8.4638,8.523,8.5814,8.6871,8.7918,0.0,0.0,0.0,0.0,0.0,0.0,0.0,0.0,6.7847,6.7847,0.0,6.7847,0.0,0.0,0.0,0.0,0.0,7.0293,0.0,0.0,7.4661,7.5491,7.6276,7.7069,7.7436,7.7436,7.7436,7.7436,7.7215,7.4294,0.0,0.0,0.0,0.0,0.0,0.0,7.9014,8.2039,8.2296,8.3067,8.4572,8.4682,8.4682,8.4535,8.303,8.0718,7.7671,7.7567,7.6884,7.5381,7.3924,0.0,0.0,0.0,0.0,0.0,0.0,0.0,0.0,0.0,0.0,0.0,0.0,0.0,0.0,0.0,0.0,0.0,0.0,0.0,0.0,6.8991,0.0,0.0,0.0,0.0,0.0,0.0,0.0,0.0,0.0,0.0,7.4284,7.5214,7.6474,7.7446,0.0,0.0,0.0,0.0,8.3153,8.3953,8.4239,8.4358,8.4358,8.518,8.5802,8.5797,0.0,0.0,8.7253,8.8013,8.8936,8.9787,9.0687,9.021,8.6915,8.6912,8.7615,8.8436,8.8659,8.9303,9.0824,9.1278,9.1881,7.0895,0.0,0.0,0.0,0.0,6.9839,7.0389,7.1138,7.1138,7.1138,7.1138,7.1138,0.0,0.0,0.0,0.0,0.0,0.0,7.5395,7.7194,7.8002,7.8809,7.9617,8.0424,8.0791,8.0791,8.0791,8.0791,8.0718,7.9286,7.7693,7.5968,0.0,0.0,0.0,0.0,8.1269,8.2239,8.3891,8.4993,8.5453,8.604,8.5747,8.4609,8.303,8.1553,8.0136,7.9041,7.8116,7.745,7.6393,0.0,0.0,0.0,0.0,0.0,0.0,0.0,0.0,0.0,0.0,0.0,0.0,0.0,0.0,0.0,0.0,0.0,0.0,0.0,7.0882,7.2299,7.3188,0.0,0.0,0.0,0.0,0.0,0.0,0.0,0.0,0.0,8.0691,7.9574,7.9372,0.0,0.0,8.2522,8.3966,8.4523,8.5092,8.594,0.0,0.0,0.0,8.7619,8.864,8.864,8.9808,9.0797,9.0846,9.2123,9.3206,9.3476,9.4764,9.5448,9.4458,9.2405,9.1454,9.2081,9.2774,9.354,9.4635,9.5388,9.5982,7.6961,7.4652,7.3127,7.2753,7.3215,7.3546,7.3949,7.4426,7.439,7.439,7.439,7.439,7.439,7.4426,7.4771,0.0,0.0,0.0,7.9103,8.1012,8.1505,8.2296,8.3344,8.3875,8.4095,8.4095,8.4095,8.3948,8.3634,8.3141,8.2003,8.0225,0.0,0.0,8.0057,8.1782,8.2994,8.3654,8.5066,8.5947,8.6261,8.6738,8.6405,8.5224,8.3901,8.2785,8.1818,8.0649,7.9652,7.888,7.816,7.7352,0.0,0.0,0.0,0.0,0.0,0.0,0.0,0.0,0.0,0.0,0.0,6.9652,7.0411,0.0,0.0,0.0,7.2502,7.3022,7.3603,7.4909,0.0,0.0,0.0,0.0,0.0,0.0,0.0,8.0538,8.2154,8.377,8.514,8.4334,8.3743,8.4137,8.4572,8.5247,8.6278,0.0,8.791,8.841,8.8887,8.9207,8.9207,9.0434,9.161,9.2287,9.346,9.4404,9.4547,9.5658,9.6531,9.6784,9.8052,9.9274,9.9274,9.7742,9.6483,9.64,9.6763,9.7517,9.8729,9.9397,9.983,8.2553,8.226,7.8516,7.6827,7.6644,7.7362,7.7693,7.7693,7.7693,7.7693,7.7693,7.7693,7.7729,7.7839,7.8699,0.0,8.1379,8.1452,8.27,8.4866,8.4903,8.571,8.7161,8.7161,8.7198,8.7215,8.7161,8.6811,8.6114,8.6004,8.56,8.4866,8.2663,8.1856,8.2406,8.3214,8.4335,8.5857,8.5947,8.6371,8.7088,8.7105,8.6787,8.6126,8.5296,8.4214,8.2906,8.223,8.1325,8.003,7.9362,7.8815,7.8365,0.0,0.0,0.0,0.0,0.0,0.0,0.0,0.0,0.0,0.0,0.0,0.0,0.0,0.0,0.0,7.5855,0.0,7.6399,7.7176,0.0,0.0,0.0,8.0554,8.1408,8.2987,8.405,8.4103,0.0,0.0,8.8164,0.0,8.899,8.7455,8.7865,8.8384,8.8522,8.9988,9.1166,9.133,9.2129,9.2738,9.2825,9.3647,9.4772,9.6234,9.7334,9.7884,9.8014,9.8838,9.9351,9.9476,10.0807,10.1902,10.1902,10.2337,10.2651,10.1161,10.0691,10.1082,10.2528,10.3036,10.3271,8.5857,8.5766,8.4829,8.2994,8.0791,8.0975,8.1048,8.1048,8.1048,8.1048,8.1048,8.1048,8.1379,8.1986,8.281,8.3728,8.4682,8.5306,8.6224,8.7325,8.7362,8.7876,8.8812,8.8812,8.8812,8.8849,8.8812,8.8739,8.8519,8.7912,8.7509,8.7325,8.6775,8.5673,8.4132,8.4829,8.571,8.6701,8.7325,8.7729,8.7912,8.8051,8.7475,8.6126,8.5487,8.4784,8.4004,8.2848,8.2213,8.2158,8.098,8.0075,7.9589,7.8814,0.0,0.0,0.0,0.0,0.0,0.0,0.0,0.0,0.0,7.5145,7.5972,0.0,7.7024,0.0,7.9354,7.99,7.99,8.0631,0.0,0.0,8.317,8.404,8.4959,8.5984,8.6902,8.7654,8.8738,9.0073,9.1683,9.2154,9.2521,9.2705,9.1845,9.1437,9.2116,9.262,9.352,9.4718,9.5239,9.5672,9.6351,9.719,9.8099,9.9196,10.0095,10.0643,10.0686,10.1942,10.2961,10.3002,10.3826,10.4491,10.4531,10.4765,10.5273,10.578,10.4647,10.3593,10.4686,10.5351,10.5859,8.9124,8.9124,8.916,8.8096,8.6371,8.4939,8.4315,8.4352,8.4352,8.4352,8.4352,8.4352,8.4792,8.5563,8.6004,8.6811,8.7912,8.839,8.9271,9.0335,9.0372,9.0812,9.1565,9.1583,9.1565,9.1583,9.1565,9.1198,9.0482,9.0041,8.9454,8.8739,8.872,8.8059,8.6831,8.7178,8.7619,8.8078,8.8482,8.8792,8.886,8.8633,8.8196,8.7505,8.6497,8.5743,8.5237,8.4264,8.3535,8.3199,8.2505,8.1903,8.134,8.0963,8.045,0.0,0.0,0.0,0.0,0.0,0.0,0.0,0.0,0.0,0.0,0.0,8.0107,8.1875,8.28,8.3324,8.3324,8.3747,8.4478,8.5717,8.6327,8.7138,8.838,8.9378,9.0141,9.0738,9.1636,9.278,9.4191,9.4848,9.5533,9.6402,9.6111,9.5508,9.4938,9.5429,9.6383,9.7344,9.7879,9.8448,9.9319,10.0183,10.1047,10.1909,10.2769,10.3355,10.3355,10.4099,10.4764,10.4803,10.5468,10.6172,10.6523,10.6953,10.7617,10.8515,10.8047,10.7344,10.7695,10.8125,10.8437,9.2097,9.2097,9.2134,9.2134,9.1877,8.9124,8.7822,8.7619,8.7619,8.7601,8.7619,8.7619,8.8042,8.883,8.883,8.9674,9.1069,9.1069,9.1877,9.3235,9.3272,9.3639,9.4299,9.4299,9.4299,9.4299,9.4299,9.3529,9.2134,9.217,9.1473,9.006,9.0024,8.9987,8.9877,8.9877,8.9767,8.9546,8.9674,8.9781,8.9863,8.9231,8.9041,8.922,8.7842,8.6892,8.6509,8.6008,8.5172,8.4076,8.4149,8.4043,8.3563,8.3552,8.3261,0.0,8.2582,0.0,0.0,0.0,0.0,0.0,0.0,0.0,0.0,8.2437,8.3632,8.5247,8.6124,8.6632,8.6748,8.6756,8.7418,8.9004,8.9357,9.0078,9.1652,9.2812,9.3538,9.3675,9.4478,9.5412,9.642,9.726,9.8084,9.878,9.951,9.9302,9.7802,9.8211,9.8977,9.9268,10.0178,10.1085,10.1949,10.2731,10.3435,10.4219,10.4961,10.5625,10.5547,10.5703,10.5898,10.6054,10.664,10.7344,10.8164,10.8945,10.9687,11.0508,11.0547,11.0468,11.039,11.0508,11.0742,9.3822,9.3822,9.3822,9.3822,9.3786,9.3161,9.217,9.0977,9.0922,9.0886,9.0886,9.0886,9.1363,9.217,9.217,9.2684,9.3602,9.3602,9.3786,9.4079,9.4079,9.4153,9.4299,9.4299,9.4299,9.4299,9.4299,9.4153,9.3822,9.3841,9.3675,9.3382,9.3382,9.3051,9.2409,0.0,0.0,0.0,9.1176,9.1283,9.071,9.0953,9.0513,8.9363,8.8824,0.0,8.7612,8.7173,8.698,8.6975,8.6525,0.0,0.0,0.0,0.0,0.0,0.0,0.0,0.0,0.0,0.0,0.0,8.6885,8.6462,8.5261,8.5931,8.6863,8.791,8.8701,8.947,9.0171,9.0287,9.0714,9.1754,9.2569,9.3454,9.4589,9.5557,9.6494,9.7357,9.7681,9.8184,9.9011,9.9445,9.9668,9.9992,10.0688,10.1336,10.1585,10.0685,10.0335,10.1047,10.238,10.371,10.4648,10.4844,10.4961,10.5312,10.5937,10.6445,10.6562,10.7109,10.7812,10.8359,10.8711,10.9062,10.9922,11.0234,11.0625,11.1484,11.164,11.1445,11.0781,11.1172,11.164,9.6685,0.0,9.6685,9.6685,0.0,9.6245,9.564,9.4795,9.3529,9.3015,9.3015,9.3051,9.3272,9.3675,9.3675,9.4116,9.4887,9.4887,9.5327,9.6061,9.6061,9.6339,9.6801,9.6838,9.6637,9.6363,9.6381,9.5921,9.5092,9.5055,9.4815,9.4299,9.4299,9.4079,9.3712,9.3805,9.3014,9.136,9.1817,9.2012,9.1902,9.1779,9.1477,9.0998,0.0,0.0,0.0,0.0,0.0,0.0,0.0,0.0,0.0,0.0,0.0,8.7333,8.7718,8.7927,8.8009,8.8393,8.9017,8.9863,9.1103,9.0911,8.8786,8.9402,9.0094,9.0565,9.1672,9.2613,9.3089,9.3564,9.4202,9.5103,9.5694,9.639,9.7317,9.7943,9.8527,9.9062,9.9249,9.9659,10.0574,10.0738,10.1174,10.1992,10.2517,10.3113,10.3822,10.3041,10.2572,10.3397,10.4179,10.5117,10.5898,10.6093,10.6289,10.6679,10.707,10.75,10.789,10.832,10.8906,10.9726,10.9922,11.0234,11.1015,11.1211,11.1523,11.2304,11.2539,11.2422,11.1953,11.2226,11.2539,9.9088,9.9088,9.9088,9.9088,9.9035,9.8413,9.8195,9.8049,0.0,0.0,0.0,9.485,9.4942,9.4923,9.5108,9.5567,9.6192,9.623,9.6947,9.8196,9.8196,9.866,9.9421,9.944,9.9203,9.8725,9.8725,9.795,9.6511,9.6345,9.5866,9.5091,9.4889,9.4742,9.465,9.4669,9.4022,9.2767,9.2693,9.292,9.3306,9.2672,9.2521,9.2926,9.2349,9.1491,9.0418,9.0631,9.0224,8.908,8.9247,8.9424,8.9403,8.9521,8.9603,8.9603,9.021,9.0586,9.0586,9.1402,9.2326,9.3326,9.4634,9.4441,9.2056,9.2672,9.321,9.3364,9.469,9.5544,9.5777,9.6446,9.7234,9.8075,9.8577,9.9165,9.9934,10.045,10.0799,10.0824,10.1038,10.1237,10.2051,10.2244,10.2658,10.3968,10.429,10.4724,10.531,10.4841,10.4569,10.5351,10.5625,10.5976,10.6719,10.6953,10.7265,10.8008,10.8203,10.8554,10.9258,10.9531,10.9883,11.0664,11.0859,11.1211,11.1914,11.2148,11.2383,11.3047,11.3203,11.3242,11.3398,11.3437,11.3437,9.9125,9.9088,9.9088,9.9088,9.9108,9.9156,9.9292,9.9277,9.7242,9.6355,9.6392,9.7089,9.7383,9.7439,9.831,9.8755,9.8865,9.9055,9.9241,0.0,9.9463,9.9518,9.9648,9.9648,9.963,9.9538,9.9519,9.9427,9.9113,9.8448,9.8042,9.7802,9.7211,9.6547,9.5846,9.5286,9.4998,9.4947,9.4947,9.498,9.5028,9.485,9.4444,9.3925,9.3571,9.3049,9.2478,9.2646,9.2755,9.2805,9.2852,9.2918,9.2962,9.2941,9.2979,9.2979,9.3095,9.3172,9.3172,9.398,9.5134,9.6634,9.7019,9.6365,9.4681,9.5249,9.6057,9.6711,9.7102,9.7618,9.8261,9.8698,9.9027,9.9313,10.0648,10.1704,10.1995,10.3272,10.4105,10.419,10.4561,10.4528,10.4547,10.4661,10.4717,10.5151,10.535,10.5625,10.6172,10.582,10.5703,10.6328,10.6523,10.6914,10.7617,10.7812,10.8242,10.8984,10.9101,10.9414,11.0273,11.039,11.0742,11.1562,11.1718,11.2031,11.2773,11.3008,11.3047,11.3203,11.3242,11.3476,11.4062,11.4297,11.4375,10.1457,10.109,10.1053,10.0856,10.0534,10.0421,10.0185,9.9816,9.9021,9.8522,9.8389,9.8721,9.8868,9.8905,9.9368,9.9554,9.9554,9.976,10.013,10.05,10.0611,10.0962,10.1461,10.1498,10.133,10.1029,10.0992,10.0715,10.0198,9.9809,9.9588,9.9443,9.8647,9.807,9.7805,9.716,9.6936,9.7118,9.6178,9.5779,9.5918,9.6043,9.6017,9.5839,9.5882,9.5632,9.5035,9.4805,9.4578,9.4254,9.432,9.4366,9.4403,9.4826,9.5095,9.5134,9.5518,9.5749,9.5749,9.6557,9.7365,9.8134,9.8634,9.8788,9.8442,9.7942,9.7845,9.8247,9.8726,9.947,10.0436,10.1061,10.1669,10.2299,10.3196,10.376,10.3987,10.4545,10.5169,10.5308,10.5359,10.539,10.5407,10.542,10.5622,10.6014,10.6484,10.6992,10.7344,10.75,10.75,10.7461,10.7812,10.8242,10.8672,10.914,10.9531,10.9961,11.0,11.0351,11.1093,11.1328,11.1679,11.2383,11.2578,11.2734,11.3164,11.3203,11.3203,11.3242,11.3633,11.4062,11.4453,11.5156,11.5664,10.3549,10.2999,10.304,10.2764,10.2211,10.1741,10.1239,10.0827,10.0986,10.0898,10.0609,10.0297,10.0093,10.013,10.0352,10.0445,10.0482,10.0701,10.1143,10.1681,10.1897,10.2445,10.311,10.3184,10.2935,10.2531,10.2473,10.2086,10.1369,10.1129,10.0874,10.0493,9.9842,9.9612,9.9747,9.931,9.9188,9.924,9.8054,9.729,9.7072,9.7182,9.7426,9.7717,9.7815,9.7693,9.7222,9.6851,9.6376,9.5762,9.5798,9.5835,9.5874,9.648,9.6865,9.6903,9.7442,9.7904,9.8134,9.8865,9.9442,9.9673,10.0491,10.1231,10.1703,10.075,10.0018,10.0131,10.082,10.1577,10.2361,10.3085,10.3923,10.4804,10.5164,10.5347,10.548,10.5666,10.5839,10.596,10.5982,10.6037,10.6009,10.5974,10.6288,10.6953,10.7617,10.8008,10.8281,10.8906,10.8984,10.8945,10.9179,10.9531,10.9648,11.0078,11.0586,11.082,11.0898,11.1289,11.1914,11.2187,11.2383,11.3008,11.3164,11.3164,11.3203,11.3437,11.3515,11.3633,11.4218,11.4843,11.5234,11.6289,11.6914,10.388,10.3848,10.4068,10.397,10.3614,10.2908,10.2767,10.3088,10.3176,10.3298,10.3181,10.1948,10.1347,10.1458,10.2271,10.2602,10.2657,10.3027,10.318,10.3251,10.3493,10.3613,10.3721,10.3742,10.3721,10.3625,10.3641,10.3528,10.3362,10.2745,10.2032,10.1303,10.1116,10.1078,10.1142,10.1347,10.1438,10.1505,10.1783,10.0964,9.9135,9.8757,9.8719,9.8904,9.841,9.8189,9.8437,9.8382,9.8365,9.8423,9.8404,9.8413,9.8452,9.8519,9.8557,9.8596,9.8673,9.9019,9.9837,10.0635,10.1404,10.2212,10.2953,10.3492,10.3685,10.355,10.3512,10.3491,10.3774,10.3901,10.4256,10.4557,10.4843,10.5202,10.5897,10.6381,10.6512,10.7178,10.7678,10.775,10.7567,10.7729,10.7575,10.7538,10.7695,10.7812,10.8047,10.8437,10.9062,10.9414,10.9765,11.0156,11.0508,11.0508,11.0508,11.0508,11.1093,11.164,11.1797,11.2148,11.2656,11.2968,11.3164,11.3086,11.3203,11.3203,11.3476,11.3789,11.4297,11.4453,11.5039,11.582,11.6601,11.7422,11.7656,10.5174,10.4877,10.4959,10.4641,10.4094,10.4095,10.4055,10.3979,10.4051,10.4228,10.4313,10.3728,10.3244,10.2884,10.3272,10.3455,10.3489,10.3797,10.3994,10.401,10.4259,10.438,10.438,10.438,10.438,10.4418,10.4418,10.438,10.4343,10.4041,10.3716,10.3338,10.287,10.262,10.2597,10.2346,10.2194,10.2208,10.2612,10.2436,10.1661,10.1433,10.1148,10.083,10.0678,10.0446,10.012,9.9729,9.9519,9.9558,9.9567,9.9567,9.9567,10.0019,10.0519,10.1019,10.152,10.1981,10.2337,10.2674,10.2981,10.3366,10.3733,10.4176,10.4725,10.4912,10.5173,10.5538,10.4888,10.4652,10.5333,10.562,10.5947,10.6524,10.7069,10.7345,10.7376,10.7694,10.7953,10.7999,10.8005,10.8008,10.8007,10.8007,10.8242,10.8593,10.8789,10.9101,10.9922,11.0508,11.0976,11.1328,11.1797,11.1875,11.1562,11.1836,11.2226,11.2539,11.2656,11.289,11.3047,11.3203,11.3203,11.3203,11.3203,11.3437,11.3945,11.4179,11.4609,11.5117,11.5937,11.6718,11.7578,11.8047,11.8047,10.6523,10.6141,10.5881,10.5504,10.5138,10.5134,10.503,10.4743,10.4708,10.478,10.4982,10.4999,10.4776,10.4313,10.4151,10.4057,10.4104,10.4365,10.45,10.4529,10.4818,10.4982,10.4944,10.4999,10.5013,10.5013,10.5013,10.5023,10.4958,10.4944,10.4968,10.4812,10.4281,10.3991,10.397,10.3549,10.3374,10.3439,10.3739,10.3906,10.3917,10.3929,10.3477,10.2621,10.2658,10.2484,10.1987,10.1413,10.1145,10.1145,10.1145,10.1145,10.1145,10.1712,10.2289,10.2904,10.352,10.3925,10.3906,10.4147,10.4272,10.434,10.4561,10.5013,10.5598,10.592,10.6347,10.6789,10.5921,10.5707,10.6313,10.6608,10.6996,10.7647,10.7863,10.7907,10.7928,10.7956,10.8004,10.8006,10.8007,10.8125,10.8359,10.8633,10.9062,10.9531,10.9648,10.9961,11.0781,11.1484,11.1914,11.2226,11.2773,11.2851,11.2422,11.2617,11.3164,11.3203,11.3125,11.3125,11.3203,11.3203,11.3203,11.3203,11.3203,11.3515,11.4179,11.4531,11.5312,11.6172,11.6914,11.75,11.8047,11.8281,11.8281,10.7662,10.766,10.6743,10.6732,10.7261,10.5956,10.5565,10.5828,10.5396,10.5279,10.5384,10.5472,10.556,10.5434,10.4947,10.4771,10.4747,10.4902,10.4972,10.4999,10.5254,10.5371,10.5384,10.5523,10.5572,10.5509,10.5548,10.5498,10.5384,10.5371,10.5306,10.5201,10.5201,10.5216,10.5384,10.546,10.5519,10.5627,10.5767,10.5931,10.603,10.6041,10.5283,10.3912,10.3664,10.3649,10.3654,10.3712,10.3635,10.3674,10.3558,10.3597,10.3635,10.3674,10.3751,10.3838,10.3953,10.3993,10.4196,10.4831,10.5293,10.5407,10.5983,10.6605,10.6644,10.6749,10.6935,10.7333,10.7246,10.7249,10.7329,10.7429,10.7572,10.7832,10.7896,10.793,10.8039,10.8159,10.8006,10.8125,10.8242,10.8554,10.9179,10.9961,11.0273,11.0508,11.0547,11.0859,11.1601,11.1914,11.2304,11.2812,11.3125,11.3164,11.3125,11.3125,11.3164,11.3203,11.3203,11.3203,11.3203,11.3203,11.3203,11.3242,11.3359,11.3711,11.4375,11.5312,11.6406,11.7226,11.7695,11.8242,11.8281,11.8281,11.8398,10.8517,10.841,10.7945,10.7787,10.7774,10.7455,10.707,10.6577,10.6375,10.6081,10.5804,10.5836,10.5859,10.5848,10.567,10.5447,10.5345,10.5434,10.5523,10.5548,10.5706,10.5777,10.5789,10.5836,10.5859,10.5859,10.5859,10.5836,10.5789,10.5789,10.6072,10.6469,10.6533,10.6825,10.7358,10.7521,10.753,10.7576,10.7652,10.7779,10.7746,10.7888,10.7381,10.6277,10.5162,10.4364,10.3905,10.3905,10.3905,10.3905,10.3905,10.3905,10.3943,10.4376,10.4714,10.485,10.5284,10.5592,10.5764,10.607,10.6269,10.6305,10.6688,10.6997,10.7029,10.7132,10.7275,10.7433,10.7588,10.7633,10.7725,10.7805,10.7844,10.7894,10.7935,10.8227,10.8706,10.8866,10.9023,10.9492,10.9687,10.9804,11.0039,11.039,11.082,11.1328,11.1445,11.1836,11.2461,11.2734,11.2812,11.3086,11.3203,11.3203,11.3203,11.3164,11.3203,11.3203,11.3203,11.3203,11.3203,11.3281,11.332,11.3515,11.3593,11.4336,11.5195,11.6367,11.7422,11.7773,11.8281,11.8281,11.8281,11.8398,11.8672,10.9364,10.893,10.8961,10.8802,10.8497,10.8575,10.8143,10.729,10.7119,10.6698,10.6145,10.6112,10.6134,10.6134,10.6134,10.6018,10.5859,10.5871,10.5871,10.5882,10.5985,10.6079,10.609,10.6123,10.6288,10.6556,10.6836,10.6929,10.6857,10.6857,10.718,10.7672,10.7722,10.8002,10.8534,10.8611,10.8634,10.8717,10.8756,10.875,10.8772,10.8863,10.8636,10.8021,10.6905,10.579,10.4789,10.4713,10.4713,10.4713,10.4713,10.4713,10.4789,10.5214,10.561,10.5756,10.6516,10.7064,10.7232,10.7547,10.7738,10.7818,10.7935,10.7936,10.7721,10.7778,10.7772,10.7695,10.7718,10.7808,10.7944,10.8172,10.8348,10.8361,10.8386,10.8786,10.9568,10.9726,10.9961,11.039,11.0781,11.0937,11.1054,11.1289,11.1718,11.2265,11.2304,11.2617,11.3047,11.3203,11.3203,11.3203,11.3203,11.3203,11.3203,11.3203,11.3203,11.3203,11.3203,11.3203,11.3359,11.3437,11.3633,11.3789,11.4336,11.5195,11.6211,11.7383,11.7968,11.8242,11.8281,11.8281,11.8437,11.8633,11.9023,11.0184,10.9342,10.9755,10.9716,10.9394,10.9168,10.8636,10.8155,10.7722,10.7127,10.644,10.6371,10.6364,10.6385,10.6364,10.6374,10.6312,10.6123,10.6046,10.6018,10.6145,10.6237,10.6325,10.6438,10.6941,10.7643,10.8472,10.8688,10.8476,10.8427,10.8498,10.8588,10.8638,10.881,10.8822,10.8975,10.8942,10.9094,10.9154,10.9087,10.8944,10.9098,10.9098,10.8906,10.8752,10.7982,10.6472,10.6356,10.6241,10.6241,10.6251,10.6356,10.6233,10.6439,10.6497,10.6671,10.7543,10.8101,10.8288,10.9028,10.9495,10.9564,10.9754,10.938,10.8893,10.8808,10.8605,10.8224,10.81,10.8071,10.826,10.8804,10.925,10.9292,10.9254,10.9686,11.0351,11.0625,11.0664,11.0898,11.1484,11.1875,11.207,11.2422,11.2851,11.2968,11.3047,11.3047,11.3164,11.3203,11.3203,11.3203,11.3203,11.3203,11.3203,11.3203,11.3203,11.3203,11.3203,11.3242,11.3633,11.3828,11.4258,11.4492,11.5156,11.6015,11.6797,11.7851,11.8086,11.8281,11.8281,11.8398,11.8711,11.9022,11.9526,11.0695,11.0345,11.0361,11.0168,10.9897,11.0044,10.9799,10.9242,10.8607,10.7932,10.7227,10.6654,10.6395,10.6395,10.6395,10.6395,10.6395,10.6322,10.6291,10.6301,10.6333,10.6651,10.7123,10.7269,10.7713,10.8444,10.8752,10.8895,10.8902,10.8891,10.9101,10.9617,10.9722,11.0051,11.0534,11.0622,11.0643,11.0665,11.0675,11.0703,11.0675,11.0675,11.0406,10.9867,10.979,10.9252,10.8175,10.7598,10.7021,10.6472,10.6395,10.6436,10.6593,10.7162,10.7545,10.7757,10.8573,10.9214,10.9388,10.9721,11.0062,11.0049,11.0105,11.007,10.9957,10.9896,10.9834,10.9611,10.9683,10.9709,10.9784,10.9992,10.9957,10.9371,10.9842,11.0547,11.1367,11.1992,11.2343,11.2383,11.2617,11.2773,11.2812,11.3125,11.3164,11.3203,11.3203,11.3203,11.3203,11.3203,11.3203,11.3203,11.3203,11.3203,11.3203,11.3242,11.3281,11.3398,11.3476,11.3554,11.3906,11.4531,11.4922,11.5468,11.6133,11.6758,11.7578,11.8008,11.8203,11.832,11.8359,11.8672,11.9101,11.9603,12.0182,11.1503,11.1367,11.116,11.0856,11.0532,11.0702,11.0419,10.9877,10.9436,10.8688,10.7703,10.7136,10.6713,10.6433,10.6395,10.6395,10.6395,10.6395,10.6559,10.6818,10.6895,10.7213,10.779,10.8406,10.8829,10.9367,10.9713,10.9867,10.9867,10.9906,11.0137,11.0598,11.0675,11.0895,11.1472,11.1511,11.1511,11.1511,11.1472,11.1511,11.1511,11.1511,11.1252,11.0752,11.0675,11.0252,10.9406,10.8867,10.8213,10.7531,10.7359,10.746,10.7634,10.8209,10.8612,10.8895,10.9608,11.0274,11.0459,11.0933,11.114,11.1155,11.1217,11.112,11.1016,11.0918,11.0844,11.0573,11.051,11.0524,11.058,11.0935,11.0779,11.0389,11.0742,11.1445,11.2265,11.2851,11.3125,11.3086,11.3164,11.3203,11.3203,11.3203,11.3203,11.3203,11.3203,11.3203,11.3203,11.3203,11.3203,11.3203,11.3203,11.3203,11.3203,11.3242,11.3359,11.3593,11.3828,11.4023,11.4297,11.5273,11.5976,11.664,11.7343,11.7422,11.8086,11.8164,11.8281,11.8359,11.8476,11.9022,11.9565,12.0409,12.1057,11.2571,11.2207,11.2084,11.1728,11.1319,11.1022,11.0616,11.0182,11.0083,10.9329,10.8136,10.7829,10.7367,10.6703,10.6818,10.6828,10.6597,10.6751,10.7136,10.7636,10.7867,10.8059,10.829,10.9483,11.0137,11.0367,11.0983,11.1318,11.1203,11.1203,11.1483,11.1395,11.1357,11.1472,11.1549,11.1549,11.1665,11.1703,11.1665,11.1665,11.1626,11.1511,11.1472,11.1434,11.1406,11.1021,11.0406,11.0196,10.9773,10.9052,10.8818,10.8945,10.9294,10.9484,10.967,10.9829,11.0744,11.1225,11.1654,11.2147,11.2649,11.2613,11.2631,11.2723,11.1961,11.1821,11.1641,11.1113,11.1005,11.0932,11.1091,11.1522,11.1875,11.1953,11.1914,11.2343,11.3008,11.3164,11.3203,11.3203,11.3203,11.3203,11.3203,11.3203,11.3203,11.3203,11.3203,11.3203,11.3203,11.3203,11.3203,11.3203,11.3203,11.3203,11.3203,11.3203,11.3398,11.3984,11.4375,11.4804,11.5117,11.6133,11.6914,11.7617,11.8008,11.8164,11.8281,11.8281,11.8281,11.832,11.8709,11.9332,12.0102,12.0935,12.1674,11.2683,11.2521,11.2256,11.193,11.1585,11.1212,11.1043,11.0858,11.0402,10.9944,10.9406,10.8867,10.8444,10.8252,10.8213,10.8252,10.8136,10.8175,10.829,10.8675,10.929,10.9521,10.9713,11.0598,11.1126,11.1165,11.1318,11.1511,11.1511,11.1511,11.1511,11.1511,11.1549,11.1549,11.1549,11.2099,11.2368,11.2395,11.2406,11.2406,11.228,11.1791,11.1511,11.1511,11.1511,11.1357,11.1186,11.1221,11.0492,10.9213,10.9251,10.9385,10.9626,11.0275,11.0754,11.1009,11.1717,11.2333,11.2511,11.2783,11.2994,11.3064,11.3056,11.2962,11.2822,11.2749,11.2679,11.2491,11.2534,11.2458,11.2499,11.2656,11.2812,11.2851,11.2773,11.289,11.3125,11.3203,11.3203,11.3203,11.3203,11.3203,11.3203,11.3203,11.3203,11.3203,11.3203,11.3203,11.3203,11.3203,11.3203,11.3203,11.3203,11.3203,11.3203,11.3203,11.3515,11.4336,11.5039,11.5859,11.6367,11.7187,11.7734,11.8242,11.8164,11.8242,11.8281,11.8281,11.8281,11.8278,11.9054,11.9747,12.0502,12.1281,12.2037,11.3165,11.3266,11.2597,11.2362,11.227,11.1501,11.1216,11.1297,11.0951,11.0483,11.0147,10.9713,10.9213,10.8906,10.8867,10.8867,10.8906,10.8906,10.9098,10.9598,11.0329,11.0675,11.0868,11.1318,11.1511,11.1511,11.1511,11.1511,11.1511,11.1511,11.1511,11.1588,11.1868,11.2011,11.2088,11.2791,11.3253,11.3253,11.3253,11.3253,11.3176,11.2445,11.2049,11.1934,11.1742,11.1532,11.1519,11.1664,11.1239,11.0553,11.0511,11.0623,11.0786,11.1352,11.1853,11.1971,11.2502,11.2828,11.2937,11.303,11.306,11.3081,11.3136,11.3145,11.3113,11.3156,11.316,11.3123,11.3201,11.3202,11.3203,11.3203,11.3203,11.3164,11.3203,11.3203,11.3203,11.3203,11.3203,11.3203,11.3203,11.3203,11.3203,11.3203,11.3203,11.3203,11.3203,11.3203,11.3203,11.3203,11.3203,11.3203,11.3203,11.3203,11.3437,11.3515,11.414,11.4922,11.6015,11.6797,11.7226,11.7929,11.8086,11.8281,11.8281,11.8281,11.8281,11.8278,11.8275,11.8542,11.9389,12.0065,12.0724,12.1669,12.2406,11.375,11.4161,11.3085,11.294,11.3113,11.1892,11.1389,11.1489,11.1434,11.106,11.0521,11.0329,10.9983,10.9175,10.9483,10.929,10.9252,10.9444,10.9752,11.0367,11.1021,11.1395,11.1357,11.1434,11.1511,11.1511,11.1511,11.1511,11.1511,11.1511,11.1588,11.1829,11.2368,11.2714,11.2983,11.3676,11.406,11.4137,11.4137,11.4137,11.3984,11.333,11.2791,11.2445,11.1851,11.1599,11.1673,11.1844,11.1895,11.2022,11.2126,11.2125,11.2388,11.2606,11.2727,11.2784,11.2861,11.2967,11.3056,11.3118,11.3134,11.3147,11.3156,11.3199,11.32,11.3163,11.3203,11.3203,11.3203,11.3203,11.3203,11.3203,11.3203,11.3203,11.3203,11.3203,11.3203,11.3203,11.3203,11.3203,11.3203,11.3203,11.3203,11.3203,11.3203,11.3203,11.3203,11.3203,11.3203,11.3203,11.3203,11.3203,11.3203,11.3203,11.3515,11.3867,11.4765,11.5703,11.6992,11.7773,11.7773,11.8164,11.8203,11.8281,11.8281,11.8281,11.8281,11.8275,11.8264,11.8714,11.943,12.0086,12.0761,12.1903,12.2807,11.401,11.4613,11.3903,11.3494,11.3304,11.2551,11.1928,11.1511,11.1511,11.1357,11.1252,11.1214,11.1049,11.0906,11.0791,11.0944,11.0791,11.0791,11.1098,11.1175,11.1368,11.1511,11.1511,11.1511,11.1511,11.1511,11.1511,11.1511,11.1511,11.1588,11.1868,11.2395,11.2753,11.306,11.3753,11.4561,11.5022,11.5022,11.5022,11.5022,11.483,11.4176,11.3407,11.2763,11.2002,11.177,11.1909,11.2019,11.2174,11.2393,11.244,11.2498,11.2656,11.281,11.2917,11.2966,11.3022,11.3062,11.3095,11.3149,11.3155,11.3157,11.3162,11.3203,11.3203,11.3203,11.3203,11.3203,11.3203,11.3203,11.3203,11.3203,11.3203,11.3203,11.3203,11.3203,11.3203,11.3203,11.3203,11.3203,11.3203,11.3203,11.3203,11.3203,11.3203,11.3203,11.3203,11.3203,11.3203,11.3203,11.3203,11.3203,11.3203,11.3203,11.3515,11.4101,11.5234,11.6172,11.7461,11.8281,11.8281,11.8281,11.8281,11.8281,11.8281,11.8278,11.8272,11.8254,11.8232,11.8827,11.9406,12.0029,12.0867,12.2062,12.2778,11.4296,11.4846,11.4317,11.3874,11.3441,11.2763,11.2143,11.1615,11.1511,11.1511,11.1511,11.1511,11.1511,11.1511,11.1511,11.1472,11.1511,11.1511,11.1511,11.1472,11.1511,11.1511,11.1511,11.1511,11.1511,11.1511,11.1511,11.1511,11.1549,11.1895,11.2291,11.278,11.3445,11.4176,11.4638,11.5418,11.5792,11.5869,11.5841,11.5869,11.5726,11.5022,11.395,11.2957,11.2185,11.19,11.2036,11.2258,11.2414,11.2572,11.2658,11.2693,11.2779,11.291,11.3027,11.3033,11.3081,11.3138,11.3153,11.3199,11.3202,11.3203,11.3203,11.3203,11.3203,11.3203,11.3203,11.3203,11.3203,11.3203,11.3203,11.3203,11.3203,11.3203,11.3203,11.3203,11.3203,11.3203,11.3203,11.3203,11.3203,11.3203,11.3203,11.3203,11.3203,11.3203,11.3203,11.3203,11.3203,11.3203,11.3203,11.3203,11.3203,11.3281,11.3515,11.4297,11.5625,11.6562,11.7578,11.8125,11.8281,11.8281,11.8281,11.8279,11.8278,11.8267,11.8254,11.8226,11.8216,11.8545,11.9093,11.9889,12.0777,12.1733,12.2271,11.462,11.5086,11.4773,11.4248,11.3563,11.2986,11.228,11.1538,11.1511,11.1511,11.1511,11.1511,11.1511,11.1511,11.1511,11.1511,11.1511,11.1511,11.1511,11.1511,11.1511,11.1511,11.1511,11.1511,11.1511,11.1511,11.1511,11.1549,11.1895,11.2319,11.2868,11.3291,11.4445,11.5138,11.5561,11.6061,11.6369,11.638,11.6369,11.6369,11.6352,11.5748,11.4785,11.3477,11.2664,11.2271,11.2328,11.2421,11.2655,11.2779,11.2858,11.2927,11.2946,11.302,11.3107,11.3111,11.3186,11.3196,11.3161,11.3203,11.3203,11.3203,11.3203,11.3203,11.3203,11.3203,11.3203,11.3203,11.3203,11.3203,11.3203,11.3203,11.3203,11.3203,11.3203,11.3203,11.3203,11.3203,11.3203,11.3203,11.3203,11.3203,11.3203,11.3203,11.3203,11.3203,11.3203,11.3203,11.3203,11.3203,11.3203,11.3203,11.3203,11.3554,11.3828,11.4531,11.582,11.6718,11.7656,11.8047,11.8281,11.8281,11.8278,11.8276,11.8272,11.8253,11.8183,11.8138,11.8183,11.8314,11.8986,11.9969,12.0727,12.1401,12.1821,11.5058,11.5602,11.5636,11.4922,11.3846,11.3752,11.2846,11.1665,11.1511,11.1511,11.1511,11.1511,11.1511,11.1511,11.1511,11.1511,11.1511,11.1511,11.1511,11.1511,11.1511,11.1511,11.1511,11.1511,11.1549,11.1511,11.1588,11.1895,11.2319,11.2676,11.356,11.4599,11.5138,11.561,11.611,11.6457,11.6484,11.6484,11.6495,11.6495,11.6452,11.6242,11.5676,11.4305,11.3515,11.2948,11.2634,11.2639,11.2754,11.2937,11.3025,11.306,11.3077,11.3084,11.3136,11.3188,11.3195,11.3201,11.3202,11.3203,11.3203,11.3203,11.3203,11.3203,11.3203,11.3203,11.3203,11.3203,11.3203,11.3203,11.3203,11.3086,11.3164,11.3164,11.3125,11.3164,11.3164,11.3203,11.3203,11.3203,11.3203,11.3203,11.3203,11.3203,11.3203,11.3203,11.3203,11.3203,11.3203,11.3203,11.3203,11.3203,11.3203,11.3711,11.4258,11.5039,11.5976,11.6679,11.75,11.8125,11.8281,11.8281,11.8276,11.8265,11.8208,11.8179,11.8132,11.807,11.8015,11.8002,11.9005,12.0105,12.0572,12.1021,12.1725,11.5326,11.571,11.5996,11.5222,11.3969,11.3939,11.306,11.1665,11.1511,11.1511,11.1511,11.1511,11.1511,11.1511,11.1511,11.1511,11.1511,11.1511,11.1511,11.1511,11.1511,11.1511,11.1549,11.1511,11.1819,11.2011,11.2175,11.2329,11.2791,11.3714,11.4445,11.5099,11.5638,11.6149,11.638,11.6457,11.6484,11.6484,11.6495,11.6567,11.6528,11.6476,11.586,11.5287,11.429,11.356,11.3339,11.291,11.29,11.303,11.312,11.3142,11.3151,11.3155,11.3156,11.3199,11.3201,11.3203,11.3203,11.3203,11.3203,11.3203,11.3203,11.3203,11.3203,11.3203,11.3203,11.3203,11.3203,11.3203,11.3203,11.2812,11.2773,11.3008,11.2851,11.2812,11.3086,11.3164,11.3203,11.3203,11.3203,11.3203,11.3203,11.3203,11.3203,11.3203,11.3203,11.3203,11.3203,11.3203,11.3203,11.3203,11.3203,11.3554,11.4218,11.5156,11.5976,11.6679,11.746,11.8044,11.8273,11.8267,11.8212,11.8189,11.8158,11.807,11.8048,11.7963,11.7846,11.7865,11.8983,11.9897,12.0216,12.0672,12.1458,11.5604,11.5842,11.6169,11.5352,11.4003,11.3939,11.306,11.1742,11.1511,11.1511,11.1511,11.1511,11.1511,11.1511,11.1511,11.1511,11.1511,11.1511,11.1511,11.1511,11.1511,11.1549,11.1742,11.1819,11.2203,11.2945,11.333,11.3214,11.3637,11.4484,11.5215,11.5676,11.6253,11.6484,11.6484,11.6484,11.6484,11.6495,11.6567,11.6633,11.6601,11.6383,11.6087,11.6034,11.4924,11.4344,11.3929,11.3552,11.3207,11.315,11.3144,11.3199,11.32,11.3202,11.3203,11.3201,11.3203,11.3203,11.3203,11.3203,11.3203,11.3203,11.3203,11.3203,11.3203,11.3203,11.3203,11.3203,11.3203,11.3047,11.2812,11.2304,11.2304,11.2539,11.2383,11.2187,11.289,11.3203,11.3203,11.3203,11.3203,11.3203,11.3203,11.3203,11.3203,11.3203,11.3203,11.3203,11.3203,11.3203,11.3203,11.3203,11.3242,11.3398,11.4062,11.5078,11.5859,11.6562,11.7458,11.8197,11.8262,11.8201,11.8168,11.8076,11.797,11.7937,11.7902,11.7897,11.7873,11.8178,11.9081,11.9776,12.0208,12.0812,12.1601,11.5894,11.6229,11.6277,11.5398,11.4104,11.3973,11.306,11.1626,11.1511,11.1511,11.1511,11.1511,11.1511,11.1511,11.1511,11.1511,11.1511,11.1511,11.1549,11.1626,11.1665,11.2011,11.2483,11.256,11.3099,11.3791,11.4522,11.4956,11.4945,11.5215,11.5676,11.6176,11.6341,11.6484,11.6484,11.6506,11.6484,11.6506,11.6605,11.6794,11.6981,11.6966,11.6715,11.6477,11.6071,11.5482,11.4575,11.4213,11.3845,11.3255,11.3193,11.32,11.3203,11.3203,11.3203,11.3203,11.3203,11.3203,11.3203,11.3203,11.3203,11.3203,11.3203,11.3203,11.3203,11.3203,11.3203,11.3203,11.3203,11.2968,11.25,11.1992,11.1992,11.2031,11.2031,11.2304,11.2929,11.3203,11.3203,11.3203,11.3203,11.3203,11.3203,11.3203,11.3203,11.3203,11.3203,11.3203,11.3203,11.3203,11.3437,11.3515,11.3633,11.3789,11.4414,11.5351,11.5976,11.664,11.7413,11.8265,11.8198,11.8112,11.8027,11.795,11.7853,11.7714,11.7652,11.7697,11.7848,11.8367,11.9079,11.9754,12.0378,12.1051,12.17,11.6145,11.63,11.637,11.5478,11.4099,11.3984,11.306,11.1742,11.1511,11.1511,11.1511,11.1511,11.1511,11.1549,11.1511,11.1511,11.1511,11.1549,11.178,11.2137,11.2252,11.2637,11.3291,11.3483,11.3907,11.4638,11.5138,11.5522,11.5792,11.5995,11.6226,11.6407,11.6484,11.6484,11.6506,11.6562,11.6583,11.6697,11.6815,11.6991,11.7109,11.725,11.7302,11.7159,11.6818,11.6261,11.5716,11.4686,11.4301,11.3777,11.3513,11.3202,11.3203,11.3203,11.3203,11.3203,11.3203,11.3203,11.3203,11.3203,11.3203,11.3203,11.3203,11.3203,11.3203,11.3203,11.3203,11.3203,11.3203,11.2968,11.2422,11.1718,11.1953,11.2031,11.1836,11.2343,11.2812,11.3047,11.3203,11.3203,11.3203,11.3203,11.3203,11.3203,11.3203,11.3203,11.3203,11.3203,11.3203,11.3203,11.3554,11.4023,11.414,11.4336,11.5117,11.5976,11.6406,11.6985,11.7547,11.8153,11.8112,11.8041,11.7919,11.7775,11.764,11.7514,11.7437,11.7461,11.7557,11.8231,11.8962,11.9708,12.0423,12.1088,12.162,11.604,11.604,11.6143,11.533,11.3984,11.3791,11.2829,11.1588,11.1742,11.1819,11.178,11.1819,11.1819,11.1703,11.1665,11.1626,11.1829,11.1819,11.2319,11.278,11.3137,11.356,11.406,11.4368,11.4753,11.5572,11.5649,11.5957,11.6264,11.6479,11.6452,11.6495,11.6484,11.6517,11.6562,11.6654,11.6719,11.6835,11.7,11.7153,11.7288,11.7518,11.7691,11.7602,11.7369,11.6974,11.6714,11.5901,11.5142,11.4212,11.3905,11.3554,11.3281,11.3203,11.3203,11.3203,11.3203,11.3203,11.3203,11.3203,11.3203,11.3203,11.3203,11.3203,11.3203,11.3203,11.3203,11.3203,11.3203,11.3086,11.2695,11.1601,11.1797,11.1914,11.1797,11.2304,11.2773,11.3047,11.3203,11.3203,11.3203,11.3203,11.3203,11.3203,11.3203,11.3203,11.3203,11.3203,11.3281,11.3359,11.3828,11.4414,11.4804,11.5117,11.5898,11.656,11.6987,11.7287,11.7839,11.8054,11.8027,11.7919,11.7764,11.7634,11.7437,11.7288,11.7162,11.7207,11.7375,11.8324,11.9206,11.9834,12.0483,12.1147,12.1535,11.5357,11.5357,11.5368,11.4791,11.3907,11.3137,11.2329,11.1588,11.2242,11.2599,11.2637,11.2626,11.2637,11.2483,11.2126,11.2099,11.2637,11.2626,11.3176,11.3637,11.3984,11.4445,11.4945,11.5291,11.5561,11.6187,11.6237,11.6364,11.6529,11.6627,11.6622,11.6517,11.6551,11.6583,11.6637,11.6722,11.6895,11.7018,11.7205,11.7368,11.7525,11.7704,11.7836,11.7954,11.7942,11.7708,11.6962,11.6657,11.6048,11.4762,11.4374,11.3984,11.3554,11.3281,11.3203,11.3203,11.3203,11.3203,11.3203,11.3203,11.3203,11.3203,11.3203,11.3203,11.3203,11.3203,11.3203,11.3203,11.3203,11.289,11.2422,11.1914,11.1914,11.207,11.2148,11.2343,11.2773,11.3047,11.3203,11.3203,11.3203,11.3203,11.3203,11.3203,11.3203,11.3203,11.3242,11.3242,11.3633,11.3828,11.4297,11.4843,11.5429,11.5976,11.6679,11.718,11.7403,11.7605,11.7945,11.8009,11.7931,11.7786,11.7555,11.7384,11.7205,11.7028,11.7001,11.7252,11.7704,11.866,11.9449,12.0098,12.0681,12.1327,12.1574,11.4995,11.4445,11.3945,11.3522,11.3176,11.2829,11.2242,11.1703,11.2319,11.306,11.3522,11.3483,11.3522,11.3407,11.3291,11.3176,11.3483,11.3522,11.406,11.4522,11.4907,11.5291,11.5803,11.6034,11.6226,11.6479,11.6589,11.6633,11.6616,11.6722,11.6743,11.6712,11.6684,11.6722,11.6774,11.6914,11.7091,11.7288,11.743,11.756,11.7704,11.7841,11.7954,11.8031,11.8121,11.8068,11.7711,11.7216,11.6637,11.5937,11.5039,11.4414,11.3906,11.3515,11.3203,11.3203,11.3203,11.3203,11.3203,11.3203,11.3203,11.3203,11.3203,11.3203,11.3203,11.3203,11.3203,11.3203,11.3203,11.289,11.2812,11.2265,11.2031,11.2343,11.2539,11.2617,11.2812,11.3086,11.3203,11.3203,11.3203,11.3203,11.3203,11.3203,11.3203,11.3203,11.3242,11.3398,11.3828,11.4453,11.5,11.5586,11.6172,11.6716,11.7414,11.7674,11.7806,11.7906,11.8066,11.7901,11.7769,11.7514,11.7298,11.7144,11.7145,11.7184,11.7265,11.7444,11.8046,11.9053,11.9779,12.0377,12.097,12.1535,12.1612,11.4176,11.3522,11.2676,11.2483,11.2676,11.2434,11.2049,11.1752,11.2676,11.3753,11.4676,11.4522,11.4407,11.433,11.4022,11.4176,11.4291,11.4445,11.4945,11.5368,11.5726,11.5995,11.6352,11.6529,11.6485,11.6573,11.6659,11.6761,11.6774,11.6865,11.6934,11.6982,11.6981,11.7,11.6934,11.7118,11.7345,11.7546,11.7653,11.7752,11.7906,11.7989,11.8055,11.8143,11.8183,11.8212,11.8115,11.7731,11.7303,11.6562,11.5742,11.4883,11.4297,11.3789,11.3281,11.3203,11.3203,11.3203,11.3203,11.3203,11.3203,11.3203,11.3203,11.3203,11.3203,11.3203,11.3203,11.3203,11.3203,11.3203,11.3164,11.2734,11.2539,11.2851,11.2734,11.2773,11.2968,11.3203,11.3203,11.3203,11.3203,11.3203,11.3437,11.3476,11.3515,11.3593,11.3711,11.3906,11.4297,11.5,11.5898,11.6484,11.7109,11.761,11.8109,11.8001,11.7911,11.7846,11.7897,11.7742,11.7535,11.729,11.7109,11.6972,11.7085,11.7374,11.7771,11.8212,11.8789,11.9433,12.0157,12.0893,12.1112,12.1612,12.1612,11.2791,11.2637,11.1857,11.1972,11.2522,11.1857,11.1549,11.1703,11.3176,11.4753,11.5984,11.5572,11.5253,11.5099,11.4676,11.4753,11.5176,11.5291,11.5649,11.6171,11.6298,11.6429,11.6512,11.6644,11.6669,11.6729,11.6794,11.6904,11.6991,11.7064,11.7174,11.7294,11.7337,11.7314,11.7144,11.7353,11.7587,11.7769,11.788,11.7965,11.8021,11.8112,11.8153,11.8228,11.8257,11.8273,11.8238,11.8163,11.7734,11.7148,11.6133,11.5273,11.4687,11.3711,11.3242,11.3203,11.3203,11.3203,11.3203,11.3203,11.3203,11.3203,11.3203,11.3203,11.3203,11.3203,11.3203,11.3203,11.3203,11.3203,11.3164,11.3164,11.3164,11.3086,11.2968,11.2968,11.3125,11.3203,11.3203,11.3203,11.3203,11.3242,11.3554,11.3789,11.3867,11.3984,11.4218,11.4492,11.4922,11.5547,11.6484,11.7106,11.7688,11.7826,11.8157,11.8114,11.8037,11.7901,11.773,11.7542,11.7353,11.7162,11.6972,11.6841,11.7198,11.7672,11.8387,11.9111,11.975,12.0388,12.0866,12.142,12.1574,12.1612,12.1612,11.2357,11.1895,11.1626,11.1626,11.1857,11.1626,11.1511,11.1819,11.3291,11.4945,11.6215,11.6176,11.6099,11.5945,11.5803,11.5764,11.6006,11.611,11.6429,11.6567,11.6644,11.6659,11.6712,11.6753,11.6815,11.6895,11.6982,11.7091,11.7277,11.7313,11.7399,11.7504,11.7621,11.7615,11.7582,11.7698,11.7792,11.7975,11.804,11.8098,11.8166,11.8174,11.8203,11.8261,11.8273,11.8278,11.8281,11.8281,11.8086,11.7578,11.6562,11.5586,11.5039,11.4101,11.3203,11.3203,11.3203,11.3203,11.3203,11.3203,11.3203,11.3203,11.3203,11.3203,11.3203,11.3203,11.3203,11.3203,11.3203,11.3203,11.3203,11.3164,11.3164,11.3164,11.3125,11.3125,11.3203,11.3203,11.3203,11.3203,11.3203,11.375,11.414,11.4765,11.4922,11.5117,11.539,11.5664,11.6054,11.6367,11.7028,11.7608,11.8067,11.8114,11.8148,11.8031,11.788,11.7747,11.7542,11.7314,11.7144,11.7001,11.6971,11.6911,11.7441,11.8068,11.9046,11.9946,12.0716,12.1343,12.1497,12.1612,12.1612,12.1612,12.1612,11.1972,11.1511,11.1511,11.1504,11.1526,11.1494,11.1637,11.2137,11.3407,11.4791,11.5918,11.6341,11.6517,11.654,11.6551,11.6594,11.6605,11.6616,11.6588,11.6722,11.6722,11.6784,11.6855,11.6895,11.7029,11.7121,11.7205,11.7329,11.7489,11.7567,11.7666,11.7775,11.7841,11.7873,11.7883,11.7945,11.7958,11.8098,11.8151,11.8179,11.8224,11.8251,11.8265,11.8274,11.8278,11.828,11.8281,11.8281,11.8242,11.7773,11.6875,11.5742,11.5234,11.4336,11.332,11.3203,11.3203,11.3203,11.3203,11.3203,11.3203,11.3203,11.3203,11.3203,11.3203,11.3203,11.3203,11.3203,11.3203,11.3203,11.3203,11.3203,11.3203,11.3203,11.3203,11.3203,11.3203,11.3203,11.3242,11.3242,11.3789,11.4336,11.5039,11.5664,11.6172,11.6445,11.6679,11.6874,11.7069,11.7262,11.745,11.7865,11.8152,11.8099,11.8016,11.7936,11.7747,11.7549,11.7337,11.7097,11.6962,11.6815,11.6894,11.7117,11.7898,11.8776,11.9881,12.0754,12.1216,12.1458,12.1535,12.1612,12.1612,12.1612,12.1612,11.1522,11.1522,11.1522,11.1557,11.1591,11.1568,11.1977,11.2736,11.3621,11.4517,11.5402,11.6221,11.6583,11.6697,11.6708,11.6722,11.6794,11.6815,11.6806,11.6826,11.6866,11.6953,11.7038,11.7091,11.7239,11.7361,11.7467,11.7581,11.7704,11.7747,11.7897,11.8019,11.8044,11.8105,11.8132,11.8132,11.8139,11.819,11.8218,11.8237,11.8297,11.8272,11.8276,11.8279,11.828,11.8281,11.8242,11.8164,11.8125,11.7578,11.6562,11.5898,11.5117,11.4062,11.3515,11.3203,11.3203,11.3203,11.3203,11.3203,11.3203,11.3203,11.3203,11.3203,11.3203,11.3203,11.3203,11.3203,11.3203,11.3203,11.3203,11.3203,11.3203,11.3203,11.3203,11.3203,11.3203,11.3203,11.3281,11.3633,11.4414,11.5156,11.6172,11.6836,11.707,11.7343,11.7496,11.7413,11.7568,11.7761,11.7903,11.7905,11.8096,11.8013,11.7897,11.7736,11.7562,11.7345,11.7149,11.6953,11.6804,11.6796,11.6952,11.7436,11.8469,11.9485,12.0562,12.1139,12.1458,12.1612,12.1612,12.1612,12.1612,12.1612,12.1612,11.1526,11.156,11.1599,11.1622,11.176,11.178,11.2214,11.2955,11.3841,11.4689,11.5576,11.6386,11.6686,11.6774,11.6774,11.6855,11.6914,11.6963,11.7048,11.7094,11.7118,11.7261,11.7305,11.7376,11.7511,11.7627,11.7722,11.7792,11.7922,11.7985,11.8025,11.8129,11.8174,11.8224,11.8246,11.8252,11.8269,11.8244,11.8257,11.8266,11.8273,11.8279,11.8281,11.8281,11.8203,11.8203,11.8125,11.7617,11.7461,11.707,11.5742,11.4922,11.4726,11.3828,11.3203,11.3203,11.3203,11.3203,11.3203,11.3203,11.3203,11.3203,11.3203,11.3203,11.3203,11.3203,11.3203,11.3203,11.3203,11.3203,11.3203,11.3203,11.3202,11.3162,11.3161,11.3161,11.3159,11.3157,11.3313,11.4249,11.5031,11.6008,11.7023,11.7539,11.7773,11.8125,11.8228,11.8024,11.7938,11.813,11.8142,11.8127,11.8002,11.7892,11.7691,11.7528,11.7337,11.7162,11.6972,11.6845,11.6761,11.6809,11.7078,11.7892,11.9138,12.0216,12.1266,12.1574,12.1574,12.1612,12.1612,12.1612,12.1612,12.1612,12.1612,11.1578,11.1622,11.1664,11.1799,11.1963,11.2066,11.2393,11.2901,11.358,11.4394,11.5254,11.6016,11.6625,11.6981,11.699,11.7055,11.7218,11.7244,11.7302,11.7353,11.7431,11.7489,11.7567,11.7634,11.7734,11.7875,11.7946,11.7984,11.8076,11.8122,11.8154,11.8218,11.8224,11.8248,11.831,11.8281,11.8296,11.8305,11.8274,11.8278,11.8281,11.8281,11.8281,11.8203,11.8047,11.7851,11.7695,11.6953,11.6562,11.6367,11.5078,11.4531,11.4375,11.3711,11.3203,11.3203,11.3203,11.3203,11.3203,11.3203,11.3203,11.3203,11.3203,11.3203,11.3203,11.3203,11.3203,11.3203,11.3203,11.3203,11.3203,11.3201,11.3198,11.3156,11.3153,11.3151,11.3108,11.3102,11.384,11.4851,11.579,11.677,11.7515,11.8024,11.8259,11.8256,11.8244,11.8146,11.8055,11.8085,11.8073,11.799,11.7873,11.7725,11.7528,11.7322,11.7132,11.6981,11.6865,11.675,11.6693,11.7139,11.7699,11.8765,11.9946,12.0831,12.1574,12.1574,12.1612,12.1612,12.1612,12.1612,12.1612,12.1612,12.1612,11.1622,11.1644,11.1845,11.2053,11.2265,11.2345,11.2459,11.2576,11.3073,11.3794,11.4723,11.551,11.6461,11.7178,11.7311,11.7361,11.7452,11.7496,11.7546,11.7621,11.7641,11.771,11.7786,11.7825,11.7941,11.8067,11.8115,11.8083,11.8115,11.8142,11.8163,11.828,11.8278,11.825,11.8271,11.8292,11.8304,11.8274,11.8278,11.8281,11.8281,11.8281,11.8242,11.8008,11.7539,11.6992,11.6718,11.6211,11.5586,11.5312,11.4883,11.4375,11.4023,11.3672,11.3281,11.3203,11.3203,11.3203,11.3203,11.3203,11.3203,11.3203,11.3203,11.3203,11.3203,11.3203,11.3203,11.3164,11.3164,11.3159,11.3158,11.3153,11.3147,11.3139,11.3094,11.3274,11.3487,11.3825,11.4825,11.5723,11.6514,11.7382,11.774,11.8211,11.822,11.8185,11.8168,11.8171,11.8099,11.8044,11.797,11.7892,11.7719,11.7581,11.733,11.7106,11.6953,11.6804,11.6691,11.6654,11.6589,11.7403,11.8484,11.9485,12.0446,12.1023,12.1574,12.1612,12.1612,12.1612,12.1612,12.1612,12.1612,12.1612,12.1612,11.1713,11.1915,11.2197,11.2352,11.2498,11.2604,11.2661,11.2754,11.2866,11.3681,11.4878,11.5781,11.6635,11.7324,11.7525,11.7601,11.7704,11.7734,11.7798,11.7852,11.7877,11.7912,11.8006,11.8019,11.8076,11.8119,11.8187,11.8181,11.8142,11.8142,11.8135,11.8148,11.8205,11.8236,11.822,11.8247,11.8307,11.8275,11.8163,11.8164,11.8164,11.8125,11.8047,11.7539,11.6914,11.6484,11.6015,11.5273,11.4883,11.4648,11.3945,11.3593,11.3476,11.3281,11.3203,11.3203,11.3203,11.3203,11.3203,11.3203,11.3203,11.3203,11.3202,11.3201,11.3203,11.32,11.3161,11.3159,11.3195,11.3191,11.3224,11.3212,11.3239,11.3226,11.3212,11.3566,11.3912,11.4818,11.581,11.6481,11.7201,11.7686,11.8009,11.8142,11.8154,11.8145,11.8122,11.8076,11.7967,11.7917,11.7758,11.7665,11.7567,11.7368,11.7144,11.6962,11.6825,11.6712,11.6616,11.6551,11.6572,11.7869,11.9177,11.9985,12.0831,12.1304,12.1612,12.1612,12.1612,12.1612,12.1612,12.1612,12.1612,12.1612,12.1612,11.1862,11.2086,11.2386,11.2616,11.2721,11.2781,11.2841,11.2898,11.2886,11.3557,11.4713,11.5567,11.6407,11.7263,11.7575,11.7814,11.7897,11.7941,11.8006,11.806,11.8091,11.8119,11.8135,11.8142,11.8207,11.8234,11.821,11.8199,11.8142,11.8135,11.8122,11.8119,11.8148,11.8216,11.8202,11.824,11.8265,11.8272,11.7967,11.7734,11.7734,11.7617,11.7265,11.6679,11.6054,11.5664,11.5156,11.4414,11.4023,11.3867,11.3437,11.332,11.3281,11.3203,11.3203,11.3203,11.3203,11.3203,11.3203,11.3203,11.3203,11.3202,11.3201,11.3199,11.3145,11.3144,11.3142,11.3177,11.3758,11.3828,11.3999,11.4016,11.4341,11.4438,11.4403,11.4551,11.4867,11.5414,11.5967,11.6341,11.705,11.7741,11.7963,11.8013,11.8021,11.7993,11.7997,11.7931,11.7803,11.7716,11.7608,11.7443,11.7329,11.7179,11.6981,11.6816,11.6701,11.6605,11.654,11.7133,11.7611,11.8792,11.9908,12.0639,12.1139,12.1381,12.1612,12.1612,12.1612,12.1612,12.1612,12.1612,12.1612,12.1612,12.1612,11.1953,11.2204,11.2598,11.2781,11.2913,11.2921,11.2934,11.3022,11.3033,11.3396,11.4174,11.49,11.5787,11.6741,11.7447,11.7826,11.8048,11.8063,11.8142,11.8171,11.8221,11.8202,11.8213,11.8222,11.8257,11.8241,11.8216,11.8135,11.8098,11.8091,11.8091,11.8109,11.8135,11.8202,11.8226,11.8233,11.8225,11.7879,11.7461,11.6914,11.6836,11.6758,11.6289,11.5586,11.4922,11.4492,11.414,11.375,11.3281,11.3242,11.3242,11.3203,11.3203,11.3203,11.3203,11.3203,11.3203,11.3203,11.3203,11.3203,11.3203,11.32,11.3199,11.3189,11.3127,11.3222,11.3218,11.3554,11.413,11.4469,11.4627,11.4857,11.5171,11.5404,11.535,11.5375,11.5651,11.6008,11.6241,11.6479,11.7025,11.7707,11.7798,11.7867,11.7872,11.7836,11.7781,11.7691,11.7594,11.7496,11.7376,11.7247,11.7091,11.6963,11.6825,11.6722,11.6594,11.6562,11.666,11.7611,11.8561,11.9408,12.0254,12.115,12.1574,12.1612,12.1612,12.1612,12.1612,12.1612,12.1612,12.1612,12.1612,12.1612,12.1612,11.1661,11.2622,11.2771,11.2894,11.2988,11.3022,11.3054,11.3076,11.3091,11.3215,11.3565,11.4301,11.537,11.6813,11.6969,11.7368,11.7963,11.8087,11.8228,11.8288,11.8244,11.829,11.8289,11.8237,11.8255,11.8224,11.8145,11.8094,11.8044,11.8023,11.8002,11.7945,11.8098,11.8135,11.8154,11.8101,11.7874,11.745,11.6875,11.6328,11.5468,11.539,11.539,11.4961,11.457,11.4062,11.3593,11.332,11.3203,11.3203,11.3203,11.3203,11.3203,11.3203,11.3203,11.3203,11.3203,11.3203,11.3203,11.3203,11.3202,11.3197,11.3191,11.3205,11.3322,11.3691,11.3825,11.4083,11.454,11.4859,11.5049,11.5244,11.5534,11.5668,11.5682,11.5872,11.6152,11.6545,11.6926,11.7012,11.7227,11.7518,11.7546,11.7614,11.766,11.7614,11.7574,11.7475,11.7399,11.7272,11.7127,11.7038,11.6885,11.6794,11.6729,11.6627,11.6529,11.6495,11.6792,11.783,11.8792,11.9677,12.0562,12.1343,12.1612,12.1612,12.1612,12.1612,12.1612,12.1612,12.1612,12.1612,12.1612,12.1612,12.1612]}]]